<?xml version="1.0" encoding="UTF-8" standalone="no" ?>
<gpx xmlns="http://www.topografix.com/GPX/1/1" xmlns:xsi="http://www.w3.org/2001/XMLSchema-instance" xsi:schemaLocation="http://www.topografix.com/GPX/1/1 http://www.topografix.com/GPX/1/1/gpx.xsd" version="1.1" creator="VisuGPX - https://www.visugpx.com">
  <metadata>
    <name>Loix.</name>
    <desc><![CDATA[Ile de Ré...]]></desc>
  </metadata>
  <trk>
    <name><![CDATA[28-AOU-16 18:54:38]]></name>
    <trkseg>
      <trkpt lat="46.1876" lon="-1.40803">
        <ele>6.39</ele>
        <time>2016-08-28T13:52:18Z</time>
      </trkpt>
      <trkpt lat="46.1876" lon="-1.40803">
        <ele>2.54</ele>
        <time>2016-08-28T13:52:19Z</time>
      </trkpt>
      <trkpt lat="46.1876" lon="-1.40803">
        <ele>-0.82</ele>
        <time>2016-08-28T13:52:20Z</time>
      </trkpt>
      <trkpt lat="46.1876" lon="-1.40803">
        <ele>3.5</ele>
        <time>2016-08-28T13:52:21Z</time>
      </trkpt>
      <trkpt lat="46.1876" lon="-1.40803">
        <ele>-0.34</ele>
        <time>2016-08-28T13:52:23Z</time>
      </trkpt>
      <trkpt lat="46.1876" lon="-1.40803">
        <ele>6.39</ele>
        <time>2016-08-28T13:52:25Z</time>
      </trkpt>
      <trkpt lat="46.1876" lon="-1.40803">
        <ele>3.5</ele>
        <time>2016-08-28T13:52:28Z</time>
      </trkpt>
      <trkpt lat="46.18759" lon="-1.40802">
        <ele>3.02</ele>
        <time>2016-08-28T13:52:37Z</time>
      </trkpt>
      <trkpt lat="46.18758" lon="-1.40802">
        <ele>3.02</ele>
        <time>2016-08-28T13:52:49Z</time>
      </trkpt>
      <trkpt lat="46.18758" lon="-1.40802">
        <ele>-3.71</ele>
        <time>2016-08-28T13:52:56Z</time>
      </trkpt>
      <trkpt lat="46.18758" lon="-1.40802">
        <ele>3.98</ele>
        <time>2016-08-28T13:52:57Z</time>
      </trkpt>
      <trkpt lat="46.18758" lon="-1.40802">
        <ele>3.5</ele>
        <time>2016-08-28T13:52:58Z</time>
      </trkpt>
      <trkpt lat="46.18757" lon="-1.40802">
        <ele>3.02</ele>
        <time>2016-08-28T13:53:12Z</time>
      </trkpt>
      <trkpt lat="46.18757" lon="-1.40802">
        <ele>2.54</ele>
        <time>2016-08-28T13:53:16Z</time>
      </trkpt>
      <trkpt lat="46.18756" lon="-1.40803">
        <ele>3.02</ele>
        <time>2016-08-28T13:53:25Z</time>
      </trkpt>
      <trkpt lat="46.18755" lon="-1.40804">
        <ele>3.02</ele>
        <time>2016-08-28T13:53:39Z</time>
      </trkpt>
      <trkpt lat="46.18755" lon="-1.40804">
        <ele>2.54</ele>
        <time>2016-08-28T13:53:40Z</time>
      </trkpt>
      <trkpt lat="46.18757" lon="-1.40825">
        <ele>3.02</ele>
        <time>2016-08-28T13:53:49Z</time>
      </trkpt>
      <trkpt lat="46.1875" lon="-1.40835">
        <ele>3.02</ele>
        <time>2016-08-28T13:53:54Z</time>
      </trkpt>
      <trkpt lat="46.1873" lon="-1.40835">
        <ele>5.91</ele>
        <time>2016-08-28T13:54:00Z</time>
      </trkpt>
      <trkpt lat="46.18726" lon="-1.40835">
        <ele>2.54</ele>
        <time>2016-08-28T13:54:01Z</time>
      </trkpt>
      <trkpt lat="46.18707" lon="-1.40829">
        <ele>2.54</ele>
        <time>2016-08-28T13:54:07Z</time>
      </trkpt>
      <trkpt lat="46.18705" lon="-1.40803">
        <ele>3.02</ele>
        <time>2016-08-28T13:54:13Z</time>
      </trkpt>
      <trkpt lat="46.18707" lon="-1.40761">
        <ele>3.02</ele>
        <time>2016-08-28T13:54:22Z</time>
      </trkpt>
      <trkpt lat="46.18705" lon="-1.40741">
        <ele>2.54</ele>
        <time>2016-08-28T13:54:26Z</time>
      </trkpt>
      <trkpt lat="46.18706" lon="-1.40723">
        <ele>3.02</ele>
        <time>2016-08-28T13:54:30Z</time>
      </trkpt>
      <trkpt lat="46.18706" lon="-1.40666">
        <ele>3.02</ele>
        <time>2016-08-28T13:54:40Z</time>
      </trkpt>
      <trkpt lat="46.18697" lon="-1.40633">
        <ele>3.5</ele>
        <time>2016-08-28T13:54:47Z</time>
      </trkpt>
      <trkpt lat="46.18697" lon="-1.40629">
        <ele>3.5</ele>
        <time>2016-08-28T13:54:48Z</time>
      </trkpt>
      <trkpt lat="46.187" lon="-1.406">
        <ele>3.02</ele>
        <time>2016-08-28T13:54:56Z</time>
      </trkpt>
      <trkpt lat="46.18702" lon="-1.40597">
        <ele>3.02</ele>
        <time>2016-08-28T13:54:57Z</time>
      </trkpt>
      <trkpt lat="46.18703" lon="-1.40594">
        <ele>3.02</ele>
        <time>2016-08-28T13:54:58Z</time>
      </trkpt>
      <trkpt lat="46.18704" lon="-1.40591">
        <ele>3.02</ele>
        <time>2016-08-28T13:54:59Z</time>
      </trkpt>
      <trkpt lat="46.18704" lon="-1.40587">
        <ele>3.02</ele>
        <time>2016-08-28T13:55:00Z</time>
      </trkpt>
      <trkpt lat="46.18712" lon="-1.4057">
        <ele>3.5</ele>
        <time>2016-08-28T13:55:08Z</time>
      </trkpt>
      <trkpt lat="46.18712" lon="-1.4057">
        <ele>3.5</ele>
        <time>2016-08-28T13:55:22Z</time>
      </trkpt>
      <trkpt lat="46.18715" lon="-1.40566">
        <ele>3.02</ele>
        <time>2016-08-28T13:55:37Z</time>
      </trkpt>
      <trkpt lat="46.18716" lon="-1.40566">
        <ele>3.02</ele>
        <time>2016-08-28T13:55:44Z</time>
      </trkpt>
      <trkpt lat="46.18718" lon="-1.40566">
        <ele>3.02</ele>
        <time>2016-08-28T13:55:45Z</time>
      </trkpt>
      <trkpt lat="46.1872" lon="-1.40567">
        <ele>2.54</ele>
        <time>2016-08-28T13:55:46Z</time>
      </trkpt>
      <trkpt lat="46.18721" lon="-1.4057">
        <ele>2.06</ele>
        <time>2016-08-28T13:55:47Z</time>
      </trkpt>
      <trkpt lat="46.18721" lon="-1.40574">
        <ele>2.06</ele>
        <time>2016-08-28T13:55:48Z</time>
      </trkpt>
      <trkpt lat="46.18722" lon="-1.40577">
        <ele>2.06</ele>
        <time>2016-08-28T13:55:49Z</time>
      </trkpt>
      <trkpt lat="46.18722" lon="-1.40581">
        <ele>2.06</ele>
        <time>2016-08-28T13:55:50Z</time>
      </trkpt>
      <trkpt lat="46.18726" lon="-1.40601">
        <ele>6.39</ele>
        <time>2016-08-28T13:55:54Z</time>
      </trkpt>
      <trkpt lat="46.18728" lon="-1.40606">
        <ele>3.02</ele>
        <time>2016-08-28T13:55:55Z</time>
      </trkpt>
      <trkpt lat="46.18731" lon="-1.40617">
        <ele>2.06</ele>
        <time>2016-08-28T13:55:57Z</time>
      </trkpt>
      <trkpt lat="46.18761" lon="-1.40682">
        <ele>2.54</ele>
        <time>2016-08-28T13:56:09Z</time>
      </trkpt>
      <trkpt lat="46.18807" lon="-1.40739">
        <ele>2.54</ele>
        <time>2016-08-28T13:56:21Z</time>
      </trkpt>
      <trkpt lat="46.1886" lon="-1.40817">
        <ele>1.58</ele>
        <time>2016-08-28T13:56:35Z</time>
      </trkpt>
      <trkpt lat="46.18887" lon="-1.40889">
        <ele>0.14</ele>
        <time>2016-08-28T13:56:45Z</time>
      </trkpt>
      <trkpt lat="46.18909" lon="-1.40964">
        <ele>8.31</ele>
        <time>2016-08-28T13:56:55Z</time>
      </trkpt>
      <trkpt lat="46.18911" lon="-1.40972">
        <ele>0.14</ele>
        <time>2016-08-28T13:56:56Z</time>
      </trkpt>
      <trkpt lat="46.18934" lon="-1.41044">
        <ele>0.62</ele>
        <time>2016-08-28T13:57:07Z</time>
      </trkpt>
      <trkpt lat="46.18938" lon="-1.41045">
        <ele>1.1</ele>
        <time>2016-08-28T13:57:08Z</time>
      </trkpt>
      <trkpt lat="46.18942" lon="-1.41042">
        <ele>0.62</ele>
        <time>2016-08-28T13:57:09Z</time>
      </trkpt>
      <trkpt lat="46.18946" lon="-1.41039">
        <ele>1.1</ele>
        <time>2016-08-28T13:57:10Z</time>
      </trkpt>
      <trkpt lat="46.18949" lon="-1.41034">
        <ele>0.62</ele>
        <time>2016-08-28T13:57:11Z</time>
      </trkpt>
      <trkpt lat="46.18981" lon="-1.40994">
        <ele>0.62</ele>
        <time>2016-08-28T13:57:22Z</time>
      </trkpt>
      <trkpt lat="46.19014" lon="-1.40944">
        <ele>1.58</ele>
        <time>2016-08-28T13:57:34Z</time>
      </trkpt>
      <trkpt lat="46.19054" lon="-1.4091">
        <ele>0.62</ele>
        <time>2016-08-28T13:57:45Z</time>
      </trkpt>
      <trkpt lat="46.19057" lon="-1.40907">
        <ele>0.62</ele>
        <time>2016-08-28T13:57:46Z</time>
      </trkpt>
      <trkpt lat="46.19061" lon="-1.40904">
        <ele>0.62</ele>
        <time>2016-08-28T13:57:47Z</time>
      </trkpt>
      <trkpt lat="46.19097" lon="-1.40883">
        <ele>1.1</ele>
        <time>2016-08-28T13:57:57Z</time>
      </trkpt>
      <trkpt lat="46.19121" lon="-1.40881">
        <ele>4.94</ele>
        <time>2016-08-28T13:58:03Z</time>
      </trkpt>
      <trkpt lat="46.19125" lon="-1.40882">
        <ele>1.1</ele>
        <time>2016-08-28T13:58:04Z</time>
      </trkpt>
      <trkpt lat="46.1913" lon="-1.40882">
        <ele>1.1</ele>
        <time>2016-08-28T13:58:05Z</time>
      </trkpt>
      <trkpt lat="46.19147" lon="-1.4088">
        <ele>1.1</ele>
        <time>2016-08-28T13:58:09Z</time>
      </trkpt>
      <trkpt lat="46.19197" lon="-1.40858">
        <ele>0.62</ele>
        <time>2016-08-28T13:58:21Z</time>
      </trkpt>
      <trkpt lat="46.19201" lon="-1.40857">
        <ele>1.1</ele>
        <time>2016-08-28T13:58:22Z</time>
      </trkpt>
      <trkpt lat="46.19217" lon="-1.40855">
        <ele>0.62</ele>
        <time>2016-08-28T13:58:26Z</time>
      </trkpt>
      <trkpt lat="46.1923" lon="-1.40854">
        <ele>0.62</ele>
        <time>2016-08-28T13:58:29Z</time>
      </trkpt>
      <trkpt lat="46.19234" lon="-1.40853">
        <ele>0.62</ele>
        <time>2016-08-28T13:58:30Z</time>
      </trkpt>
      <trkpt lat="46.19251" lon="-1.40849">
        <ele>1.1</ele>
        <time>2016-08-28T13:58:34Z</time>
      </trkpt>
      <trkpt lat="46.19268" lon="-1.40847">
        <ele>0.62</ele>
        <time>2016-08-28T13:58:38Z</time>
      </trkpt>
      <trkpt lat="46.19293" lon="-1.40837">
        <ele>0.62</ele>
        <time>2016-08-28T13:58:44Z</time>
      </trkpt>
      <trkpt lat="46.19297" lon="-1.40834">
        <ele>0.62</ele>
        <time>2016-08-28T13:58:45Z</time>
      </trkpt>
      <trkpt lat="46.19301" lon="-1.40831">
        <ele>0.62</ele>
        <time>2016-08-28T13:58:46Z</time>
      </trkpt>
      <trkpt lat="46.1933" lon="-1.40798">
        <ele>1.1</ele>
        <time>2016-08-28T13:58:55Z</time>
      </trkpt>
      <trkpt lat="46.19351" lon="-1.40786">
        <ele>0.62</ele>
        <time>2016-08-28T13:59:02Z</time>
      </trkpt>
      <trkpt lat="46.19352" lon="-1.40788">
        <ele>1.1</ele>
        <time>2016-08-28T13:59:03Z</time>
      </trkpt>
      <trkpt lat="46.19353" lon="-1.40791">
        <ele>1.1</ele>
        <time>2016-08-28T13:59:04Z</time>
      </trkpt>
      <trkpt lat="46.19355" lon="-1.40795">
        <ele>0.62</ele>
        <time>2016-08-28T13:59:05Z</time>
      </trkpt>
      <trkpt lat="46.19357" lon="-1.408">
        <ele>0.62</ele>
        <time>2016-08-28T13:59:06Z</time>
      </trkpt>
      <trkpt lat="46.19358" lon="-1.40805">
        <ele>0.62</ele>
        <time>2016-08-28T13:59:07Z</time>
      </trkpt>
      <trkpt lat="46.19373" lon="-1.40871">
        <ele>0.14</ele>
        <time>2016-08-28T13:59:18Z</time>
      </trkpt>
      <trkpt lat="46.19375" lon="-1.40878">
        <ele>1.1</ele>
        <time>2016-08-28T13:59:19Z</time>
      </trkpt>
      <trkpt lat="46.19377" lon="-1.40884">
        <ele>0.14</ele>
        <time>2016-08-28T13:59:20Z</time>
      </trkpt>
      <trkpt lat="46.19397" lon="-1.40968">
        <ele>-0.34</ele>
        <time>2016-08-28T13:59:33Z</time>
      </trkpt>
      <trkpt lat="46.19405" lon="-1.41006">
        <ele>-0.34</ele>
        <time>2016-08-28T13:59:39Z</time>
      </trkpt>
      <trkpt lat="46.19415" lon="-1.41046">
        <ele>0.62</ele>
        <time>2016-08-28T13:59:46Z</time>
      </trkpt>
      <trkpt lat="46.19422" lon="-1.41036">
        <ele>1.1</ele>
        <time>2016-08-28T13:59:50Z</time>
      </trkpt>
      <trkpt lat="46.19424" lon="-1.41025">
        <ele>1.1</ele>
        <time>2016-08-28T13:59:52Z</time>
      </trkpt>
      <trkpt lat="46.19426" lon="-1.4102">
        <ele>1.1</ele>
        <time>2016-08-28T13:59:53Z</time>
      </trkpt>
      <trkpt lat="46.19428" lon="-1.41014">
        <ele>1.1</ele>
        <time>2016-08-28T13:59:54Z</time>
      </trkpt>
      <trkpt lat="46.1943" lon="-1.41008">
        <ele>1.1</ele>
        <time>2016-08-28T13:59:55Z</time>
      </trkpt>
      <trkpt lat="46.19466" lon="-1.40938">
        <ele>1.58</ele>
        <time>2016-08-28T14:00:08Z</time>
      </trkpt>
      <trkpt lat="46.19509" lon="-1.4086">
        <ele>1.1</ele>
        <time>2016-08-28T14:00:22Z</time>
      </trkpt>
      <trkpt lat="46.19534" lon="-1.40812">
        <ele>1.58</ele>
        <time>2016-08-28T14:00:32Z</time>
      </trkpt>
      <trkpt lat="46.19539" lon="-1.4081">
        <ele>1.58</ele>
        <time>2016-08-28T14:00:34Z</time>
      </trkpt>
      <trkpt lat="46.19543" lon="-1.40811">
        <ele>1.58</ele>
        <time>2016-08-28T14:00:35Z</time>
      </trkpt>
      <trkpt lat="46.19546" lon="-1.40813">
        <ele>1.58</ele>
        <time>2016-08-28T14:00:36Z</time>
      </trkpt>
      <trkpt lat="46.19549" lon="-1.40816">
        <ele>1.1</ele>
        <time>2016-08-28T14:00:37Z</time>
      </trkpt>
      <trkpt lat="46.19552" lon="-1.4082">
        <ele>1.1</ele>
        <time>2016-08-28T14:00:38Z</time>
      </trkpt>
      <trkpt lat="46.19555" lon="-1.40824">
        <ele>1.1</ele>
        <time>2016-08-28T14:00:39Z</time>
      </trkpt>
      <trkpt lat="46.19559" lon="-1.40827">
        <ele>0.14</ele>
        <time>2016-08-28T14:00:40Z</time>
      </trkpt>
      <trkpt lat="46.19611" lon="-1.40882">
        <ele>1.58</ele>
        <time>2016-08-28T14:00:54Z</time>
      </trkpt>
      <trkpt lat="46.19659" lon="-1.40926">
        <ele>2.06</ele>
        <time>2016-08-28T14:01:06Z</time>
      </trkpt>
      <trkpt lat="46.19717" lon="-1.40973">
        <ele>1.58</ele>
        <time>2016-08-28T14:01:20Z</time>
      </trkpt>
      <trkpt lat="46.1976" lon="-1.41005">
        <ele>2.06</ele>
        <time>2016-08-28T14:01:30Z</time>
      </trkpt>
      <trkpt lat="46.19831" lon="-1.41067">
        <ele>2.06</ele>
        <time>2016-08-28T14:01:47Z</time>
      </trkpt>
      <trkpt lat="46.19869" lon="-1.4112">
        <ele>1.1</ele>
        <time>2016-08-28T14:01:58Z</time>
      </trkpt>
      <trkpt lat="46.19876" lon="-1.41128">
        <ele>1.58</ele>
        <time>2016-08-28T14:02:00Z</time>
      </trkpt>
      <trkpt lat="46.19891" lon="-1.41137">
        <ele>1.58</ele>
        <time>2016-08-28T14:02:04Z</time>
      </trkpt>
      <trkpt lat="46.19894" lon="-1.41134">
        <ele>1.1</ele>
        <time>2016-08-28T14:02:05Z</time>
      </trkpt>
      <trkpt lat="46.19896" lon="-1.41129">
        <ele>2.06</ele>
        <time>2016-08-28T14:02:06Z</time>
      </trkpt>
      <trkpt lat="46.19898" lon="-1.41123">
        <ele>2.06</ele>
        <time>2016-08-28T14:02:07Z</time>
      </trkpt>
      <trkpt lat="46.19899" lon="-1.41117">
        <ele>2.06</ele>
        <time>2016-08-28T14:02:08Z</time>
      </trkpt>
      <trkpt lat="46.19918" lon="-1.41034">
        <ele>3.02</ele>
        <time>2016-08-28T14:02:20Z</time>
      </trkpt>
      <trkpt lat="46.19921" lon="-1.41029">
        <ele>3.02</ele>
        <time>2016-08-28T14:02:21Z</time>
      </trkpt>
      <trkpt lat="46.19925" lon="-1.41026">
        <ele>2.54</ele>
        <time>2016-08-28T14:02:22Z</time>
      </trkpt>
      <trkpt lat="46.1993" lon="-1.41025">
        <ele>2.54</ele>
        <time>2016-08-28T14:02:23Z</time>
      </trkpt>
      <trkpt lat="46.19934" lon="-1.41025">
        <ele>2.06</ele>
        <time>2016-08-28T14:02:24Z</time>
      </trkpt>
      <trkpt lat="46.19961" lon="-1.41028">
        <ele>1.58</ele>
        <time>2016-08-28T14:02:31Z</time>
      </trkpt>
      <trkpt lat="46.19965" lon="-1.41029">
        <ele>2.06</ele>
        <time>2016-08-28T14:02:32Z</time>
      </trkpt>
      <trkpt lat="46.20022" lon="-1.41049">
        <ele>2.54</ele>
        <time>2016-08-28T14:02:43Z</time>
      </trkpt>
      <trkpt lat="46.20054" lon="-1.41056">
        <ele>3.02</ele>
        <time>2016-08-28T14:02:50Z</time>
      </trkpt>
      <trkpt lat="46.20059" lon="-1.41055">
        <ele>2.06</ele>
        <time>2016-08-28T14:02:51Z</time>
      </trkpt>
      <trkpt lat="46.20064" lon="-1.41054">
        <ele>2.54</ele>
        <time>2016-08-28T14:02:52Z</time>
      </trkpt>
      <trkpt lat="46.20104" lon="-1.41042">
        <ele>2.06</ele>
        <time>2016-08-28T14:03:00Z</time>
      </trkpt>
      <trkpt lat="46.20109" lon="-1.4104">
        <ele>2.06</ele>
        <time>2016-08-28T14:03:01Z</time>
      </trkpt>
      <trkpt lat="46.20127" lon="-1.41034">
        <ele>1.58</ele>
        <time>2016-08-28T14:03:05Z</time>
      </trkpt>
      <trkpt lat="46.2017" lon="-1.41014">
        <ele>2.06</ele>
        <time>2016-08-28T14:03:16Z</time>
      </trkpt>
      <trkpt lat="46.20177" lon="-1.41018">
        <ele>1.58</ele>
        <time>2016-08-28T14:03:18Z</time>
      </trkpt>
      <trkpt lat="46.20198" lon="-1.41036">
        <ele>1.58</ele>
        <time>2016-08-28T14:03:24Z</time>
      </trkpt>
      <trkpt lat="46.20206" lon="-1.41041">
        <ele>1.58</ele>
        <time>2016-08-28T14:03:26Z</time>
      </trkpt>
      <trkpt lat="46.2021" lon="-1.41041">
        <ele>1.58</ele>
        <time>2016-08-28T14:03:27Z</time>
      </trkpt>
      <trkpt lat="46.20214" lon="-1.41041">
        <ele>2.06</ele>
        <time>2016-08-28T14:03:28Z</time>
      </trkpt>
      <trkpt lat="46.20217" lon="-1.4104">
        <ele>1.58</ele>
        <time>2016-08-28T14:03:29Z</time>
      </trkpt>
      <trkpt lat="46.20221" lon="-1.41039">
        <ele>2.06</ele>
        <time>2016-08-28T14:03:30Z</time>
      </trkpt>
      <trkpt lat="46.20261" lon="-1.41027">
        <ele>2.06</ele>
        <time>2016-08-28T14:03:42Z</time>
      </trkpt>
      <trkpt lat="46.20263" lon="-1.41026">
        <ele>3.02</ele>
        <time>2016-08-28T14:03:46Z</time>
      </trkpt>
      <trkpt lat="46.20263" lon="-1.41026">
        <ele>1.58</ele>
        <time>2016-08-28T14:03:56Z</time>
      </trkpt>
      <trkpt lat="46.20265" lon="-1.41028">
        <ele>1.58</ele>
        <time>2016-08-28T14:04:05Z</time>
      </trkpt>
      <trkpt lat="46.20265" lon="-1.4103">
        <ele>1.58</ele>
        <time>2016-08-28T14:04:19Z</time>
      </trkpt>
      <trkpt lat="46.20265" lon="-1.41032">
        <ele>2.06</ele>
        <time>2016-08-28T14:04:42Z</time>
      </trkpt>
      <trkpt lat="46.20266" lon="-1.41031">
        <ele>2.06</ele>
        <time>2016-08-28T14:04:53Z</time>
      </trkpt>
      <trkpt lat="46.20265" lon="-1.4103">
        <ele>1.58</ele>
        <time>2016-08-28T14:04:54Z</time>
      </trkpt>
      <trkpt lat="46.20266" lon="-1.41028">
        <ele>2.06</ele>
        <time>2016-08-28T14:05:06Z</time>
      </trkpt>
      <trkpt lat="46.20266" lon="-1.41026">
        <ele>1.1</ele>
        <time>2016-08-28T14:05:28Z</time>
      </trkpt>
      <trkpt lat="46.20266" lon="-1.41026">
        <ele>-4.67</ele>
        <time>2016-08-28T14:05:39Z</time>
      </trkpt>
      <trkpt lat="46.20266" lon="-1.41026">
        <ele>5.42</ele>
        <time>2016-08-28T14:05:40Z</time>
      </trkpt>
      <trkpt lat="46.20266" lon="-1.41026">
        <ele>4.46</ele>
        <time>2016-08-28T14:05:41Z</time>
      </trkpt>
      <trkpt lat="46.20266" lon="-1.41026">
        <ele>-1.79</ele>
        <time>2016-08-28T14:05:47Z</time>
      </trkpt>
      <trkpt lat="46.20266" lon="-1.41026">
        <ele>6.87</ele>
        <time>2016-08-28T14:05:48Z</time>
      </trkpt>
      <trkpt lat="46.20266" lon="-1.41026">
        <ele>2.06</ele>
        <time>2016-08-28T14:05:49Z</time>
      </trkpt>
      <trkpt lat="46.20267" lon="-1.41026">
        <ele>6.39</ele>
        <time>2016-08-28T14:05:59Z</time>
      </trkpt>
      <trkpt lat="46.20267" lon="-1.41026">
        <ele>2.06</ele>
        <time>2016-08-28T14:06:00Z</time>
      </trkpt>
      <trkpt lat="46.20266" lon="-1.41024">
        <ele>2.06</ele>
        <time>2016-08-28T14:06:08Z</time>
      </trkpt>
      <trkpt lat="46.20266" lon="-1.41022">
        <ele>1.58</ele>
        <time>2016-08-28T14:06:09Z</time>
      </trkpt>
      <trkpt lat="46.20266" lon="-1.4102">
        <ele>2.06</ele>
        <time>2016-08-28T14:06:10Z</time>
      </trkpt>
      <trkpt lat="46.20266" lon="-1.41018">
        <ele>1.58</ele>
        <time>2016-08-28T14:06:11Z</time>
      </trkpt>
      <trkpt lat="46.20267" lon="-1.41015">
        <ele>1.58</ele>
        <time>2016-08-28T14:06:12Z</time>
      </trkpt>
      <trkpt lat="46.20268" lon="-1.41012">
        <ele>2.06</ele>
        <time>2016-08-28T14:06:13Z</time>
      </trkpt>
      <trkpt lat="46.20268" lon="-1.41009">
        <ele>2.06</ele>
        <time>2016-08-28T14:06:14Z</time>
      </trkpt>
      <trkpt lat="46.20268" lon="-1.41005">
        <ele>2.06</ele>
        <time>2016-08-28T14:06:15Z</time>
      </trkpt>
      <trkpt lat="46.20268" lon="-1.41">
        <ele>2.54</ele>
        <time>2016-08-28T14:06:16Z</time>
      </trkpt>
      <trkpt lat="46.20267" lon="-1.40996">
        <ele>2.54</ele>
        <time>2016-08-28T14:06:17Z</time>
      </trkpt>
      <trkpt lat="46.20263" lon="-1.40933">
        <ele>1.58</ele>
        <time>2016-08-28T14:06:28Z</time>
      </trkpt>
      <trkpt lat="46.20263" lon="-1.40864">
        <ele>1.58</ele>
        <time>2016-08-28T14:06:40Z</time>
      </trkpt>
      <trkpt lat="46.20266" lon="-1.4086">
        <ele>1.1</ele>
        <time>2016-08-28T14:06:41Z</time>
      </trkpt>
      <trkpt lat="46.20269" lon="-1.40857">
        <ele>1.58</ele>
        <time>2016-08-28T14:06:42Z</time>
      </trkpt>
      <trkpt lat="46.20311" lon="-1.40836">
        <ele>2.06</ele>
        <time>2016-08-28T14:06:54Z</time>
      </trkpt>
      <trkpt lat="46.20323" lon="-1.40836">
        <ele>2.54</ele>
        <time>2016-08-28T14:06:59Z</time>
      </trkpt>
      <trkpt lat="46.20325" lon="-1.4084">
        <ele>2.54</ele>
        <time>2016-08-28T14:07:00Z</time>
      </trkpt>
      <trkpt lat="46.20326" lon="-1.40844">
        <ele>1.58</ele>
        <time>2016-08-28T14:07:01Z</time>
      </trkpt>
      <trkpt lat="46.20338" lon="-1.40907">
        <ele>1.1</ele>
        <time>2016-08-28T14:07:13Z</time>
      </trkpt>
      <trkpt lat="46.20354" lon="-1.4098">
        <ele>1.1</ele>
        <time>2016-08-28T14:07:27Z</time>
      </trkpt>
      <trkpt lat="46.20374" lon="-1.41043">
        <ele>1.1</ele>
        <time>2016-08-28T14:07:39Z</time>
      </trkpt>
      <trkpt lat="46.20396" lon="-1.41118">
        <ele>0.62</ele>
        <time>2016-08-28T14:07:53Z</time>
      </trkpt>
      <trkpt lat="46.20414" lon="-1.41189">
        <ele>1.1</ele>
        <time>2016-08-28T14:08:06Z</time>
      </trkpt>
      <trkpt lat="46.20435" lon="-1.41259">
        <ele>1.1</ele>
        <time>2016-08-28T14:08:19Z</time>
      </trkpt>
      <trkpt lat="46.2045" lon="-1.4134">
        <ele>0.62</ele>
        <time>2016-08-28T14:08:33Z</time>
      </trkpt>
      <trkpt lat="46.2045" lon="-1.41352">
        <ele>-0.82</ele>
        <time>2016-08-28T14:08:35Z</time>
      </trkpt>
      <trkpt lat="46.2045" lon="-1.41358">
        <ele>-0.34</ele>
        <time>2016-08-28T14:08:36Z</time>
      </trkpt>
      <trkpt lat="46.20449" lon="-1.41363">
        <ele>0.14</ele>
        <time>2016-08-28T14:08:37Z</time>
      </trkpt>
      <trkpt lat="46.20437" lon="-1.41411">
        <ele>-0.34</ele>
        <time>2016-08-28T14:08:46Z</time>
      </trkpt>
      <trkpt lat="46.20432" lon="-1.41469">
        <ele>0.14</ele>
        <time>2016-08-28T14:08:56Z</time>
      </trkpt>
      <trkpt lat="46.20432" lon="-1.41475">
        <ele>0.62</ele>
        <time>2016-08-28T14:08:57Z</time>
      </trkpt>
      <trkpt lat="46.20433" lon="-1.41481">
        <ele>0.14</ele>
        <time>2016-08-28T14:08:58Z</time>
      </trkpt>
      <trkpt lat="46.20434" lon="-1.41487">
        <ele>1.1</ele>
        <time>2016-08-28T14:08:59Z</time>
      </trkpt>
      <trkpt lat="46.20434" lon="-1.41493">
        <ele>0.14</ele>
        <time>2016-08-28T14:09:00Z</time>
      </trkpt>
      <trkpt lat="46.20452" lon="-1.41581">
        <ele>1.1</ele>
        <time>2016-08-28T14:09:16Z</time>
      </trkpt>
      <trkpt lat="46.20443" lon="-1.4163">
        <ele>0.62</ele>
        <time>2016-08-28T14:09:26Z</time>
      </trkpt>
      <trkpt lat="46.20438" lon="-1.41672">
        <ele>1.58</ele>
        <time>2016-08-28T14:09:35Z</time>
      </trkpt>
      <trkpt lat="46.20431" lon="-1.41726">
        <ele>2.06</ele>
        <time>2016-08-28T14:09:46Z</time>
      </trkpt>
      <trkpt lat="46.20431" lon="-1.41729">
        <ele>2.06</ele>
        <time>2016-08-28T14:09:51Z</time>
      </trkpt>
      <trkpt lat="46.2043" lon="-1.41728">
        <ele>1.58</ele>
        <time>2016-08-28T14:10:02Z</time>
      </trkpt>
      <trkpt lat="46.2043" lon="-1.41729">
        <ele>1.1</ele>
        <time>2016-08-28T14:10:38Z</time>
      </trkpt>
      <trkpt lat="46.2043" lon="-1.41729">
        <ele>1.58</ele>
        <time>2016-08-28T14:11:08Z</time>
      </trkpt>
      <trkpt lat="46.20431" lon="-1.41729">
        <ele>1.58</ele>
        <time>2016-08-28T14:11:43Z</time>
      </trkpt>
      <trkpt lat="46.20431" lon="-1.41729">
        <ele>1.58</ele>
        <time>2016-08-28T14:12:12Z</time>
      </trkpt>
      <trkpt lat="46.20431" lon="-1.41729">
        <ele>1.58</ele>
        <time>2016-08-28T14:12:37Z</time>
      </trkpt>
      <trkpt lat="46.2043" lon="-1.41729">
        <ele>1.58</ele>
        <time>2016-08-28T14:13:09Z</time>
      </trkpt>
      <trkpt lat="46.20431" lon="-1.41729">
        <ele>1.1</ele>
        <time>2016-08-28T14:13:41Z</time>
      </trkpt>
      <trkpt lat="46.20431" lon="-1.41729">
        <ele>3.5</ele>
        <time>2016-08-28T14:14:09Z</time>
      </trkpt>
      <trkpt lat="46.20431" lon="-1.41729">
        <ele>3.02</ele>
        <time>2016-08-28T14:14:28Z</time>
      </trkpt>
      <trkpt lat="46.20432" lon="-1.4173">
        <ele>2.54</ele>
        <time>2016-08-28T14:14:29Z</time>
      </trkpt>
      <trkpt lat="46.20432" lon="-1.41732">
        <ele>2.54</ele>
        <time>2016-08-28T14:14:30Z</time>
      </trkpt>
      <trkpt lat="46.20432" lon="-1.41734">
        <ele>2.54</ele>
        <time>2016-08-28T14:14:31Z</time>
      </trkpt>
      <trkpt lat="46.20433" lon="-1.41736">
        <ele>2.54</ele>
        <time>2016-08-28T14:14:32Z</time>
      </trkpt>
      <trkpt lat="46.20433" lon="-1.41738">
        <ele>2.06</ele>
        <time>2016-08-28T14:14:33Z</time>
      </trkpt>
      <trkpt lat="46.20433" lon="-1.41741">
        <ele>2.54</ele>
        <time>2016-08-28T14:14:34Z</time>
      </trkpt>
      <trkpt lat="46.20437" lon="-1.41776">
        <ele>2.06</ele>
        <time>2016-08-28T14:14:42Z</time>
      </trkpt>
      <trkpt lat="46.20446" lon="-1.41844">
        <ele>2.06</ele>
        <time>2016-08-28T14:14:55Z</time>
      </trkpt>
      <trkpt lat="46.20452" lon="-1.41922">
        <ele>1.58</ele>
        <time>2016-08-28T14:15:09Z</time>
      </trkpt>
      <trkpt lat="46.20451" lon="-1.41946">
        <ele>1.58</ele>
        <time>2016-08-28T14:15:13Z</time>
      </trkpt>
      <trkpt lat="46.20451" lon="-1.41978">
        <ele>1.1</ele>
        <time>2016-08-28T14:15:18Z</time>
      </trkpt>
      <trkpt lat="46.20452" lon="-1.42069">
        <ele>0.62</ele>
        <time>2016-08-28T14:15:33Z</time>
      </trkpt>
      <trkpt lat="46.20451" lon="-1.42142">
        <ele>1.1</ele>
        <time>2016-08-28T14:15:45Z</time>
      </trkpt>
      <trkpt lat="46.20461" lon="-1.42231">
        <ele>1.1</ele>
        <time>2016-08-28T14:16:00Z</time>
      </trkpt>
      <trkpt lat="46.20471" lon="-1.4231">
        <ele>0.62</ele>
        <time>2016-08-28T14:16:13Z</time>
      </trkpt>
      <trkpt lat="46.2048" lon="-1.42397">
        <ele>0.62</ele>
        <time>2016-08-28T14:16:27Z</time>
      </trkpt>
      <trkpt lat="46.20486" lon="-1.42445">
        <ele>1.1</ele>
        <time>2016-08-28T14:16:35Z</time>
      </trkpt>
      <trkpt lat="46.20486" lon="-1.42465">
        <ele>1.58</ele>
        <time>2016-08-28T14:16:38Z</time>
      </trkpt>
      <trkpt lat="46.20485" lon="-1.42471">
        <ele>1.1</ele>
        <time>2016-08-28T14:16:39Z</time>
      </trkpt>
      <trkpt lat="46.20484" lon="-1.42477">
        <ele>1.1</ele>
        <time>2016-08-28T14:16:40Z</time>
      </trkpt>
      <trkpt lat="46.20465" lon="-1.42557">
        <ele>0.62</ele>
        <time>2016-08-28T14:16:54Z</time>
      </trkpt>
      <trkpt lat="46.20464" lon="-1.42563">
        <ele>1.1</ele>
        <time>2016-08-28T14:16:55Z</time>
      </trkpt>
      <trkpt lat="46.20465" lon="-1.42568">
        <ele>1.1</ele>
        <time>2016-08-28T14:16:56Z</time>
      </trkpt>
      <trkpt lat="46.20466" lon="-1.42573">
        <ele>0.62</ele>
        <time>2016-08-28T14:16:57Z</time>
      </trkpt>
      <trkpt lat="46.20467" lon="-1.42579">
        <ele>0.14</ele>
        <time>2016-08-28T14:16:58Z</time>
      </trkpt>
      <trkpt lat="46.20468" lon="-1.42584">
        <ele>0.62</ele>
        <time>2016-08-28T14:16:59Z</time>
      </trkpt>
      <trkpt lat="46.20469" lon="-1.4259">
        <ele>2.06</ele>
        <time>2016-08-28T14:17:00Z</time>
      </trkpt>
      <trkpt lat="46.20471" lon="-1.42595">
        <ele>0.62</ele>
        <time>2016-08-28T14:17:01Z</time>
      </trkpt>
      <trkpt lat="46.20472" lon="-1.426">
        <ele>0.62</ele>
        <time>2016-08-28T14:17:02Z</time>
      </trkpt>
      <trkpt lat="46.2048" lon="-1.42631">
        <ele>1.1</ele>
        <time>2016-08-28T14:17:08Z</time>
      </trkpt>
      <trkpt lat="46.20483" lon="-1.42635">
        <ele>1.58</ele>
        <time>2016-08-28T14:17:09Z</time>
      </trkpt>
      <trkpt lat="46.20486" lon="-1.42638">
        <ele>2.06</ele>
        <time>2016-08-28T14:17:10Z</time>
      </trkpt>
      <trkpt lat="46.20489" lon="-1.4264">
        <ele>2.06</ele>
        <time>2016-08-28T14:17:11Z</time>
      </trkpt>
      <trkpt lat="46.20493" lon="-1.42642">
        <ele>2.54</ele>
        <time>2016-08-28T14:17:12Z</time>
      </trkpt>
      <trkpt lat="46.20496" lon="-1.42642">
        <ele>1.58</ele>
        <time>2016-08-28T14:17:13Z</time>
      </trkpt>
      <trkpt lat="46.20499" lon="-1.42641">
        <ele>3.02</ele>
        <time>2016-08-28T14:17:14Z</time>
      </trkpt>
      <trkpt lat="46.20502" lon="-1.42639">
        <ele>2.54</ele>
        <time>2016-08-28T14:17:15Z</time>
      </trkpt>
      <trkpt lat="46.20505" lon="-1.42637">
        <ele>3.02</ele>
        <time>2016-08-28T14:17:16Z</time>
      </trkpt>
      <trkpt lat="46.20508" lon="-1.42636">
        <ele>3.02</ele>
        <time>2016-08-28T14:17:17Z</time>
      </trkpt>
      <trkpt lat="46.20512" lon="-1.42635">
        <ele>3.5</ele>
        <time>2016-08-28T14:17:18Z</time>
      </trkpt>
      <trkpt lat="46.20515" lon="-1.42635">
        <ele>3.5</ele>
        <time>2016-08-28T14:17:19Z</time>
      </trkpt>
      <trkpt lat="46.20519" lon="-1.42637">
        <ele>2.06</ele>
        <time>2016-08-28T14:17:20Z</time>
      </trkpt>
      <trkpt lat="46.20522" lon="-1.4264">
        <ele>2.54</ele>
        <time>2016-08-28T14:17:21Z</time>
      </trkpt>
      <trkpt lat="46.20524" lon="-1.42644">
        <ele>2.54</ele>
        <time>2016-08-28T14:17:22Z</time>
      </trkpt>
      <trkpt lat="46.20527" lon="-1.42648">
        <ele>3.02</ele>
        <time>2016-08-28T14:17:23Z</time>
      </trkpt>
      <trkpt lat="46.20562" lon="-1.42689">
        <ele>2.54</ele>
        <time>2016-08-28T14:17:36Z</time>
      </trkpt>
      <trkpt lat="46.20582" lon="-1.42711">
        <ele>1.58</ele>
        <time>2016-08-28T14:17:44Z</time>
      </trkpt>
      <trkpt lat="46.20587" lon="-1.4272">
        <ele>1.58</ele>
        <time>2016-08-28T14:17:46Z</time>
      </trkpt>
      <trkpt lat="46.20589" lon="-1.42725">
        <ele>1.58</ele>
        <time>2016-08-28T14:17:47Z</time>
      </trkpt>
      <trkpt lat="46.2059" lon="-1.42731">
        <ele>0.62</ele>
        <time>2016-08-28T14:17:48Z</time>
      </trkpt>
      <trkpt lat="46.20591" lon="-1.42737">
        <ele>0.14</ele>
        <time>2016-08-28T14:17:49Z</time>
      </trkpt>
      <trkpt lat="46.20591" lon="-1.42743">
        <ele>-0.34</ele>
        <time>2016-08-28T14:17:50Z</time>
      </trkpt>
      <trkpt lat="46.20591" lon="-1.42749">
        <ele>-0.34</ele>
        <time>2016-08-28T14:17:51Z</time>
      </trkpt>
      <trkpt lat="46.20591" lon="-1.42755">
        <ele>0.62</ele>
        <time>2016-08-28T14:17:52Z</time>
      </trkpt>
      <trkpt lat="46.2059" lon="-1.42761">
        <ele>2.54</ele>
        <time>2016-08-28T14:17:53Z</time>
      </trkpt>
      <trkpt lat="46.20583" lon="-1.42829">
        <ele>2.06</ele>
        <time>2016-08-28T14:18:05Z</time>
      </trkpt>
      <trkpt lat="46.20575" lon="-1.42847">
        <ele>2.54</ele>
        <time>2016-08-28T14:18:09Z</time>
      </trkpt>
      <trkpt lat="46.20546" lon="-1.42853">
        <ele>3.98</ele>
        <time>2016-08-28T14:18:17Z</time>
      </trkpt>
      <trkpt lat="46.20514" lon="-1.42855">
        <ele>3.02</ele>
        <time>2016-08-28T14:18:25Z</time>
      </trkpt>
      <trkpt lat="46.2051" lon="-1.42854">
        <ele>3.5</ele>
        <time>2016-08-28T14:18:26Z</time>
      </trkpt>
      <trkpt lat="46.20506" lon="-1.42853">
        <ele>3.98</ele>
        <time>2016-08-28T14:18:27Z</time>
      </trkpt>
      <trkpt lat="46.20502" lon="-1.42851">
        <ele>3.5</ele>
        <time>2016-08-28T14:18:28Z</time>
      </trkpt>
      <trkpt lat="46.20498" lon="-1.42849">
        <ele>3.02</ele>
        <time>2016-08-28T14:18:29Z</time>
      </trkpt>
      <trkpt lat="46.20494" lon="-1.42845">
        <ele>3.02</ele>
        <time>2016-08-28T14:18:30Z</time>
      </trkpt>
      <trkpt lat="46.20491" lon="-1.42841">
        <ele>3.02</ele>
        <time>2016-08-28T14:18:31Z</time>
      </trkpt>
      <trkpt lat="46.20488" lon="-1.42837">
        <ele>3.02</ele>
        <time>2016-08-28T14:18:32Z</time>
      </trkpt>
      <trkpt lat="46.20477" lon="-1.42819">
        <ele>3.02</ele>
        <time>2016-08-28T14:18:36Z</time>
      </trkpt>
      <trkpt lat="46.20468" lon="-1.42807">
        <ele>3.5</ele>
        <time>2016-08-28T14:18:39Z</time>
      </trkpt>
      <trkpt lat="46.20465" lon="-1.42804">
        <ele>3.02</ele>
        <time>2016-08-28T14:18:40Z</time>
      </trkpt>
      <trkpt lat="46.20461" lon="-1.42801">
        <ele>3.98</ele>
        <time>2016-08-28T14:18:41Z</time>
      </trkpt>
      <trkpt lat="46.20457" lon="-1.42798">
        <ele>3.5</ele>
        <time>2016-08-28T14:18:42Z</time>
      </trkpt>
      <trkpt lat="46.20452" lon="-1.42796">
        <ele>3.02</ele>
        <time>2016-08-28T14:18:43Z</time>
      </trkpt>
      <trkpt lat="46.20448" lon="-1.42795">
        <ele>3.5</ele>
        <time>2016-08-28T14:18:44Z</time>
      </trkpt>
      <trkpt lat="46.20444" lon="-1.42795">
        <ele>3.5</ele>
        <time>2016-08-28T14:18:45Z</time>
      </trkpt>
      <trkpt lat="46.2044" lon="-1.42796">
        <ele>3.98</ele>
        <time>2016-08-28T14:18:46Z</time>
      </trkpt>
      <trkpt lat="46.20435" lon="-1.42797">
        <ele>3.98</ele>
        <time>2016-08-28T14:18:47Z</time>
      </trkpt>
      <trkpt lat="46.20422" lon="-1.42797">
        <ele>2.54</ele>
        <time>2016-08-28T14:18:50Z</time>
      </trkpt>
      <trkpt lat="46.20418" lon="-1.42795">
        <ele>3.5</ele>
        <time>2016-08-28T14:18:51Z</time>
      </trkpt>
      <trkpt lat="46.2041" lon="-1.42793">
        <ele>2.54</ele>
        <time>2016-08-28T14:18:53Z</time>
      </trkpt>
      <trkpt lat="46.20368" lon="-1.42795">
        <ele>2.06</ele>
        <time>2016-08-28T14:19:04Z</time>
      </trkpt>
      <trkpt lat="46.20367" lon="-1.428">
        <ele>2.06</ele>
        <time>2016-08-28T14:19:05Z</time>
      </trkpt>
      <trkpt lat="46.20367" lon="-1.42811">
        <ele>2.54</ele>
        <time>2016-08-28T14:19:11Z</time>
      </trkpt>
      <trkpt lat="46.20366" lon="-1.42812">
        <ele>7.35</ele>
        <time>2016-08-28T14:19:13Z</time>
      </trkpt>
      <trkpt lat="46.20366" lon="-1.42812">
        <ele>2.06</ele>
        <time>2016-08-28T14:19:14Z</time>
      </trkpt>
      <trkpt lat="46.20366" lon="-1.42812">
        <ele>-4.67</ele>
        <time>2016-08-28T14:19:17Z</time>
      </trkpt>
      <trkpt lat="46.20366" lon="-1.42812">
        <ele>9.27</ele>
        <time>2016-08-28T14:19:18Z</time>
      </trkpt>
      <trkpt lat="46.20366" lon="-1.42812">
        <ele>2.54</ele>
        <time>2016-08-28T14:19:19Z</time>
      </trkpt>
      <trkpt lat="46.20366" lon="-1.42812">
        <ele>16</ele>
        <time>2016-08-28T14:19:21Z</time>
      </trkpt>
      <trkpt lat="46.20366" lon="-1.42812">
        <ele>-12.36</ele>
        <time>2016-08-28T14:19:22Z</time>
      </trkpt>
      <trkpt lat="46.20366" lon="-1.42812">
        <ele>3.98</ele>
        <time>2016-08-28T14:19:23Z</time>
      </trkpt>
      <trkpt lat="46.20366" lon="-1.42812">
        <ele>9.75</ele>
        <time>2016-08-28T14:19:24Z</time>
      </trkpt>
      <trkpt lat="46.20366" lon="-1.42812">
        <ele>-3.71</ele>
        <time>2016-08-28T14:19:25Z</time>
      </trkpt>
      <trkpt lat="46.20366" lon="-1.42812">
        <ele>0.62</ele>
        <time>2016-08-28T14:19:27Z</time>
      </trkpt>
      <trkpt lat="46.20366" lon="-1.42812">
        <ele>6.39</ele>
        <time>2016-08-28T14:19:28Z</time>
      </trkpt>
      <trkpt lat="46.20366" lon="-1.42812">
        <ele>2.06</ele>
        <time>2016-08-28T14:19:30Z</time>
      </trkpt>
      <trkpt lat="46.20366" lon="-1.42812">
        <ele>9.27</ele>
        <time>2016-08-28T14:19:34Z</time>
      </trkpt>
      <trkpt lat="46.20366" lon="-1.42812">
        <ele>-5.63</ele>
        <time>2016-08-28T14:19:35Z</time>
      </trkpt>
      <trkpt lat="46.20366" lon="-1.42812">
        <ele>2.54</ele>
        <time>2016-08-28T14:19:36Z</time>
      </trkpt>
      <trkpt lat="46.20366" lon="-1.42812">
        <ele>9.27</ele>
        <time>2016-08-28T14:19:40Z</time>
      </trkpt>
      <trkpt lat="46.20366" lon="-1.42812">
        <ele>2.06</ele>
        <time>2016-08-28T14:19:41Z</time>
      </trkpt>
      <trkpt lat="46.20364" lon="-1.42819">
        <ele>1.58</ele>
        <time>2016-08-28T14:19:59Z</time>
      </trkpt>
      <trkpt lat="46.20361" lon="-1.42847">
        <ele>2.06</ele>
        <time>2016-08-28T14:20:07Z</time>
      </trkpt>
      <trkpt lat="46.20363" lon="-1.42851">
        <ele>1.58</ele>
        <time>2016-08-28T14:20:08Z</time>
      </trkpt>
      <trkpt lat="46.20365" lon="-1.42853">
        <ele>2.06</ele>
        <time>2016-08-28T14:20:09Z</time>
      </trkpt>
      <trkpt lat="46.20367" lon="-1.42856">
        <ele>1.58</ele>
        <time>2016-08-28T14:20:10Z</time>
      </trkpt>
      <trkpt lat="46.20368" lon="-1.42859">
        <ele>1.58</ele>
        <time>2016-08-28T14:20:11Z</time>
      </trkpt>
      <trkpt lat="46.20393" lon="-1.42891">
        <ele>1.58</ele>
        <time>2016-08-28T14:20:20Z</time>
      </trkpt>
      <trkpt lat="46.20443" lon="-1.4294">
        <ele>2.54</ele>
        <time>2016-08-28T14:20:34Z</time>
      </trkpt>
      <trkpt lat="46.20467" lon="-1.42968">
        <ele>2.06</ele>
        <time>2016-08-28T14:20:41Z</time>
      </trkpt>
      <trkpt lat="46.2047" lon="-1.42973">
        <ele>1.58</ele>
        <time>2016-08-28T14:20:42Z</time>
      </trkpt>
      <trkpt lat="46.20472" lon="-1.42978">
        <ele>2.06</ele>
        <time>2016-08-28T14:20:43Z</time>
      </trkpt>
      <trkpt lat="46.20508" lon="-1.43059">
        <ele>1.58</ele>
        <time>2016-08-28T14:20:58Z</time>
      </trkpt>
      <trkpt lat="46.20509" lon="-1.43065">
        <ele>2.06</ele>
        <time>2016-08-28T14:20:59Z</time>
      </trkpt>
      <trkpt lat="46.20512" lon="-1.43106">
        <ele>2.06</ele>
        <time>2016-08-28T14:21:05Z</time>
      </trkpt>
      <trkpt lat="46.20509" lon="-1.43131">
        <ele>1.58</ele>
        <time>2016-08-28T14:21:09Z</time>
      </trkpt>
      <trkpt lat="46.20508" lon="-1.43137">
        <ele>1.58</ele>
        <time>2016-08-28T14:21:10Z</time>
      </trkpt>
      <trkpt lat="46.20507" lon="-1.43142">
        <ele>1.1</ele>
        <time>2016-08-28T14:21:11Z</time>
      </trkpt>
      <trkpt lat="46.20506" lon="-1.43148">
        <ele>1.1</ele>
        <time>2016-08-28T14:21:12Z</time>
      </trkpt>
      <trkpt lat="46.20504" lon="-1.43153">
        <ele>1.1</ele>
        <time>2016-08-28T14:21:13Z</time>
      </trkpt>
      <trkpt lat="46.20502" lon="-1.43158">
        <ele>0.62</ele>
        <time>2016-08-28T14:21:14Z</time>
      </trkpt>
      <trkpt lat="46.20498" lon="-1.43169">
        <ele>1.58</ele>
        <time>2016-08-28T14:21:16Z</time>
      </trkpt>
      <trkpt lat="46.20496" lon="-1.43175">
        <ele>1.1</ele>
        <time>2016-08-28T14:21:17Z</time>
      </trkpt>
      <trkpt lat="46.20496" lon="-1.43181">
        <ele>1.58</ele>
        <time>2016-08-28T14:21:18Z</time>
      </trkpt>
      <trkpt lat="46.20496" lon="-1.43187">
        <ele>1.1</ele>
        <time>2016-08-28T14:21:19Z</time>
      </trkpt>
      <trkpt lat="46.20496" lon="-1.43194">
        <ele>1.1</ele>
        <time>2016-08-28T14:21:20Z</time>
      </trkpt>
      <trkpt lat="46.20496" lon="-1.432">
        <ele>1.58</ele>
        <time>2016-08-28T14:21:21Z</time>
      </trkpt>
      <trkpt lat="46.20498" lon="-1.43206">
        <ele>1.1</ele>
        <time>2016-08-28T14:21:22Z</time>
      </trkpt>
      <trkpt lat="46.205" lon="-1.43211">
        <ele>1.1</ele>
        <time>2016-08-28T14:21:23Z</time>
      </trkpt>
      <trkpt lat="46.20506" lon="-1.43228">
        <ele>1.58</ele>
        <time>2016-08-28T14:21:26Z</time>
      </trkpt>
      <trkpt lat="46.20537" lon="-1.43297">
        <ele>1.58</ele>
        <time>2016-08-28T14:21:39Z</time>
      </trkpt>
      <trkpt lat="46.20568" lon="-1.43381">
        <ele>1.1</ele>
        <time>2016-08-28T14:21:53Z</time>
      </trkpt>
      <trkpt lat="46.20597" lon="-1.43462">
        <ele>2.06</ele>
        <time>2016-08-28T14:22:06Z</time>
      </trkpt>
      <trkpt lat="46.20625" lon="-1.43542">
        <ele>2.06</ele>
        <time>2016-08-28T14:22:19Z</time>
      </trkpt>
      <trkpt lat="46.20665" lon="-1.43628">
        <ele>1.58</ele>
        <time>2016-08-28T14:22:34Z</time>
      </trkpt>
      <trkpt lat="46.20693" lon="-1.43703">
        <ele>1.58</ele>
        <time>2016-08-28T14:22:46Z</time>
      </trkpt>
      <trkpt lat="46.20734" lon="-1.43796">
        <ele>1.1</ele>
        <time>2016-08-28T14:23:02Z</time>
      </trkpt>
      <trkpt lat="46.20747" lon="-1.43824">
        <ele>4.46</ele>
        <time>2016-08-28T14:23:07Z</time>
      </trkpt>
      <trkpt lat="46.20749" lon="-1.4383">
        <ele>0.62</ele>
        <time>2016-08-28T14:23:08Z</time>
      </trkpt>
      <trkpt lat="46.20783" lon="-1.43908">
        <ele>1.58</ele>
        <time>2016-08-28T14:23:21Z</time>
      </trkpt>
      <trkpt lat="46.20796" lon="-1.43938">
        <ele>2.06</ele>
        <time>2016-08-28T14:23:26Z</time>
      </trkpt>
      <trkpt lat="46.20828" lon="-1.44015">
        <ele>2.06</ele>
        <time>2016-08-28T14:23:39Z</time>
      </trkpt>
      <trkpt lat="46.20846" lon="-1.44069">
        <ele>0.14</ele>
        <time>2016-08-28T14:23:48Z</time>
      </trkpt>
      <trkpt lat="46.20848" lon="-1.44075">
        <ele>0.14</ele>
        <time>2016-08-28T14:23:49Z</time>
      </trkpt>
      <trkpt lat="46.2085" lon="-1.4408">
        <ele>1.1</ele>
        <time>2016-08-28T14:23:50Z</time>
      </trkpt>
      <trkpt lat="46.20854" lon="-1.44084">
        <ele>0.62</ele>
        <time>2016-08-28T14:23:51Z</time>
      </trkpt>
      <trkpt lat="46.20858" lon="-1.44086">
        <ele>1.1</ele>
        <time>2016-08-28T14:23:52Z</time>
      </trkpt>
      <trkpt lat="46.20863" lon="-1.44086">
        <ele>0.62</ele>
        <time>2016-08-28T14:23:53Z</time>
      </trkpt>
      <trkpt lat="46.20867" lon="-1.44085">
        <ele>1.58</ele>
        <time>2016-08-28T14:23:54Z</time>
      </trkpt>
      <trkpt lat="46.20872" lon="-1.44084">
        <ele>1.1</ele>
        <time>2016-08-28T14:23:55Z</time>
      </trkpt>
      <trkpt lat="46.20876" lon="-1.44084">
        <ele>1.1</ele>
        <time>2016-08-28T14:23:56Z</time>
      </trkpt>
      <trkpt lat="46.20885" lon="-1.44084">
        <ele>1.58</ele>
        <time>2016-08-28T14:23:58Z</time>
      </trkpt>
      <trkpt lat="46.20889" lon="-1.44086">
        <ele>1.58</ele>
        <time>2016-08-28T14:23:59Z</time>
      </trkpt>
      <trkpt lat="46.20893" lon="-1.4409">
        <ele>1.1</ele>
        <time>2016-08-28T14:24:00Z</time>
      </trkpt>
      <trkpt lat="46.20896" lon="-1.44095">
        <ele>1.1</ele>
        <time>2016-08-28T14:24:01Z</time>
      </trkpt>
      <trkpt lat="46.20899" lon="-1.441">
        <ele>1.1</ele>
        <time>2016-08-28T14:24:02Z</time>
      </trkpt>
      <trkpt lat="46.20901" lon="-1.44106">
        <ele>1.1</ele>
        <time>2016-08-28T14:24:03Z</time>
      </trkpt>
      <trkpt lat="46.20904" lon="-1.4411">
        <ele>1.58</ele>
        <time>2016-08-28T14:24:04Z</time>
      </trkpt>
      <trkpt lat="46.20908" lon="-1.44113">
        <ele>1.1</ele>
        <time>2016-08-28T14:24:05Z</time>
      </trkpt>
      <trkpt lat="46.20913" lon="-1.44113">
        <ele>0.62</ele>
        <time>2016-08-28T14:24:06Z</time>
      </trkpt>
      <trkpt lat="46.20917" lon="-1.44111">
        <ele>1.1</ele>
        <time>2016-08-28T14:24:07Z</time>
      </trkpt>
      <trkpt lat="46.2092" lon="-1.44107">
        <ele>1.58</ele>
        <time>2016-08-28T14:24:08Z</time>
      </trkpt>
      <trkpt lat="46.20923" lon="-1.44102">
        <ele>2.06</ele>
        <time>2016-08-28T14:24:09Z</time>
      </trkpt>
      <trkpt lat="46.20926" lon="-1.44097">
        <ele>1.58</ele>
        <time>2016-08-28T14:24:10Z</time>
      </trkpt>
      <trkpt lat="46.20929" lon="-1.44091">
        <ele>2.06</ele>
        <time>2016-08-28T14:24:11Z</time>
      </trkpt>
      <trkpt lat="46.20953" lon="-1.44036">
        <ele>1.58</ele>
        <time>2016-08-28T14:24:20Z</time>
      </trkpt>
      <trkpt lat="46.20954" lon="-1.44029">
        <ele>1.58</ele>
        <time>2016-08-28T14:24:21Z</time>
      </trkpt>
      <trkpt lat="46.20953" lon="-1.44022">
        <ele>2.06</ele>
        <time>2016-08-28T14:24:22Z</time>
      </trkpt>
      <trkpt lat="46.20951" lon="-1.44016">
        <ele>2.06</ele>
        <time>2016-08-28T14:24:23Z</time>
      </trkpt>
      <trkpt lat="46.20948" lon="-1.4401">
        <ele>2.06</ele>
        <time>2016-08-28T14:24:24Z</time>
      </trkpt>
      <trkpt lat="46.20946" lon="-1.44003">
        <ele>1.58</ele>
        <time>2016-08-28T14:24:25Z</time>
      </trkpt>
      <trkpt lat="46.20945" lon="-1.43996">
        <ele>1.58</ele>
        <time>2016-08-28T14:24:26Z</time>
      </trkpt>
      <trkpt lat="46.20946" lon="-1.43989">
        <ele>1.58</ele>
        <time>2016-08-28T14:24:27Z</time>
      </trkpt>
      <trkpt lat="46.20949" lon="-1.43983">
        <ele>1.58</ele>
        <time>2016-08-28T14:24:28Z</time>
      </trkpt>
      <trkpt lat="46.20952" lon="-1.43978">
        <ele>1.1</ele>
        <time>2016-08-28T14:24:29Z</time>
      </trkpt>
      <trkpt lat="46.20956" lon="-1.43974">
        <ele>1.1</ele>
        <time>2016-08-28T14:24:30Z</time>
      </trkpt>
      <trkpt lat="46.2096" lon="-1.4397">
        <ele>1.58</ele>
        <time>2016-08-28T14:24:31Z</time>
      </trkpt>
      <trkpt lat="46.21004" lon="-1.43939">
        <ele>2.06</ele>
        <time>2016-08-28T14:24:41Z</time>
      </trkpt>
      <trkpt lat="46.21008" lon="-1.43938">
        <ele>1.58</ele>
        <time>2016-08-28T14:24:42Z</time>
      </trkpt>
      <trkpt lat="46.21013" lon="-1.43939">
        <ele>1.58</ele>
        <time>2016-08-28T14:24:43Z</time>
      </trkpt>
      <trkpt lat="46.21017" lon="-1.4394">
        <ele>1.58</ele>
        <time>2016-08-28T14:24:44Z</time>
      </trkpt>
      <trkpt lat="46.21022" lon="-1.43942">
        <ele>1.58</ele>
        <time>2016-08-28T14:24:45Z</time>
      </trkpt>
      <trkpt lat="46.21046" lon="-1.43952">
        <ele>1.58</ele>
        <time>2016-08-28T14:24:50Z</time>
      </trkpt>
      <trkpt lat="46.21094" lon="-1.43961">
        <ele>0.62</ele>
        <time>2016-08-28T14:25:00Z</time>
      </trkpt>
      <trkpt lat="46.21099" lon="-1.4396">
        <ele>1.58</ele>
        <time>2016-08-28T14:25:01Z</time>
      </trkpt>
      <trkpt lat="46.21103" lon="-1.43959">
        <ele>1.58</ele>
        <time>2016-08-28T14:25:02Z</time>
      </trkpt>
      <trkpt lat="46.21107" lon="-1.43956">
        <ele>3.02</ele>
        <time>2016-08-28T14:25:03Z</time>
      </trkpt>
      <trkpt lat="46.21111" lon="-1.43953">
        <ele>3.02</ele>
        <time>2016-08-28T14:25:04Z</time>
      </trkpt>
      <trkpt lat="46.21114" lon="-1.4395">
        <ele>3.02</ele>
        <time>2016-08-28T14:25:05Z</time>
      </trkpt>
      <trkpt lat="46.21117" lon="-1.43946">
        <ele>3.02</ele>
        <time>2016-08-28T14:25:06Z</time>
      </trkpt>
      <trkpt lat="46.2112" lon="-1.43943">
        <ele>3.02</ele>
        <time>2016-08-28T14:25:07Z</time>
      </trkpt>
      <trkpt lat="46.21163" lon="-1.43896">
        <ele>3.02</ele>
        <time>2016-08-28T14:25:19Z</time>
      </trkpt>
      <trkpt lat="46.21208" lon="-1.4384">
        <ele>2.06</ele>
        <time>2016-08-28T14:25:32Z</time>
      </trkpt>
      <trkpt lat="46.21256" lon="-1.43786">
        <ele>1.58</ele>
        <time>2016-08-28T14:25:45Z</time>
      </trkpt>
      <trkpt lat="46.21294" lon="-1.43745">
        <ele>1.58</ele>
        <time>2016-08-28T14:25:55Z</time>
      </trkpt>
      <trkpt lat="46.21298" lon="-1.43744">
        <ele>1.58</ele>
        <time>2016-08-28T14:25:56Z</time>
      </trkpt>
      <trkpt lat="46.21302" lon="-1.43746">
        <ele>1.58</ele>
        <time>2016-08-28T14:25:57Z</time>
      </trkpt>
      <trkpt lat="46.21306" lon="-1.4375">
        <ele>2.06</ele>
        <time>2016-08-28T14:25:58Z</time>
      </trkpt>
      <trkpt lat="46.21309" lon="-1.43755">
        <ele>1.58</ele>
        <time>2016-08-28T14:25:59Z</time>
      </trkpt>
      <trkpt lat="46.21311" lon="-1.4376">
        <ele>1.58</ele>
        <time>2016-08-28T14:26:00Z</time>
      </trkpt>
      <trkpt lat="46.21335" lon="-1.4381">
        <ele>1.58</ele>
        <time>2016-08-28T14:26:09Z</time>
      </trkpt>
      <trkpt lat="46.21337" lon="-1.43815">
        <ele>1.1</ele>
        <time>2016-08-28T14:26:10Z</time>
      </trkpt>
      <trkpt lat="46.2134" lon="-1.43828">
        <ele>0.62</ele>
        <time>2016-08-28T14:26:12Z</time>
      </trkpt>
      <trkpt lat="46.2134" lon="-1.43834">
        <ele>1.58</ele>
        <time>2016-08-28T14:26:13Z</time>
      </trkpt>
      <trkpt lat="46.21341" lon="-1.4384">
        <ele>0.62</ele>
        <time>2016-08-28T14:26:14Z</time>
      </trkpt>
      <trkpt lat="46.2134" lon="-1.43853">
        <ele>1.58</ele>
        <time>2016-08-28T14:26:16Z</time>
      </trkpt>
      <trkpt lat="46.21336" lon="-1.43891">
        <ele>1.1</ele>
        <time>2016-08-28T14:26:22Z</time>
      </trkpt>
      <trkpt lat="46.21309" lon="-1.43985">
        <ele>2.06</ele>
        <time>2016-08-28T14:26:38Z</time>
      </trkpt>
      <trkpt lat="46.21306" lon="-1.43997">
        <ele>1.58</ele>
        <time>2016-08-28T14:26:40Z</time>
      </trkpt>
      <trkpt lat="46.21304" lon="-1.44008">
        <ele>2.06</ele>
        <time>2016-08-28T14:26:42Z</time>
      </trkpt>
      <trkpt lat="46.21298" lon="-1.44069">
        <ele>0.62</ele>
        <time>2016-08-28T14:26:53Z</time>
      </trkpt>
      <trkpt lat="46.213" lon="-1.44073">
        <ele>1.1</ele>
        <time>2016-08-28T14:26:54Z</time>
      </trkpt>
      <trkpt lat="46.21302" lon="-1.44075">
        <ele>2.06</ele>
        <time>2016-08-28T14:26:55Z</time>
      </trkpt>
      <trkpt lat="46.21319" lon="-1.44076">
        <ele>2.54</ele>
        <time>2016-08-28T14:27:04Z</time>
      </trkpt>
      <trkpt lat="46.21319" lon="-1.44075">
        <ele>2.06</ele>
        <time>2016-08-28T14:27:23Z</time>
      </trkpt>
      <trkpt lat="46.2132" lon="-1.44076">
        <ele>2.54</ele>
        <time>2016-08-28T14:27:49Z</time>
      </trkpt>
      <trkpt lat="46.2132" lon="-1.44076">
        <ele>3.02</ele>
        <time>2016-08-28T14:28:19Z</time>
      </trkpt>
      <trkpt lat="46.2132" lon="-1.44075">
        <ele>2.06</ele>
        <time>2016-08-28T14:28:47Z</time>
      </trkpt>
      <trkpt lat="46.2132" lon="-1.44075">
        <ele>1.58</ele>
        <time>2016-08-28T14:28:53Z</time>
      </trkpt>
      <trkpt lat="46.21321" lon="-1.44075">
        <ele>2.06</ele>
        <time>2016-08-28T14:28:54Z</time>
      </trkpt>
      <trkpt lat="46.21322" lon="-1.44076">
        <ele>1.1</ele>
        <time>2016-08-28T14:28:55Z</time>
      </trkpt>
      <trkpt lat="46.21354" lon="-1.44082">
        <ele>1.1</ele>
        <time>2016-08-28T14:29:05Z</time>
      </trkpt>
      <trkpt lat="46.21419" lon="-1.44092">
        <ele>1.58</ele>
        <time>2016-08-28T14:29:21Z</time>
      </trkpt>
      <trkpt lat="46.21421" lon="-1.44091">
        <ele>2.06</ele>
        <time>2016-08-28T14:29:22Z</time>
      </trkpt>
      <trkpt lat="46.21421" lon="-1.44088">
        <ele>2.54</ele>
        <time>2016-08-28T14:29:23Z</time>
      </trkpt>
      <trkpt lat="46.21421" lon="-1.44084">
        <ele>1.58</ele>
        <time>2016-08-28T14:29:24Z</time>
      </trkpt>
      <trkpt lat="46.21421" lon="-1.4408">
        <ele>1.58</ele>
        <time>2016-08-28T14:29:25Z</time>
      </trkpt>
      <trkpt lat="46.21421" lon="-1.44075">
        <ele>2.06</ele>
        <time>2016-08-28T14:29:26Z</time>
      </trkpt>
      <trkpt lat="46.21421" lon="-1.4407">
        <ele>1.58</ele>
        <time>2016-08-28T14:29:27Z</time>
      </trkpt>
      <trkpt lat="46.21421" lon="-1.44018">
        <ele>1.58</ele>
        <time>2016-08-28T14:29:37Z</time>
      </trkpt>
      <trkpt lat="46.21421" lon="-1.43963">
        <ele>1.58</ele>
        <time>2016-08-28T14:29:46Z</time>
      </trkpt>
      <trkpt lat="46.21423" lon="-1.43951">
        <ele>1.58</ele>
        <time>2016-08-28T14:29:48Z</time>
      </trkpt>
      <trkpt lat="46.21425" lon="-1.43946">
        <ele>1.58</ele>
        <time>2016-08-28T14:29:49Z</time>
      </trkpt>
      <trkpt lat="46.21445" lon="-1.43907">
        <ele>2.06</ele>
        <time>2016-08-28T14:29:59Z</time>
      </trkpt>
      <trkpt lat="46.21446" lon="-1.43906">
        <ele>2.06</ele>
        <time>2016-08-28T14:30:00Z</time>
      </trkpt>
      <trkpt lat="46.21449" lon="-1.43906">
        <ele>2.54</ele>
        <time>2016-08-28T14:30:11Z</time>
      </trkpt>
      <trkpt lat="46.21449" lon="-1.43906">
        <ele>3.02</ele>
        <time>2016-08-28T14:30:25Z</time>
      </trkpt>
      <trkpt lat="46.21449" lon="-1.43906">
        <ele>4.94</ele>
        <time>2016-08-28T14:30:45Z</time>
      </trkpt>
      <trkpt lat="46.21449" lon="-1.43906">
        <ele>4.94</ele>
        <time>2016-08-28T14:30:46Z</time>
      </trkpt>
      <trkpt lat="46.2145" lon="-1.43906">
        <ele>3.02</ele>
        <time>2016-08-28T14:31:09Z</time>
      </trkpt>
      <trkpt lat="46.2145" lon="-1.43907">
        <ele>3.5</ele>
        <time>2016-08-28T14:31:32Z</time>
      </trkpt>
      <trkpt lat="46.21467" lon="-1.43903">
        <ele>2.06</ele>
        <time>2016-08-28T14:31:39Z</time>
      </trkpt>
      <trkpt lat="46.21487" lon="-1.43904">
        <ele>1.58</ele>
        <time>2016-08-28T14:31:47Z</time>
      </trkpt>
      <trkpt lat="46.21531" lon="-1.43927">
        <ele>1.58</ele>
        <time>2016-08-28T14:31:58Z</time>
      </trkpt>
      <trkpt lat="46.21573" lon="-1.43956">
        <ele>1.58</ele>
        <time>2016-08-28T14:32:10Z</time>
      </trkpt>
      <trkpt lat="46.2158" lon="-1.43959">
        <ele>1.1</ele>
        <time>2016-08-28T14:32:16Z</time>
      </trkpt>
      <trkpt lat="46.21581" lon="-1.43959">
        <ele>1.1</ele>
        <time>2016-08-28T14:32:17Z</time>
      </trkpt>
      <trkpt lat="46.21583" lon="-1.43957">
        <ele>1.1</ele>
        <time>2016-08-28T14:32:18Z</time>
      </trkpt>
      <trkpt lat="46.21584" lon="-1.43954">
        <ele>1.1</ele>
        <time>2016-08-28T14:32:19Z</time>
      </trkpt>
      <trkpt lat="46.21586" lon="-1.43951">
        <ele>1.1</ele>
        <time>2016-08-28T14:32:20Z</time>
      </trkpt>
      <trkpt lat="46.21587" lon="-1.43948">
        <ele>1.1</ele>
        <time>2016-08-28T14:32:21Z</time>
      </trkpt>
      <trkpt lat="46.21596" lon="-1.43936">
        <ele>0.62</ele>
        <time>2016-08-28T14:32:30Z</time>
      </trkpt>
      <trkpt lat="46.21597" lon="-1.43936">
        <ele>0.62</ele>
        <time>2016-08-28T14:32:37Z</time>
      </trkpt>
      <trkpt lat="46.21598" lon="-1.43935">
        <ele>0.62</ele>
        <time>2016-08-28T14:32:38Z</time>
      </trkpt>
      <trkpt lat="46.21601" lon="-1.43934">
        <ele>0.62</ele>
        <time>2016-08-28T14:32:41Z</time>
      </trkpt>
      <trkpt lat="46.21603" lon="-1.43935">
        <ele>0.62</ele>
        <time>2016-08-28T14:32:42Z</time>
      </trkpt>
      <trkpt lat="46.21605" lon="-1.43936">
        <ele>0.62</ele>
        <time>2016-08-28T14:32:43Z</time>
      </trkpt>
      <trkpt lat="46.21607" lon="-1.43938">
        <ele>0.62</ele>
        <time>2016-08-28T14:32:44Z</time>
      </trkpt>
      <trkpt lat="46.21609" lon="-1.43938">
        <ele>0.62</ele>
        <time>2016-08-28T14:32:45Z</time>
      </trkpt>
      <trkpt lat="46.21611" lon="-1.43939">
        <ele>0.14</ele>
        <time>2016-08-28T14:32:46Z</time>
      </trkpt>
      <trkpt lat="46.21613" lon="-1.43939">
        <ele>0.62</ele>
        <time>2016-08-28T14:32:47Z</time>
      </trkpt>
      <trkpt lat="46.21615" lon="-1.43939">
        <ele>0.62</ele>
        <time>2016-08-28T14:32:48Z</time>
      </trkpt>
      <trkpt lat="46.21622" lon="-1.43942">
        <ele>0.14</ele>
        <time>2016-08-28T14:32:51Z</time>
      </trkpt>
      <trkpt lat="46.21623" lon="-1.43944">
        <ele>1.1</ele>
        <time>2016-08-28T14:32:52Z</time>
      </trkpt>
      <trkpt lat="46.21624" lon="-1.43946">
        <ele>0.62</ele>
        <time>2016-08-28T14:32:53Z</time>
      </trkpt>
      <trkpt lat="46.21627" lon="-1.43952">
        <ele>0.62</ele>
        <time>2016-08-28T14:32:56Z</time>
      </trkpt>
      <trkpt lat="46.21629" lon="-1.43952">
        <ele>1.1</ele>
        <time>2016-08-28T14:32:57Z</time>
      </trkpt>
      <trkpt lat="46.2163" lon="-1.4395">
        <ele>1.58</ele>
        <time>2016-08-28T14:32:58Z</time>
      </trkpt>
      <trkpt lat="46.21631" lon="-1.43948">
        <ele>1.58</ele>
        <time>2016-08-28T14:32:59Z</time>
      </trkpt>
      <trkpt lat="46.21632" lon="-1.43947">
        <ele>2.06</ele>
        <time>2016-08-28T14:33:00Z</time>
      </trkpt>
      <trkpt lat="46.21634" lon="-1.43945">
        <ele>2.06</ele>
        <time>2016-08-28T14:33:01Z</time>
      </trkpt>
      <trkpt lat="46.21635" lon="-1.43943">
        <ele>2.06</ele>
        <time>2016-08-28T14:33:02Z</time>
      </trkpt>
      <trkpt lat="46.21635" lon="-1.4394">
        <ele>2.06</ele>
        <time>2016-08-28T14:33:03Z</time>
      </trkpt>
      <trkpt lat="46.21635" lon="-1.43938">
        <ele>2.06</ele>
        <time>2016-08-28T14:33:04Z</time>
      </trkpt>
      <trkpt lat="46.21634" lon="-1.43935">
        <ele>2.06</ele>
        <time>2016-08-28T14:33:05Z</time>
      </trkpt>
      <trkpt lat="46.21633" lon="-1.43932">
        <ele>2.54</ele>
        <time>2016-08-28T14:33:06Z</time>
      </trkpt>
      <trkpt lat="46.21618" lon="-1.43896">
        <ele>2.06</ele>
        <time>2016-08-28T14:33:17Z</time>
      </trkpt>
      <trkpt lat="46.21617" lon="-1.43875">
        <ele>2.06</ele>
        <time>2016-08-28T14:33:26Z</time>
      </trkpt>
      <trkpt lat="46.21617" lon="-1.43876">
        <ele>2.54</ele>
        <time>2016-08-28T14:33:44Z</time>
      </trkpt>
      <trkpt lat="46.21617" lon="-1.43876">
        <ele>2.06</ele>
        <time>2016-08-28T14:34:19Z</time>
      </trkpt>
      <trkpt lat="46.21617" lon="-1.43876">
        <ele>2.06</ele>
        <time>2016-08-28T14:34:45Z</time>
      </trkpt>
      <trkpt lat="46.21617" lon="-1.43875">
        <ele>2.54</ele>
        <time>2016-08-28T14:35:15Z</time>
      </trkpt>
      <trkpt lat="46.21617" lon="-1.43875">
        <ele>2.54</ele>
        <time>2016-08-28T14:35:48Z</time>
      </trkpt>
      <trkpt lat="46.21617" lon="-1.43874">
        <ele>2.54</ele>
        <time>2016-08-28T14:36:17Z</time>
      </trkpt>
      <trkpt lat="46.21617" lon="-1.43874">
        <ele>13.6</ele>
        <time>2016-08-28T14:36:33Z</time>
      </trkpt>
      <trkpt lat="46.21617" lon="-1.43874">
        <ele>3.02</ele>
        <time>2016-08-28T14:36:34Z</time>
      </trkpt>
      <trkpt lat="46.21617" lon="-1.43874">
        <ele>-3.23</ele>
        <time>2016-08-28T14:36:36Z</time>
      </trkpt>
      <trkpt lat="46.21617" lon="-1.43874">
        <ele>12.63</ele>
        <time>2016-08-28T14:36:37Z</time>
      </trkpt>
      <trkpt lat="46.21617" lon="-1.43874">
        <ele>-7.55</ele>
        <time>2016-08-28T14:36:38Z</time>
      </trkpt>
      <trkpt lat="46.21617" lon="-1.43874">
        <ele>4.46</ele>
        <time>2016-08-28T14:36:39Z</time>
      </trkpt>
      <trkpt lat="46.21617" lon="-1.43874">
        <ele>10.71</ele>
        <time>2016-08-28T14:36:41Z</time>
      </trkpt>
      <trkpt lat="46.21617" lon="-1.43874">
        <ele>-4.67</ele>
        <time>2016-08-28T14:36:42Z</time>
      </trkpt>
      <trkpt lat="46.21617" lon="-1.43874">
        <ele>3.98</ele>
        <time>2016-08-28T14:36:43Z</time>
      </trkpt>
      <trkpt lat="46.21617" lon="-1.43874">
        <ele>0.62</ele>
        <time>2016-08-28T14:36:53Z</time>
      </trkpt>
      <trkpt lat="46.21617" lon="-1.43874">
        <ele>5.91</ele>
        <time>2016-08-28T14:36:54Z</time>
      </trkpt>
      <trkpt lat="46.21617" lon="-1.43874">
        <ele>-1.79</ele>
        <time>2016-08-28T14:36:55Z</time>
      </trkpt>
      <trkpt lat="46.21617" lon="-1.43874">
        <ele>2.54</ele>
        <time>2016-08-28T14:36:56Z</time>
      </trkpt>
      <trkpt lat="46.21617" lon="-1.43875">
        <ele>3.02</ele>
        <time>2016-08-28T14:37:11Z</time>
      </trkpt>
      <trkpt lat="46.21616" lon="-1.43876">
        <ele>1.1</ele>
        <time>2016-08-28T14:37:21Z</time>
      </trkpt>
      <trkpt lat="46.21616" lon="-1.43878">
        <ele>0.62</ele>
        <time>2016-08-28T14:37:22Z</time>
      </trkpt>
      <trkpt lat="46.21617" lon="-1.4388">
        <ele>1.58</ele>
        <time>2016-08-28T14:37:23Z</time>
      </trkpt>
      <trkpt lat="46.21618" lon="-1.43882">
        <ele>1.1</ele>
        <time>2016-08-28T14:37:24Z</time>
      </trkpt>
      <trkpt lat="46.2162" lon="-1.43886">
        <ele>1.1</ele>
        <time>2016-08-28T14:37:26Z</time>
      </trkpt>
      <trkpt lat="46.21621" lon="-1.43887">
        <ele>0.62</ele>
        <time>2016-08-28T14:37:27Z</time>
      </trkpt>
      <trkpt lat="46.21643" lon="-1.43904">
        <ele>1.1</ele>
        <time>2016-08-28T14:37:37Z</time>
      </trkpt>
      <trkpt lat="46.21658" lon="-1.43895">
        <ele>1.1</ele>
        <time>2016-08-28T14:37:43Z</time>
      </trkpt>
      <trkpt lat="46.21657" lon="-1.43891">
        <ele>1.58</ele>
        <time>2016-08-28T14:37:44Z</time>
      </trkpt>
      <trkpt lat="46.21649" lon="-1.43842">
        <ele>1.58</ele>
        <time>2016-08-28T14:37:56Z</time>
      </trkpt>
      <trkpt lat="46.21651" lon="-1.43839">
        <ele>2.06</ele>
        <time>2016-08-28T14:37:57Z</time>
      </trkpt>
      <trkpt lat="46.21653" lon="-1.43836">
        <ele>1.58</ele>
        <time>2016-08-28T14:37:58Z</time>
      </trkpt>
      <trkpt lat="46.21656" lon="-1.43834">
        <ele>2.06</ele>
        <time>2016-08-28T14:37:59Z</time>
      </trkpt>
      <trkpt lat="46.21659" lon="-1.43832">
        <ele>1.58</ele>
        <time>2016-08-28T14:38:00Z</time>
      </trkpt>
      <trkpt lat="46.21662" lon="-1.4383">
        <ele>1.58</ele>
        <time>2016-08-28T14:38:01Z</time>
      </trkpt>
      <trkpt lat="46.21665" lon="-1.43827">
        <ele>1.58</ele>
        <time>2016-08-28T14:38:02Z</time>
      </trkpt>
      <trkpt lat="46.21668" lon="-1.43826">
        <ele>1.58</ele>
        <time>2016-08-28T14:38:03Z</time>
      </trkpt>
      <trkpt lat="46.21671" lon="-1.43824">
        <ele>1.58</ele>
        <time>2016-08-28T14:38:04Z</time>
      </trkpt>
      <trkpt lat="46.2171" lon="-1.43796">
        <ele>2.06</ele>
        <time>2016-08-28T14:38:16Z</time>
      </trkpt>
      <trkpt lat="46.2172" lon="-1.43778">
        <ele>1.58</ele>
        <time>2016-08-28T14:38:20Z</time>
      </trkpt>
      <trkpt lat="46.2172" lon="-1.43772">
        <ele>1.58</ele>
        <time>2016-08-28T14:38:21Z</time>
      </trkpt>
      <trkpt lat="46.2172" lon="-1.43766">
        <ele>1.58</ele>
        <time>2016-08-28T14:38:22Z</time>
      </trkpt>
      <trkpt lat="46.21718" lon="-1.43761">
        <ele>1.58</ele>
        <time>2016-08-28T14:38:23Z</time>
      </trkpt>
      <trkpt lat="46.21717" lon="-1.43755">
        <ele>2.06</ele>
        <time>2016-08-28T14:38:24Z</time>
      </trkpt>
      <trkpt lat="46.21715" lon="-1.4375">
        <ele>1.1</ele>
        <time>2016-08-28T14:38:25Z</time>
      </trkpt>
      <trkpt lat="46.217" lon="-1.43706">
        <ele>1.1</ele>
        <time>2016-08-28T14:38:33Z</time>
      </trkpt>
      <trkpt lat="46.21678" lon="-1.43638">
        <ele>1.1</ele>
        <time>2016-08-28T14:38:45Z</time>
      </trkpt>
      <trkpt lat="46.21661" lon="-1.43587">
        <ele>1.58</ele>
        <time>2016-08-28T14:38:54Z</time>
      </trkpt>
      <trkpt lat="46.2166" lon="-1.43581">
        <ele>1.1</ele>
        <time>2016-08-28T14:38:55Z</time>
      </trkpt>
      <trkpt lat="46.21658" lon="-1.43575">
        <ele>1.58</ele>
        <time>2016-08-28T14:38:56Z</time>
      </trkpt>
      <trkpt lat="46.21632" lon="-1.43486">
        <ele>1.58</ele>
        <time>2016-08-28T14:39:11Z</time>
      </trkpt>
      <trkpt lat="46.2163" lon="-1.4348">
        <ele>1.1</ele>
        <time>2016-08-28T14:39:12Z</time>
      </trkpt>
      <trkpt lat="46.21612" lon="-1.43421">
        <ele>1.1</ele>
        <time>2016-08-28T14:39:22Z</time>
      </trkpt>
      <trkpt lat="46.21612" lon="-1.43415">
        <ele>1.1</ele>
        <time>2016-08-28T14:39:23Z</time>
      </trkpt>
      <trkpt lat="46.21613" lon="-1.43409">
        <ele>1.1</ele>
        <time>2016-08-28T14:39:24Z</time>
      </trkpt>
      <trkpt lat="46.21614" lon="-1.43403">
        <ele>1.1</ele>
        <time>2016-08-28T14:39:25Z</time>
      </trkpt>
      <trkpt lat="46.21617" lon="-1.43397">
        <ele>1.1</ele>
        <time>2016-08-28T14:39:26Z</time>
      </trkpt>
      <trkpt lat="46.2165" lon="-1.43316">
        <ele>1.1</ele>
        <time>2016-08-28T14:39:40Z</time>
      </trkpt>
      <trkpt lat="46.21687" lon="-1.43218">
        <ele>1.58</ele>
        <time>2016-08-28T14:39:57Z</time>
      </trkpt>
      <trkpt lat="46.217" lon="-1.43195">
        <ele>1.58</ele>
        <time>2016-08-28T14:40:02Z</time>
      </trkpt>
      <trkpt lat="46.21703" lon="-1.43191">
        <ele>1.58</ele>
        <time>2016-08-28T14:40:03Z</time>
      </trkpt>
      <trkpt lat="46.21713" lon="-1.43183">
        <ele>1.58</ele>
        <time>2016-08-28T14:40:06Z</time>
      </trkpt>
      <trkpt lat="46.21771" lon="-1.43143">
        <ele>1.58</ele>
        <time>2016-08-28T14:40:21Z</time>
      </trkpt>
      <trkpt lat="46.21818" lon="-1.43104">
        <ele>1.1</ele>
        <time>2016-08-28T14:40:33Z</time>
      </trkpt>
      <trkpt lat="46.21864" lon="-1.43053">
        <ele>1.58</ele>
        <time>2016-08-28T14:40:46Z</time>
      </trkpt>
      <trkpt lat="46.21897" lon="-1.43014">
        <ele>1.58</ele>
        <time>2016-08-28T14:40:58Z</time>
      </trkpt>
      <trkpt lat="46.21899" lon="-1.43015">
        <ele>1.1</ele>
        <time>2016-08-28T14:40:59Z</time>
      </trkpt>
      <trkpt lat="46.21902" lon="-1.43019">
        <ele>0.62</ele>
        <time>2016-08-28T14:41:00Z</time>
      </trkpt>
      <trkpt lat="46.21905" lon="-1.43023">
        <ele>-1.3</ele>
        <time>2016-08-28T14:41:01Z</time>
      </trkpt>
      <trkpt lat="46.21908" lon="-1.43029">
        <ele>-1.3</ele>
        <time>2016-08-28T14:41:02Z</time>
      </trkpt>
      <trkpt lat="46.21942" lon="-1.43085">
        <ele>-0.34</ele>
        <time>2016-08-28T14:41:15Z</time>
      </trkpt>
      <trkpt lat="46.21969" lon="-1.43121">
        <ele>-0.34</ele>
        <time>2016-08-28T14:41:24Z</time>
      </trkpt>
      <trkpt lat="46.21972" lon="-1.43124">
        <ele>-0.82</ele>
        <time>2016-08-28T14:41:25Z</time>
      </trkpt>
      <trkpt lat="46.22002" lon="-1.43176">
        <ele>0.14</ele>
        <time>2016-08-28T14:41:37Z</time>
      </trkpt>
      <trkpt lat="46.22016" lon="-1.43234">
        <ele>0.14</ele>
        <time>2016-08-28T14:41:48Z</time>
      </trkpt>
      <trkpt lat="46.22027" lon="-1.43274">
        <ele>-0.34</ele>
        <time>2016-08-28T14:41:55Z</time>
      </trkpt>
      <trkpt lat="46.22029" lon="-1.43279">
        <ele>-0.34</ele>
        <time>2016-08-28T14:41:56Z</time>
      </trkpt>
      <trkpt lat="46.22039" lon="-1.43298">
        <ele>-0.82</ele>
        <time>2016-08-28T14:42:00Z</time>
      </trkpt>
      <trkpt lat="46.22043" lon="-1.43302">
        <ele>0.14</ele>
        <time>2016-08-28T14:42:01Z</time>
      </trkpt>
      <trkpt lat="46.2208" lon="-1.43333">
        <ele>1.58</ele>
        <time>2016-08-28T14:42:12Z</time>
      </trkpt>
      <trkpt lat="46.22118" lon="-1.43324">
        <ele>1.1</ele>
        <time>2016-08-28T14:42:22Z</time>
      </trkpt>
      <trkpt lat="46.22122" lon="-1.43323">
        <ele>0.62</ele>
        <time>2016-08-28T14:42:23Z</time>
      </trkpt>
      <trkpt lat="46.22126" lon="-1.43322">
        <ele>0.14</ele>
        <time>2016-08-28T14:42:24Z</time>
      </trkpt>
      <trkpt lat="46.22163" lon="-1.43313">
        <ele>0.62</ele>
        <time>2016-08-28T14:42:36Z</time>
      </trkpt>
      <trkpt lat="46.22201" lon="-1.43303">
        <ele>1.1</ele>
        <time>2016-08-28T14:42:46Z</time>
      </trkpt>
      <trkpt lat="46.22235" lon="-1.43294">
        <ele>1.1</ele>
        <time>2016-08-28T14:42:54Z</time>
      </trkpt>
      <trkpt lat="46.22297" lon="-1.43277">
        <ele>2.06</ele>
        <time>2016-08-28T14:43:08Z</time>
      </trkpt>
      <trkpt lat="46.22338" lon="-1.43268">
        <ele>1.58</ele>
        <time>2016-08-28T14:43:17Z</time>
      </trkpt>
      <trkpt lat="46.22342" lon="-1.43269">
        <ele>1.58</ele>
        <time>2016-08-28T14:43:18Z</time>
      </trkpt>
      <trkpt lat="46.22346" lon="-1.43271">
        <ele>2.06</ele>
        <time>2016-08-28T14:43:19Z</time>
      </trkpt>
      <trkpt lat="46.22349" lon="-1.43271">
        <ele>2.06</ele>
        <time>2016-08-28T14:43:20Z</time>
      </trkpt>
      <trkpt lat="46.22353" lon="-1.43271">
        <ele>2.06</ele>
        <time>2016-08-28T14:43:21Z</time>
      </trkpt>
      <trkpt lat="46.22357" lon="-1.43269">
        <ele>2.54</ele>
        <time>2016-08-28T14:43:22Z</time>
      </trkpt>
      <trkpt lat="46.22373" lon="-1.43264">
        <ele>2.54</ele>
        <time>2016-08-28T14:43:26Z</time>
      </trkpt>
      <trkpt lat="46.22377" lon="-1.43261">
        <ele>2.54</ele>
        <time>2016-08-28T14:43:27Z</time>
      </trkpt>
      <trkpt lat="46.2238" lon="-1.43258">
        <ele>3.02</ele>
        <time>2016-08-28T14:43:28Z</time>
      </trkpt>
      <trkpt lat="46.22384" lon="-1.43256">
        <ele>2.54</ele>
        <time>2016-08-28T14:43:29Z</time>
      </trkpt>
      <trkpt lat="46.22388" lon="-1.43255">
        <ele>3.02</ele>
        <time>2016-08-28T14:43:30Z</time>
      </trkpt>
      <trkpt lat="46.22392" lon="-1.43254">
        <ele>3.02</ele>
        <time>2016-08-28T14:43:31Z</time>
      </trkpt>
      <trkpt lat="46.22415" lon="-1.43248">
        <ele>3.02</ele>
        <time>2016-08-28T14:43:37Z</time>
      </trkpt>
      <trkpt lat="46.22417" lon="-1.43245">
        <ele>2.54</ele>
        <time>2016-08-28T14:43:38Z</time>
      </trkpt>
      <trkpt lat="46.22417" lon="-1.43241">
        <ele>2.54</ele>
        <time>2016-08-28T14:43:39Z</time>
      </trkpt>
      <trkpt lat="46.22417" lon="-1.43237">
        <ele>2.54</ele>
        <time>2016-08-28T14:43:40Z</time>
      </trkpt>
      <trkpt lat="46.22416" lon="-1.43232">
        <ele>3.5</ele>
        <time>2016-08-28T14:43:41Z</time>
      </trkpt>
      <trkpt lat="46.22414" lon="-1.43227">
        <ele>3.02</ele>
        <time>2016-08-28T14:43:42Z</time>
      </trkpt>
      <trkpt lat="46.22398" lon="-1.43145">
        <ele>3.02</ele>
        <time>2016-08-28T14:43:56Z</time>
      </trkpt>
      <trkpt lat="46.22378" lon="-1.43064">
        <ele>2.54</ele>
        <time>2016-08-28T14:44:09Z</time>
      </trkpt>
      <trkpt lat="46.2236" lon="-1.42981">
        <ele>2.54</ele>
        <time>2016-08-28T14:44:22Z</time>
      </trkpt>
      <trkpt lat="46.22349" lon="-1.42933">
        <ele>3.02</ele>
        <time>2016-08-28T14:44:31Z</time>
      </trkpt>
      <trkpt lat="46.22341" lon="-1.42913">
        <ele>3.02</ele>
        <time>2016-08-28T14:44:35Z</time>
      </trkpt>
      <trkpt lat="46.22339" lon="-1.42908">
        <ele>3.02</ele>
        <time>2016-08-28T14:44:36Z</time>
      </trkpt>
      <trkpt lat="46.22337" lon="-1.42903">
        <ele>2.54</ele>
        <time>2016-08-28T14:44:37Z</time>
      </trkpt>
      <trkpt lat="46.22329" lon="-1.42878">
        <ele>2.54</ele>
        <time>2016-08-28T14:44:41Z</time>
      </trkpt>
      <trkpt lat="46.22304" lon="-1.42797">
        <ele>1.1</ele>
        <time>2016-08-28T14:44:54Z</time>
      </trkpt>
      <trkpt lat="46.22303" lon="-1.42791">
        <ele>2.06</ele>
        <time>2016-08-28T14:44:55Z</time>
      </trkpt>
      <trkpt lat="46.22299" lon="-1.42772">
        <ele>1.58</ele>
        <time>2016-08-28T14:44:58Z</time>
      </trkpt>
      <trkpt lat="46.22297" lon="-1.42766">
        <ele>1.58</ele>
        <time>2016-08-28T14:44:59Z</time>
      </trkpt>
      <trkpt lat="46.22271" lon="-1.4268">
        <ele>0.62</ele>
        <time>2016-08-28T14:45:13Z</time>
      </trkpt>
      <trkpt lat="46.22256" lon="-1.42619">
        <ele>2.06</ele>
        <time>2016-08-28T14:45:24Z</time>
      </trkpt>
      <trkpt lat="46.22257" lon="-1.42616">
        <ele>2.06</ele>
        <time>2016-08-28T14:45:25Z</time>
      </trkpt>
      <trkpt lat="46.2226" lon="-1.42614">
        <ele>2.06</ele>
        <time>2016-08-28T14:45:26Z</time>
      </trkpt>
      <trkpt lat="46.22263" lon="-1.42614">
        <ele>1.58</ele>
        <time>2016-08-28T14:45:27Z</time>
      </trkpt>
      <trkpt lat="46.22266" lon="-1.42613">
        <ele>2.06</ele>
        <time>2016-08-28T14:45:28Z</time>
      </trkpt>
      <trkpt lat="46.2227" lon="-1.42613">
        <ele>2.06</ele>
        <time>2016-08-28T14:45:29Z</time>
      </trkpt>
      <trkpt lat="46.22274" lon="-1.42611">
        <ele>2.06</ele>
        <time>2016-08-28T14:45:30Z</time>
      </trkpt>
      <trkpt lat="46.22315" lon="-1.4259">
        <ele>1.58</ele>
        <time>2016-08-28T14:45:40Z</time>
      </trkpt>
      <trkpt lat="46.22318" lon="-1.42586">
        <ele>1.58</ele>
        <time>2016-08-28T14:45:41Z</time>
      </trkpt>
      <trkpt lat="46.22321" lon="-1.42581">
        <ele>2.06</ele>
        <time>2016-08-28T14:45:42Z</time>
      </trkpt>
      <trkpt lat="46.2233" lon="-1.42567">
        <ele>2.06</ele>
        <time>2016-08-28T14:45:45Z</time>
      </trkpt>
      <trkpt lat="46.22333" lon="-1.42563">
        <ele>2.06</ele>
        <time>2016-08-28T14:45:46Z</time>
      </trkpt>
      <trkpt lat="46.22337" lon="-1.4256">
        <ele>2.06</ele>
        <time>2016-08-28T14:45:47Z</time>
      </trkpt>
      <trkpt lat="46.22341" lon="-1.42557">
        <ele>2.06</ele>
        <time>2016-08-28T14:45:48Z</time>
      </trkpt>
      <trkpt lat="46.22345" lon="-1.42554">
        <ele>1.58</ele>
        <time>2016-08-28T14:45:49Z</time>
      </trkpt>
      <trkpt lat="46.22385" lon="-1.42535">
        <ele>2.54</ele>
        <time>2016-08-28T14:46:00Z</time>
      </trkpt>
      <trkpt lat="46.22385" lon="-1.42532">
        <ele>2.06</ele>
        <time>2016-08-28T14:46:01Z</time>
      </trkpt>
      <trkpt lat="46.22384" lon="-1.42527">
        <ele>2.06</ele>
        <time>2016-08-28T14:46:02Z</time>
      </trkpt>
      <trkpt lat="46.22377" lon="-1.42494">
        <ele>-0.34</ele>
        <time>2016-08-28T14:46:07Z</time>
      </trkpt>
      <trkpt lat="46.22376" lon="-1.42487">
        <ele>-0.82</ele>
        <time>2016-08-28T14:46:08Z</time>
      </trkpt>
      <trkpt lat="46.22373" lon="-1.42479">
        <ele>-0.34</ele>
        <time>2016-08-28T14:46:09Z</time>
      </trkpt>
      <trkpt lat="46.22371" lon="-1.42472">
        <ele>-0.34</ele>
        <time>2016-08-28T14:46:10Z</time>
      </trkpt>
      <trkpt lat="46.22368" lon="-1.42466">
        <ele>-0.34</ele>
        <time>2016-08-28T14:46:11Z</time>
      </trkpt>
      <trkpt lat="46.22364" lon="-1.4246">
        <ele>0.14</ele>
        <time>2016-08-28T14:46:12Z</time>
      </trkpt>
      <trkpt lat="46.22361" lon="-1.42455">
        <ele>-0.34</ele>
        <time>2016-08-28T14:46:13Z</time>
      </trkpt>
      <trkpt lat="46.22336" lon="-1.42412">
        <ele>-0.34</ele>
        <time>2016-08-28T14:46:21Z</time>
      </trkpt>
      <trkpt lat="46.22334" lon="-1.42406">
        <ele>-0.34</ele>
        <time>2016-08-28T14:46:22Z</time>
      </trkpt>
      <trkpt lat="46.22332" lon="-1.424">
        <ele>-0.34</ele>
        <time>2016-08-28T14:46:23Z</time>
      </trkpt>
      <trkpt lat="46.22332" lon="-1.42393">
        <ele>0.14</ele>
        <time>2016-08-28T14:46:24Z</time>
      </trkpt>
      <trkpt lat="46.22332" lon="-1.42387">
        <ele>0.14</ele>
        <time>2016-08-28T14:46:25Z</time>
      </trkpt>
      <trkpt lat="46.22334" lon="-1.42382">
        <ele>0.62</ele>
        <time>2016-08-28T14:46:26Z</time>
      </trkpt>
      <trkpt lat="46.22337" lon="-1.42377">
        <ele>1.1</ele>
        <time>2016-08-28T14:46:27Z</time>
      </trkpt>
      <trkpt lat="46.2234" lon="-1.42373">
        <ele>1.1</ele>
        <time>2016-08-28T14:46:28Z</time>
      </trkpt>
      <trkpt lat="46.22344" lon="-1.4237">
        <ele>1.1</ele>
        <time>2016-08-28T14:46:29Z</time>
      </trkpt>
      <trkpt lat="46.22371" lon="-1.42336">
        <ele>0.62</ele>
        <time>2016-08-28T14:46:37Z</time>
      </trkpt>
      <trkpt lat="46.22373" lon="-1.4233">
        <ele>0.62</ele>
        <time>2016-08-28T14:46:38Z</time>
      </trkpt>
      <trkpt lat="46.22375" lon="-1.42324">
        <ele>0.14</ele>
        <time>2016-08-28T14:46:39Z</time>
      </trkpt>
      <trkpt lat="46.22375" lon="-1.42317">
        <ele>0.62</ele>
        <time>2016-08-28T14:46:40Z</time>
      </trkpt>
      <trkpt lat="46.22374" lon="-1.42311">
        <ele>0.14</ele>
        <time>2016-08-28T14:46:41Z</time>
      </trkpt>
      <trkpt lat="46.22373" lon="-1.42304">
        <ele>0.62</ele>
        <time>2016-08-28T14:46:42Z</time>
      </trkpt>
      <trkpt lat="46.22371" lon="-1.42298">
        <ele>0.14</ele>
        <time>2016-08-28T14:46:43Z</time>
      </trkpt>
      <trkpt lat="46.22354" lon="-1.42216">
        <ele>1.1</ele>
        <time>2016-08-28T14:46:57Z</time>
      </trkpt>
      <trkpt lat="46.22343" lon="-1.42163">
        <ele>1.1</ele>
        <time>2016-08-28T14:47:08Z</time>
      </trkpt>
      <trkpt lat="46.22328" lon="-1.4212">
        <ele>0.62</ele>
        <time>2016-08-28T14:47:17Z</time>
      </trkpt>
      <trkpt lat="46.22323" lon="-1.42101">
        <ele>0.14</ele>
        <time>2016-08-28T14:47:20Z</time>
      </trkpt>
      <trkpt lat="46.2232" lon="-1.42089">
        <ele>0.62</ele>
        <time>2016-08-28T14:47:22Z</time>
      </trkpt>
      <trkpt lat="46.22319" lon="-1.42083">
        <ele>0.14</ele>
        <time>2016-08-28T14:47:23Z</time>
      </trkpt>
      <trkpt lat="46.22319" lon="-1.42076">
        <ele>0.62</ele>
        <time>2016-08-28T14:47:24Z</time>
      </trkpt>
      <trkpt lat="46.22319" lon="-1.42071">
        <ele>0.14</ele>
        <time>2016-08-28T14:47:25Z</time>
      </trkpt>
      <trkpt lat="46.22319" lon="-1.42065">
        <ele>0.62</ele>
        <time>2016-08-28T14:47:26Z</time>
      </trkpt>
      <trkpt lat="46.22319" lon="-1.42059">
        <ele>0.14</ele>
        <time>2016-08-28T14:47:27Z</time>
      </trkpt>
      <trkpt lat="46.22321" lon="-1.41999">
        <ele>0.14</ele>
        <time>2016-08-28T14:47:36Z</time>
      </trkpt>
      <trkpt lat="46.22323" lon="-1.41993">
        <ele>0.62</ele>
        <time>2016-08-28T14:47:37Z</time>
      </trkpt>
      <trkpt lat="46.22326" lon="-1.41988">
        <ele>0.14</ele>
        <time>2016-08-28T14:47:38Z</time>
      </trkpt>
      <trkpt lat="46.22366" lon="-1.41916">
        <ele>0.62</ele>
        <time>2016-08-28T14:47:52Z</time>
      </trkpt>
      <trkpt lat="46.22386" lon="-1.41878">
        <ele>1.1</ele>
        <time>2016-08-28T14:48:01Z</time>
      </trkpt>
      <trkpt lat="46.22379" lon="-1.41855">
        <ele>1.1</ele>
        <time>2016-08-28T14:48:09Z</time>
      </trkpt>
      <trkpt lat="46.22369" lon="-1.41833">
        <ele>1.58</ele>
        <time>2016-08-28T14:48:17Z</time>
      </trkpt>
      <trkpt lat="46.2237" lon="-1.41831">
        <ele>1.1</ele>
        <time>2016-08-28T14:48:25Z</time>
      </trkpt>
      <trkpt lat="46.2237" lon="-1.4183">
        <ele>1.58</ele>
        <time>2016-08-28T14:48:46Z</time>
      </trkpt>
      <trkpt lat="46.2237" lon="-1.41831">
        <ele>2.06</ele>
        <time>2016-08-28T14:49:16Z</time>
      </trkpt>
      <trkpt lat="46.2237" lon="-1.41831">
        <ele>2.06</ele>
        <time>2016-08-28T14:49:48Z</time>
      </trkpt>
      <trkpt lat="46.2237" lon="-1.4183">
        <ele>1.58</ele>
        <time>2016-08-28T14:50:21Z</time>
      </trkpt>
      <trkpt lat="46.2237" lon="-1.4183">
        <ele>1.58</ele>
        <time>2016-08-28T14:50:56Z</time>
      </trkpt>
      <trkpt lat="46.2237" lon="-1.4183">
        <ele>8.31</ele>
        <time>2016-08-28T14:51:20Z</time>
      </trkpt>
      <trkpt lat="46.2237" lon="-1.4183">
        <ele>1.58</ele>
        <time>2016-08-28T14:51:21Z</time>
      </trkpt>
      <trkpt lat="46.2237" lon="-1.4183">
        <ele>9.75</ele>
        <time>2016-08-28T14:51:26Z</time>
      </trkpt>
      <trkpt lat="46.2237" lon="-1.4183">
        <ele>-4.67</ele>
        <time>2016-08-28T14:51:27Z</time>
      </trkpt>
      <trkpt lat="46.2237" lon="-1.4183">
        <ele>2.54</ele>
        <time>2016-08-28T14:51:28Z</time>
      </trkpt>
      <trkpt lat="46.2237" lon="-1.4183">
        <ele>0.62</ele>
        <time>2016-08-28T14:51:54Z</time>
      </trkpt>
      <trkpt lat="46.2237" lon="-1.4183">
        <ele>1.1</ele>
        <time>2016-08-28T14:52:29Z</time>
      </trkpt>
      <trkpt lat="46.2237" lon="-1.4183">
        <ele>1.58</ele>
        <time>2016-08-28T14:52:56Z</time>
      </trkpt>
      <trkpt lat="46.2237" lon="-1.4183">
        <ele>1.58</ele>
        <time>2016-08-28T14:53:30Z</time>
      </trkpt>
      <trkpt lat="46.2237" lon="-1.41831">
        <ele>1.1</ele>
        <time>2016-08-28T14:53:53Z</time>
      </trkpt>
      <trkpt lat="46.2237" lon="-1.41832">
        <ele>0.62</ele>
        <time>2016-08-28T14:54:07Z</time>
      </trkpt>
      <trkpt lat="46.2237" lon="-1.41835">
        <ele>0.62</ele>
        <time>2016-08-28T14:54:11Z</time>
      </trkpt>
      <trkpt lat="46.22371" lon="-1.41838">
        <ele>0.62</ele>
        <time>2016-08-28T14:54:12Z</time>
      </trkpt>
      <trkpt lat="46.22371" lon="-1.4184">
        <ele>0.14</ele>
        <time>2016-08-28T14:54:13Z</time>
      </trkpt>
      <trkpt lat="46.22372" lon="-1.41842">
        <ele>1.1</ele>
        <time>2016-08-28T14:54:14Z</time>
      </trkpt>
      <trkpt lat="46.22373" lon="-1.41844">
        <ele>0.14</ele>
        <time>2016-08-28T14:54:15Z</time>
      </trkpt>
      <trkpt lat="46.22373" lon="-1.41846">
        <ele>1.1</ele>
        <time>2016-08-28T14:54:16Z</time>
      </trkpt>
      <trkpt lat="46.22374" lon="-1.41849">
        <ele>0.62</ele>
        <time>2016-08-28T14:54:17Z</time>
      </trkpt>
      <trkpt lat="46.22376" lon="-1.41851">
        <ele>1.1</ele>
        <time>2016-08-28T14:54:18Z</time>
      </trkpt>
      <trkpt lat="46.22398" lon="-1.41869">
        <ele>0.14</ele>
        <time>2016-08-28T14:54:28Z</time>
      </trkpt>
      <trkpt lat="46.22453" lon="-1.41865">
        <ele>0.62</ele>
        <time>2016-08-28T14:54:42Z</time>
      </trkpt>
      <trkpt lat="46.22524" lon="-1.41855">
        <ele>0.14</ele>
        <time>2016-08-28T14:54:58Z</time>
      </trkpt>
      <trkpt lat="46.22533" lon="-1.41852">
        <ele>0.62</ele>
        <time>2016-08-28T14:55:00Z</time>
      </trkpt>
      <trkpt lat="46.22537" lon="-1.41851">
        <ele>0.62</ele>
        <time>2016-08-28T14:55:01Z</time>
      </trkpt>
      <trkpt lat="46.22588" lon="-1.4183">
        <ele>-0.34</ele>
        <time>2016-08-28T14:55:14Z</time>
      </trkpt>
      <trkpt lat="46.22648" lon="-1.418">
        <ele>0.62</ele>
        <time>2016-08-28T14:55:29Z</time>
      </trkpt>
      <trkpt lat="46.22658" lon="-1.41789">
        <ele>0.62</ele>
        <time>2016-08-28T14:55:33Z</time>
      </trkpt>
      <trkpt lat="46.22657" lon="-1.41784">
        <ele>0.62</ele>
        <time>2016-08-28T14:55:34Z</time>
      </trkpt>
      <trkpt lat="46.22655" lon="-1.4178">
        <ele>0.62</ele>
        <time>2016-08-28T14:55:35Z</time>
      </trkpt>
      <trkpt lat="46.22623" lon="-1.41732">
        <ele>0.62</ele>
        <time>2016-08-28T14:55:47Z</time>
      </trkpt>
      <trkpt lat="46.22607" lon="-1.41688">
        <ele>0.62</ele>
        <time>2016-08-28T14:55:56Z</time>
      </trkpt>
      <trkpt lat="46.22609" lon="-1.41684">
        <ele>0.62</ele>
        <time>2016-08-28T14:55:57Z</time>
      </trkpt>
      <trkpt lat="46.22611" lon="-1.41681">
        <ele>0.14</ele>
        <time>2016-08-28T14:55:58Z</time>
      </trkpt>
      <trkpt lat="46.22614" lon="-1.41679">
        <ele>0.62</ele>
        <time>2016-08-28T14:55:59Z</time>
      </trkpt>
      <trkpt lat="46.22617" lon="-1.41676">
        <ele>0.62</ele>
        <time>2016-08-28T14:56:00Z</time>
      </trkpt>
      <trkpt lat="46.2262" lon="-1.41673">
        <ele>0.62</ele>
        <time>2016-08-28T14:56:01Z</time>
      </trkpt>
      <trkpt lat="46.22647" lon="-1.4165">
        <ele>1.1</ele>
        <time>2016-08-28T14:56:09Z</time>
      </trkpt>
      <trkpt lat="46.22703" lon="-1.41595">
        <ele>1.1</ele>
        <time>2016-08-28T14:56:26Z</time>
      </trkpt>
      <trkpt lat="46.22711" lon="-1.41586">
        <ele>6.39</ele>
        <time>2016-08-28T14:56:29Z</time>
      </trkpt>
      <trkpt lat="46.22715" lon="-1.41583">
        <ele>1.1</ele>
        <time>2016-08-28T14:56:30Z</time>
      </trkpt>
      <trkpt lat="46.22728" lon="-1.41564">
        <ele>1.58</ele>
        <time>2016-08-28T14:56:38Z</time>
      </trkpt>
      <trkpt lat="46.22729" lon="-1.41559">
        <ele>-4.19</ele>
        <time>2016-08-28T14:56:41Z</time>
      </trkpt>
      <trkpt lat="46.2273" lon="-1.41558">
        <ele>1.58</ele>
        <time>2016-08-28T14:56:42Z</time>
      </trkpt>
      <trkpt lat="46.22733" lon="-1.41556">
        <ele>1.58</ele>
        <time>2016-08-28T14:56:48Z</time>
      </trkpt>
      <trkpt lat="46.22734" lon="-1.41556">
        <ele>1.1</ele>
        <time>2016-08-28T14:56:49Z</time>
      </trkpt>
      <trkpt lat="46.22738" lon="-1.41556">
        <ele>1.1</ele>
        <time>2016-08-28T14:56:58Z</time>
      </trkpt>
      <trkpt lat="46.22743" lon="-1.41555">
        <ele>0.62</ele>
        <time>2016-08-28T14:57:06Z</time>
      </trkpt>
      <trkpt lat="46.22744" lon="-1.41555">
        <ele>0.62</ele>
        <time>2016-08-28T14:57:07Z</time>
      </trkpt>
      <trkpt lat="46.22746" lon="-1.41555">
        <ele>0.62</ele>
        <time>2016-08-28T14:57:08Z</time>
      </trkpt>
      <trkpt lat="46.22747" lon="-1.41556">
        <ele>0.62</ele>
        <time>2016-08-28T14:57:09Z</time>
      </trkpt>
      <trkpt lat="46.2275" lon="-1.41556">
        <ele>0.62</ele>
        <time>2016-08-28T14:57:11Z</time>
      </trkpt>
      <trkpt lat="46.22751" lon="-1.41556">
        <ele>0.62</ele>
        <time>2016-08-28T14:57:12Z</time>
      </trkpt>
      <trkpt lat="46.22753" lon="-1.41556">
        <ele>0.62</ele>
        <time>2016-08-28T14:57:13Z</time>
      </trkpt>
      <trkpt lat="46.22754" lon="-1.41556">
        <ele>0.62</ele>
        <time>2016-08-28T14:57:14Z</time>
      </trkpt>
      <trkpt lat="46.22755" lon="-1.41555">
        <ele>0.62</ele>
        <time>2016-08-28T14:57:15Z</time>
      </trkpt>
      <trkpt lat="46.22756" lon="-1.41554">
        <ele>1.1</ele>
        <time>2016-08-28T14:57:16Z</time>
      </trkpt>
      <trkpt lat="46.22758" lon="-1.41553">
        <ele>1.1</ele>
        <time>2016-08-28T14:57:17Z</time>
      </trkpt>
      <trkpt lat="46.22769" lon="-1.41542">
        <ele>0.14</ele>
        <time>2016-08-28T14:57:28Z</time>
      </trkpt>
      <trkpt lat="46.22776" lon="-1.41536">
        <ele>0.14</ele>
        <time>2016-08-28T14:57:35Z</time>
      </trkpt>
      <trkpt lat="46.22777" lon="-1.41534">
        <ele>0.14</ele>
        <time>2016-08-28T14:57:36Z</time>
      </trkpt>
      <trkpt lat="46.22791" lon="-1.4152">
        <ele>1.1</ele>
        <time>2016-08-28T14:57:49Z</time>
      </trkpt>
      <trkpt lat="46.22799" lon="-1.41512">
        <ele>0.62</ele>
        <time>2016-08-28T14:57:59Z</time>
      </trkpt>
      <trkpt lat="46.22812" lon="-1.41502">
        <ele>0.14</ele>
        <time>2016-08-28T14:58:06Z</time>
      </trkpt>
      <trkpt lat="46.22813" lon="-1.41498">
        <ele>0.62</ele>
        <time>2016-08-28T14:58:07Z</time>
      </trkpt>
      <trkpt lat="46.22814" lon="-1.41495">
        <ele>0.14</ele>
        <time>2016-08-28T14:58:08Z</time>
      </trkpt>
      <trkpt lat="46.22814" lon="-1.4149">
        <ele>0.14</ele>
        <time>2016-08-28T14:58:09Z</time>
      </trkpt>
      <trkpt lat="46.22813" lon="-1.41486">
        <ele>0.62</ele>
        <time>2016-08-28T14:58:10Z</time>
      </trkpt>
      <trkpt lat="46.22812" lon="-1.41482">
        <ele>0.62</ele>
        <time>2016-08-28T14:58:11Z</time>
      </trkpt>
      <trkpt lat="46.22811" lon="-1.41478">
        <ele>0.14</ele>
        <time>2016-08-28T14:58:12Z</time>
      </trkpt>
      <trkpt lat="46.22816" lon="-1.41454">
        <ele>0.14</ele>
        <time>2016-08-28T14:58:19Z</time>
      </trkpt>
      <trkpt lat="46.22824" lon="-1.41435">
        <ele>0.62</ele>
        <time>2016-08-28T14:58:26Z</time>
      </trkpt>
      <trkpt lat="46.22825" lon="-1.41432">
        <ele>0.14</ele>
        <time>2016-08-28T14:58:27Z</time>
      </trkpt>
      <trkpt lat="46.22826" lon="-1.41429">
        <ele>0.62</ele>
        <time>2016-08-28T14:58:28Z</time>
      </trkpt>
      <trkpt lat="46.22828" lon="-1.41426">
        <ele>0.14</ele>
        <time>2016-08-28T14:58:29Z</time>
      </trkpt>
      <trkpt lat="46.2283" lon="-1.41423">
        <ele>0.14</ele>
        <time>2016-08-28T14:58:30Z</time>
      </trkpt>
      <trkpt lat="46.22838" lon="-1.41404">
        <ele>1.1</ele>
        <time>2016-08-28T14:58:37Z</time>
      </trkpt>
      <trkpt lat="46.2284" lon="-1.41389">
        <ele>0.62</ele>
        <time>2016-08-28T14:58:42Z</time>
      </trkpt>
      <trkpt lat="46.2284" lon="-1.41387">
        <ele>0.14</ele>
        <time>2016-08-28T14:58:43Z</time>
      </trkpt>
      <trkpt lat="46.2284" lon="-1.41385">
        <ele>0.62</ele>
        <time>2016-08-28T14:58:44Z</time>
      </trkpt>
      <trkpt lat="46.22839" lon="-1.41382">
        <ele>0.62</ele>
        <time>2016-08-28T14:58:45Z</time>
      </trkpt>
      <trkpt lat="46.2284" lon="-1.4138">
        <ele>0.62</ele>
        <time>2016-08-28T14:58:46Z</time>
      </trkpt>
      <trkpt lat="46.2284" lon="-1.41378">
        <ele>0.62</ele>
        <time>2016-08-28T14:58:47Z</time>
      </trkpt>
      <trkpt lat="46.2284" lon="-1.41374">
        <ele>0.62</ele>
        <time>2016-08-28T14:58:49Z</time>
      </trkpt>
      <trkpt lat="46.2284" lon="-1.41371">
        <ele>0.62</ele>
        <time>2016-08-28T14:58:50Z</time>
      </trkpt>
      <trkpt lat="46.2284" lon="-1.41369">
        <ele>1.1</ele>
        <time>2016-08-28T14:58:51Z</time>
      </trkpt>
      <trkpt lat="46.22841" lon="-1.41367">
        <ele>1.1</ele>
        <time>2016-08-28T14:58:52Z</time>
      </trkpt>
      <trkpt lat="46.22841" lon="-1.41365">
        <ele>1.1</ele>
        <time>2016-08-28T14:58:53Z</time>
      </trkpt>
      <trkpt lat="46.22843" lon="-1.41356">
        <ele>0.62</ele>
        <time>2016-08-28T14:58:56Z</time>
      </trkpt>
      <trkpt lat="46.22845" lon="-1.41352">
        <ele>0.62</ele>
        <time>2016-08-28T14:58:57Z</time>
      </trkpt>
      <trkpt lat="46.22847" lon="-1.41349">
        <ele>-0.34</ele>
        <time>2016-08-28T14:58:58Z</time>
      </trkpt>
      <trkpt lat="46.22851" lon="-1.41345">
        <ele>-0.34</ele>
        <time>2016-08-28T14:58:59Z</time>
      </trkpt>
      <trkpt lat="46.22853" lon="-1.41342">
        <ele>0.14</ele>
        <time>2016-08-28T14:59:00Z</time>
      </trkpt>
      <trkpt lat="46.22855" lon="-1.41338">
        <ele>0.14</ele>
        <time>2016-08-28T14:59:01Z</time>
      </trkpt>
      <trkpt lat="46.22855" lon="-1.41336">
        <ele>0.14</ele>
        <time>2016-08-28T14:59:02Z</time>
      </trkpt>
      <trkpt lat="46.22858" lon="-1.41332">
        <ele>0.14</ele>
        <time>2016-08-28T14:59:05Z</time>
      </trkpt>
      <trkpt lat="46.2286" lon="-1.41331">
        <ele>0.62</ele>
        <time>2016-08-28T14:59:06Z</time>
      </trkpt>
      <trkpt lat="46.22861" lon="-1.41332">
        <ele>-9</ele>
        <time>2016-08-28T14:59:11Z</time>
      </trkpt>
      <trkpt lat="46.22862" lon="-1.41331">
        <ele>2.06</ele>
        <time>2016-08-28T14:59:12Z</time>
      </trkpt>
      <trkpt lat="46.22862" lon="-1.41328">
        <ele>0.62</ele>
        <time>2016-08-28T14:59:18Z</time>
      </trkpt>
      <trkpt lat="46.22853" lon="-1.41299">
        <ele>0.62</ele>
        <time>2016-08-28T14:59:26Z</time>
      </trkpt>
      <trkpt lat="46.22835" lon="-1.41248">
        <ele>1.1</ele>
        <time>2016-08-28T14:59:37Z</time>
      </trkpt>
      <trkpt lat="46.22822" lon="-1.41231">
        <ele>0.62</ele>
        <time>2016-08-28T14:59:44Z</time>
      </trkpt>
      <trkpt lat="46.22819" lon="-1.41233">
        <ele>0.62</ele>
        <time>2016-08-28T14:59:45Z</time>
      </trkpt>
      <trkpt lat="46.22817" lon="-1.41237">
        <ele>0.62</ele>
        <time>2016-08-28T14:59:46Z</time>
      </trkpt>
      <trkpt lat="46.22801" lon="-1.41267">
        <ele>0.62</ele>
        <time>2016-08-28T14:59:53Z</time>
      </trkpt>
      <trkpt lat="46.22797" lon="-1.41271">
        <ele>0.62</ele>
        <time>2016-08-28T14:59:54Z</time>
      </trkpt>
      <trkpt lat="46.22794" lon="-1.41274">
        <ele>0.14</ele>
        <time>2016-08-28T14:59:55Z</time>
      </trkpt>
      <trkpt lat="46.2279" lon="-1.41276">
        <ele>0.14</ele>
        <time>2016-08-28T14:59:56Z</time>
      </trkpt>
      <trkpt lat="46.22785" lon="-1.41278">
        <ele>-0.34</ele>
        <time>2016-08-28T14:59:57Z</time>
      </trkpt>
      <trkpt lat="46.22736" lon="-1.41282">
        <ele>0.62</ele>
        <time>2016-08-28T15:00:09Z</time>
      </trkpt>
      <trkpt lat="46.22731" lon="-1.4128">
        <ele>0.62</ele>
        <time>2016-08-28T15:00:10Z</time>
      </trkpt>
      <trkpt lat="46.22698" lon="-1.41259">
        <ele>-2.75</ele>
        <time>2016-08-28T15:00:19Z</time>
      </trkpt>
      <trkpt lat="46.22695" lon="-1.41256">
        <ele>2.54</ele>
        <time>2016-08-28T15:00:20Z</time>
      </trkpt>
      <trkpt lat="46.22686" lon="-1.41246">
        <ele>1.1</ele>
        <time>2016-08-28T15:00:23Z</time>
      </trkpt>
      <trkpt lat="46.22664" lon="-1.41214">
        <ele>1.1</ele>
        <time>2016-08-28T15:00:33Z</time>
      </trkpt>
      <trkpt lat="46.22665" lon="-1.41211">
        <ele>1.1</ele>
        <time>2016-08-28T15:00:34Z</time>
      </trkpt>
      <trkpt lat="46.22666" lon="-1.41208">
        <ele>1.1</ele>
        <time>2016-08-28T15:00:35Z</time>
      </trkpt>
      <trkpt lat="46.22667" lon="-1.41204">
        <ele>1.1</ele>
        <time>2016-08-28T15:00:36Z</time>
      </trkpt>
      <trkpt lat="46.22668" lon="-1.41202">
        <ele>1.1</ele>
        <time>2016-08-28T15:00:37Z</time>
      </trkpt>
      <trkpt lat="46.22668" lon="-1.41199">
        <ele>1.1</ele>
        <time>2016-08-28T15:00:38Z</time>
      </trkpt>
      <trkpt lat="46.22667" lon="-1.41197">
        <ele>1.1</ele>
        <time>2016-08-28T15:00:39Z</time>
      </trkpt>
      <trkpt lat="46.22666" lon="-1.41196">
        <ele>1.1</ele>
        <time>2016-08-28T15:00:40Z</time>
      </trkpt>
      <trkpt lat="46.22667" lon="-1.41194">
        <ele>1.58</ele>
        <time>2016-08-28T15:00:41Z</time>
      </trkpt>
      <trkpt lat="46.22668" lon="-1.41193">
        <ele>1.58</ele>
        <time>2016-08-28T15:00:42Z</time>
      </trkpt>
      <trkpt lat="46.22669" lon="-1.41191">
        <ele>2.06</ele>
        <time>2016-08-28T15:00:43Z</time>
      </trkpt>
      <trkpt lat="46.2267" lon="-1.41189">
        <ele>1.1</ele>
        <time>2016-08-28T15:00:44Z</time>
      </trkpt>
      <trkpt lat="46.2267" lon="-1.41186">
        <ele>1.58</ele>
        <time>2016-08-28T15:00:45Z</time>
      </trkpt>
      <trkpt lat="46.22671" lon="-1.41183">
        <ele>1.58</ele>
        <time>2016-08-28T15:00:46Z</time>
      </trkpt>
      <trkpt lat="46.22672" lon="-1.41181">
        <ele>1.1</ele>
        <time>2016-08-28T15:00:47Z</time>
      </trkpt>
      <trkpt lat="46.22673" lon="-1.41171">
        <ele>1.58</ele>
        <time>2016-08-28T15:00:51Z</time>
      </trkpt>
      <trkpt lat="46.22674" lon="-1.41169">
        <ele>1.58</ele>
        <time>2016-08-28T15:00:52Z</time>
      </trkpt>
      <trkpt lat="46.22676" lon="-1.41167">
        <ele>1.58</ele>
        <time>2016-08-28T15:00:53Z</time>
      </trkpt>
      <trkpt lat="46.22677" lon="-1.41165">
        <ele>1.58</ele>
        <time>2016-08-28T15:00:54Z</time>
      </trkpt>
      <trkpt lat="46.22678" lon="-1.41163">
        <ele>8.31</ele>
        <time>2016-08-28T15:01:00Z</time>
      </trkpt>
      <trkpt lat="46.22678" lon="-1.41163">
        <ele>3.02</ele>
        <time>2016-08-28T15:01:01Z</time>
      </trkpt>
      <trkpt lat="46.22678" lon="-1.41163">
        <ele>-7.55</ele>
        <time>2016-08-28T15:01:02Z</time>
      </trkpt>
      <trkpt lat="46.22678" lon="-1.41164">
        <ele>3.98</ele>
        <time>2016-08-28T15:01:03Z</time>
      </trkpt>
      <trkpt lat="46.22678" lon="-1.41163">
        <ele>1.1</ele>
        <time>2016-08-28T15:01:07Z</time>
      </trkpt>
      <trkpt lat="46.22678" lon="-1.41163">
        <ele>1.58</ele>
        <time>2016-08-28T15:01:20Z</time>
      </trkpt>
      <trkpt lat="46.22678" lon="-1.41163">
        <ele>1.58</ele>
        <time>2016-08-28T15:01:46Z</time>
      </trkpt>
      <trkpt lat="46.22678" lon="-1.41163">
        <ele>1.1</ele>
        <time>2016-08-28T15:02:11Z</time>
      </trkpt>
      <trkpt lat="46.22678" lon="-1.41163">
        <ele>1.1</ele>
        <time>2016-08-28T15:02:33Z</time>
      </trkpt>
      <trkpt lat="46.22678" lon="-1.41163">
        <ele>1.58</ele>
        <time>2016-08-28T15:02:54Z</time>
      </trkpt>
      <trkpt lat="46.22678" lon="-1.41163">
        <ele>1.58</ele>
        <time>2016-08-28T15:03:21Z</time>
      </trkpt>
      <trkpt lat="46.22682" lon="-1.41159">
        <ele>1.1</ele>
        <time>2016-08-28T15:03:35Z</time>
      </trkpt>
      <trkpt lat="46.22693" lon="-1.41146">
        <ele>0.62</ele>
        <time>2016-08-28T15:03:45Z</time>
      </trkpt>
      <trkpt lat="46.22717" lon="-1.41121">
        <ele>1.1</ele>
        <time>2016-08-28T15:03:55Z</time>
      </trkpt>
      <trkpt lat="46.22741" lon="-1.41098">
        <ele>0.62</ele>
        <time>2016-08-28T15:04:05Z</time>
      </trkpt>
      <trkpt lat="46.22754" lon="-1.41091">
        <ele>0.62</ele>
        <time>2016-08-28T15:04:10Z</time>
      </trkpt>
      <trkpt lat="46.22757" lon="-1.41089">
        <ele>0.62</ele>
        <time>2016-08-28T15:04:11Z</time>
      </trkpt>
      <trkpt lat="46.22759" lon="-1.41087">
        <ele>1.1</ele>
        <time>2016-08-28T15:04:12Z</time>
      </trkpt>
      <trkpt lat="46.2279" lon="-1.41075">
        <ele>1.1</ele>
        <time>2016-08-28T15:04:23Z</time>
      </trkpt>
      <trkpt lat="46.22825" lon="-1.41078">
        <ele>2.06</ele>
        <time>2016-08-28T15:04:34Z</time>
      </trkpt>
      <trkpt lat="46.22855" lon="-1.41083">
        <ele>0.62</ele>
        <time>2016-08-28T15:04:44Z</time>
      </trkpt>
      <trkpt lat="46.22858" lon="-1.41086">
        <ele>0.62</ele>
        <time>2016-08-28T15:04:45Z</time>
      </trkpt>
      <trkpt lat="46.22884" lon="-1.41105">
        <ele>-4.19</ele>
        <time>2016-08-28T15:04:55Z</time>
      </trkpt>
      <trkpt lat="46.22884" lon="-1.41105">
        <ele>1.58</ele>
        <time>2016-08-28T15:04:56Z</time>
      </trkpt>
      <trkpt lat="46.22884" lon="-1.41105">
        <ele>-3.23</ele>
        <time>2016-08-28T15:05:01Z</time>
      </trkpt>
      <trkpt lat="46.22884" lon="-1.41105">
        <ele>-1.3</ele>
        <time>2016-08-28T15:05:02Z</time>
      </trkpt>
      <trkpt lat="46.22884" lon="-1.41105">
        <ele>0.14</ele>
        <time>2016-08-28T15:05:04Z</time>
      </trkpt>
      <trkpt lat="46.22884" lon="-1.41105">
        <ele>0.62</ele>
        <time>2016-08-28T15:05:09Z</time>
      </trkpt>
      <trkpt lat="46.22885" lon="-1.41103">
        <ele>0.62</ele>
        <time>2016-08-28T15:05:10Z</time>
      </trkpt>
      <trkpt lat="46.22886" lon="-1.41101">
        <ele>0.62</ele>
        <time>2016-08-28T15:05:11Z</time>
      </trkpt>
      <trkpt lat="46.22887" lon="-1.41099">
        <ele>0.62</ele>
        <time>2016-08-28T15:05:12Z</time>
      </trkpt>
      <trkpt lat="46.22887" lon="-1.41097">
        <ele>1.1</ele>
        <time>2016-08-28T15:05:13Z</time>
      </trkpt>
      <trkpt lat="46.22893" lon="-1.41093">
        <ele>1.58</ele>
        <time>2016-08-28T15:05:18Z</time>
      </trkpt>
      <trkpt lat="46.22894" lon="-1.41093">
        <ele>1.1</ele>
        <time>2016-08-28T15:05:19Z</time>
      </trkpt>
      <trkpt lat="46.22895" lon="-1.41093">
        <ele>0.62</ele>
        <time>2016-08-28T15:05:20Z</time>
      </trkpt>
      <trkpt lat="46.22896" lon="-1.41094">
        <ele>1.1</ele>
        <time>2016-08-28T15:05:21Z</time>
      </trkpt>
      <trkpt lat="46.22898" lon="-1.41096">
        <ele>0.62</ele>
        <time>2016-08-28T15:05:22Z</time>
      </trkpt>
      <trkpt lat="46.22921" lon="-1.41111">
        <ele>1.1</ele>
        <time>2016-08-28T15:05:33Z</time>
      </trkpt>
      <trkpt lat="46.22942" lon="-1.41125">
        <ele>0.62</ele>
        <time>2016-08-28T15:05:43Z</time>
      </trkpt>
      <trkpt lat="46.22954" lon="-1.41154">
        <ele>1.1</ele>
        <time>2016-08-28T15:05:53Z</time>
      </trkpt>
      <trkpt lat="46.22954" lon="-1.41154">
        <ele>0.62</ele>
        <time>2016-08-28T15:06:01Z</time>
      </trkpt>
      <trkpt lat="46.22954" lon="-1.41154">
        <ele>1.58</ele>
        <time>2016-08-28T15:06:12Z</time>
      </trkpt>
      <trkpt lat="46.22954" lon="-1.41154">
        <ele>1.1</ele>
        <time>2016-08-28T15:06:29Z</time>
      </trkpt>
      <trkpt lat="46.22954" lon="-1.41155">
        <ele>2.06</ele>
        <time>2016-08-28T15:06:42Z</time>
      </trkpt>
      <trkpt lat="46.22955" lon="-1.41155">
        <ele>1.58</ele>
        <time>2016-08-28T15:07:08Z</time>
      </trkpt>
      <trkpt lat="46.22956" lon="-1.41157">
        <ele>1.58</ele>
        <time>2016-08-28T15:07:26Z</time>
      </trkpt>
      <trkpt lat="46.22957" lon="-1.41158">
        <ele>1.58</ele>
        <time>2016-08-28T15:07:27Z</time>
      </trkpt>
      <trkpt lat="46.22958" lon="-1.41165">
        <ele>1.1</ele>
        <time>2016-08-28T15:07:34Z</time>
      </trkpt>
      <trkpt lat="46.22963" lon="-1.41189">
        <ele>1.1</ele>
        <time>2016-08-28T15:07:47Z</time>
      </trkpt>
      <trkpt lat="46.22965" lon="-1.41202">
        <ele>1.58</ele>
        <time>2016-08-28T15:07:54Z</time>
      </trkpt>
      <trkpt lat="46.22966" lon="-1.41203">
        <ele>1.1</ele>
        <time>2016-08-28T15:07:55Z</time>
      </trkpt>
      <trkpt lat="46.22967" lon="-1.41205">
        <ele>1.1</ele>
        <time>2016-08-28T15:07:56Z</time>
      </trkpt>
      <trkpt lat="46.22968" lon="-1.41207">
        <ele>1.1</ele>
        <time>2016-08-28T15:07:57Z</time>
      </trkpt>
      <trkpt lat="46.22968" lon="-1.41208">
        <ele>1.1</ele>
        <time>2016-08-28T15:07:58Z</time>
      </trkpt>
      <trkpt lat="46.22969" lon="-1.4121">
        <ele>0.62</ele>
        <time>2016-08-28T15:07:59Z</time>
      </trkpt>
      <trkpt lat="46.22969" lon="-1.41212">
        <ele>1.1</ele>
        <time>2016-08-28T15:08:00Z</time>
      </trkpt>
      <trkpt lat="46.2297" lon="-1.41214">
        <ele>1.1</ele>
        <time>2016-08-28T15:08:04Z</time>
      </trkpt>
      <trkpt lat="46.22975" lon="-1.41221">
        <ele>2.54</ele>
        <time>2016-08-28T15:08:12Z</time>
      </trkpt>
      <trkpt lat="46.22983" lon="-1.41225">
        <ele>2.06</ele>
        <time>2016-08-28T15:08:20Z</time>
      </trkpt>
      <trkpt lat="46.22984" lon="-1.41227">
        <ele>1.58</ele>
        <time>2016-08-28T15:08:21Z</time>
      </trkpt>
      <trkpt lat="46.22985" lon="-1.41228">
        <ele>1.58</ele>
        <time>2016-08-28T15:08:22Z</time>
      </trkpt>
      <trkpt lat="46.22986" lon="-1.4123">
        <ele>2.06</ele>
        <time>2016-08-28T15:08:23Z</time>
      </trkpt>
      <trkpt lat="46.22988" lon="-1.41231">
        <ele>2.06</ele>
        <time>2016-08-28T15:08:24Z</time>
      </trkpt>
      <trkpt lat="46.22992" lon="-1.4124">
        <ele>1.58</ele>
        <time>2016-08-28T15:08:29Z</time>
      </trkpt>
      <trkpt lat="46.22993" lon="-1.41242">
        <ele>1.1</ele>
        <time>2016-08-28T15:08:30Z</time>
      </trkpt>
      <trkpt lat="46.22994" lon="-1.41245">
        <ele>1.58</ele>
        <time>2016-08-28T15:08:31Z</time>
      </trkpt>
      <trkpt lat="46.22995" lon="-1.41247">
        <ele>1.58</ele>
        <time>2016-08-28T15:08:32Z</time>
      </trkpt>
      <trkpt lat="46.22995" lon="-1.4125">
        <ele>1.58</ele>
        <time>2016-08-28T15:08:33Z</time>
      </trkpt>
      <trkpt lat="46.22995" lon="-1.41253">
        <ele>1.1</ele>
        <time>2016-08-28T15:08:34Z</time>
      </trkpt>
      <trkpt lat="46.22995" lon="-1.41256">
        <ele>1.1</ele>
        <time>2016-08-28T15:08:35Z</time>
      </trkpt>
      <trkpt lat="46.22996" lon="-1.41259">
        <ele>1.58</ele>
        <time>2016-08-28T15:08:36Z</time>
      </trkpt>
      <trkpt lat="46.22997" lon="-1.41262">
        <ele>1.58</ele>
        <time>2016-08-28T15:08:37Z</time>
      </trkpt>
      <trkpt lat="46.22998" lon="-1.41265">
        <ele>1.58</ele>
        <time>2016-08-28T15:08:38Z</time>
      </trkpt>
      <trkpt lat="46.23003" lon="-1.41295">
        <ele>1.58</ele>
        <time>2016-08-28T15:08:48Z</time>
      </trkpt>
      <trkpt lat="46.23013" lon="-1.41338">
        <ele>0.62</ele>
        <time>2016-08-28T15:08:59Z</time>
      </trkpt>
      <trkpt lat="46.23024" lon="-1.41391">
        <ele>1.1</ele>
        <time>2016-08-28T15:09:11Z</time>
      </trkpt>
      <trkpt lat="46.23034" lon="-1.41443">
        <ele>1.1</ele>
        <time>2016-08-28T15:09:22Z</time>
      </trkpt>
      <trkpt lat="46.23039" lon="-1.41464">
        <ele>0.62</ele>
        <time>2016-08-28T15:09:27Z</time>
      </trkpt>
      <trkpt lat="46.2304" lon="-1.41467">
        <ele>1.1</ele>
        <time>2016-08-28T15:09:28Z</time>
      </trkpt>
      <trkpt lat="46.23041" lon="-1.4147">
        <ele>1.58</ele>
        <time>2016-08-28T15:09:29Z</time>
      </trkpt>
      <trkpt lat="46.23041" lon="-1.41474">
        <ele>1.1</ele>
        <time>2016-08-28T15:09:30Z</time>
      </trkpt>
      <trkpt lat="46.23042" lon="-1.41477">
        <ele>0.62</ele>
        <time>2016-08-28T15:09:31Z</time>
      </trkpt>
      <trkpt lat="46.23044" lon="-1.41514">
        <ele>0.62</ele>
        <time>2016-08-28T15:09:41Z</time>
      </trkpt>
      <trkpt lat="46.23046" lon="-1.41546">
        <ele>-0.34</ele>
        <time>2016-08-28T15:09:49Z</time>
      </trkpt>
      <trkpt lat="46.23046" lon="-1.416">
        <ele>-0.34</ele>
        <time>2016-08-28T15:10:00Z</time>
      </trkpt>
      <trkpt lat="46.23046" lon="-1.41677">
        <ele>-1.3</ele>
        <time>2016-08-28T15:10:16Z</time>
      </trkpt>
      <trkpt lat="46.23045" lon="-1.417">
        <ele>0.14</ele>
        <time>2016-08-28T15:10:21Z</time>
      </trkpt>
      <trkpt lat="46.23045" lon="-1.41704">
        <ele>5.42</ele>
        <time>2016-08-28T15:10:22Z</time>
      </trkpt>
      <trkpt lat="46.23045" lon="-1.41708">
        <ele>15.04</ele>
        <time>2016-08-28T15:10:23Z</time>
      </trkpt>
      <trkpt lat="46.23045" lon="-1.41711">
        <ele>2.54</ele>
        <time>2016-08-28T15:10:24Z</time>
      </trkpt>
      <trkpt lat="46.23045" lon="-1.41717">
        <ele>-1.79</ele>
        <time>2016-08-28T15:10:26Z</time>
      </trkpt>
      <trkpt lat="46.23044" lon="-1.4172">
        <ele>9.27</ele>
        <time>2016-08-28T15:10:27Z</time>
      </trkpt>
      <trkpt lat="46.23044" lon="-1.41722">
        <ele>0.14</ele>
        <time>2016-08-28T15:10:28Z</time>
      </trkpt>
      <trkpt lat="46.23043" lon="-1.41754">
        <ele>0.62</ele>
        <time>2016-08-28T15:10:36Z</time>
      </trkpt>
      <trkpt lat="46.23043" lon="-1.41773">
        <ele>-0.34</ele>
        <time>2016-08-28T15:10:40Z</time>
      </trkpt>
      <trkpt lat="46.23044" lon="-1.41833">
        <ele>1.1</ele>
        <time>2016-08-28T15:10:52Z</time>
      </trkpt>
      <trkpt lat="46.23048" lon="-1.41896">
        <ele>1.1</ele>
        <time>2016-08-28T15:11:05Z</time>
      </trkpt>
      <trkpt lat="46.23048" lon="-1.41944">
        <ele>2.06</ele>
        <time>2016-08-28T15:11:15Z</time>
      </trkpt>
      <trkpt lat="46.23049" lon="-1.41961">
        <ele>1.58</ele>
        <time>2016-08-28T15:11:18Z</time>
      </trkpt>
      <trkpt lat="46.23049" lon="-1.41967">
        <ele>0.62</ele>
        <time>2016-08-28T15:11:19Z</time>
      </trkpt>
      <trkpt lat="46.23048" lon="-1.42042">
        <ele>2.06</ele>
        <time>2016-08-28T15:11:32Z</time>
      </trkpt>
      <trkpt lat="46.23046" lon="-1.42099">
        <ele>2.54</ele>
        <time>2016-08-28T15:11:42Z</time>
      </trkpt>
      <trkpt lat="46.23046" lon="-1.42111">
        <ele>-7.07</ele>
        <time>2016-08-28T15:11:44Z</time>
      </trkpt>
      <trkpt lat="46.23046" lon="-1.42117">
        <ele>3.02</ele>
        <time>2016-08-28T15:11:45Z</time>
      </trkpt>
      <trkpt lat="46.23041" lon="-1.42185">
        <ele>2.54</ele>
        <time>2016-08-28T15:11:58Z</time>
      </trkpt>
      <trkpt lat="46.23039" lon="-1.42192">
        <ele>2.54</ele>
        <time>2016-08-28T15:12:00Z</time>
      </trkpt>
      <trkpt lat="46.23037" lon="-1.42194">
        <ele>2.54</ele>
        <time>2016-08-28T15:12:01Z</time>
      </trkpt>
      <trkpt lat="46.23035" lon="-1.42197">
        <ele>3.02</ele>
        <time>2016-08-28T15:12:02Z</time>
      </trkpt>
      <trkpt lat="46.23032" lon="-1.422">
        <ele>2.54</ele>
        <time>2016-08-28T15:12:03Z</time>
      </trkpt>
      <trkpt lat="46.23029" lon="-1.42202">
        <ele>3.02</ele>
        <time>2016-08-28T15:12:04Z</time>
      </trkpt>
      <trkpt lat="46.23025" lon="-1.42205">
        <ele>2.54</ele>
        <time>2016-08-28T15:12:05Z</time>
      </trkpt>
      <trkpt lat="46.23022" lon="-1.42208">
        <ele>2.54</ele>
        <time>2016-08-28T15:12:06Z</time>
      </trkpt>
      <trkpt lat="46.23019" lon="-1.42211">
        <ele>2.54</ele>
        <time>2016-08-28T15:12:07Z</time>
      </trkpt>
      <trkpt lat="46.23012" lon="-1.42217">
        <ele>2.54</ele>
        <time>2016-08-28T15:12:09Z</time>
      </trkpt>
      <trkpt lat="46.22998" lon="-1.42229">
        <ele>2.54</ele>
        <time>2016-08-28T15:12:13Z</time>
      </trkpt>
      <trkpt lat="46.22974" lon="-1.42252">
        <ele>2.06</ele>
        <time>2016-08-28T15:12:20Z</time>
      </trkpt>
      <trkpt lat="46.2297" lon="-1.42257">
        <ele>2.54</ele>
        <time>2016-08-28T15:12:21Z</time>
      </trkpt>
      <trkpt lat="46.22968" lon="-1.42261">
        <ele>2.06</ele>
        <time>2016-08-28T15:12:22Z</time>
      </trkpt>
      <trkpt lat="46.22965" lon="-1.42267">
        <ele>2.54</ele>
        <time>2016-08-28T15:12:23Z</time>
      </trkpt>
      <trkpt lat="46.22963" lon="-1.42272">
        <ele>2.54</ele>
        <time>2016-08-28T15:12:24Z</time>
      </trkpt>
      <trkpt lat="46.22957" lon="-1.4229">
        <ele>2.54</ele>
        <time>2016-08-28T15:12:27Z</time>
      </trkpt>
      <trkpt lat="46.22956" lon="-1.42295">
        <ele>2.54</ele>
        <time>2016-08-28T15:12:28Z</time>
      </trkpt>
      <trkpt lat="46.22954" lon="-1.423">
        <ele>2.54</ele>
        <time>2016-08-28T15:12:29Z</time>
      </trkpt>
      <trkpt lat="46.22952" lon="-1.42305">
        <ele>2.06</ele>
        <time>2016-08-28T15:12:30Z</time>
      </trkpt>
      <trkpt lat="46.22949" lon="-1.42311">
        <ele>2.54</ele>
        <time>2016-08-28T15:12:31Z</time>
      </trkpt>
      <trkpt lat="46.22947" lon="-1.42317">
        <ele>2.54</ele>
        <time>2016-08-28T15:12:32Z</time>
      </trkpt>
      <trkpt lat="46.22944" lon="-1.42323">
        <ele>2.54</ele>
        <time>2016-08-28T15:12:33Z</time>
      </trkpt>
      <trkpt lat="46.229" lon="-1.424">
        <ele>2.06</ele>
        <time>2016-08-28T15:12:47Z</time>
      </trkpt>
      <trkpt lat="46.22887" lon="-1.42422">
        <ele>2.06</ele>
        <time>2016-08-28T15:12:51Z</time>
      </trkpt>
      <trkpt lat="46.22845" lon="-1.42493">
        <ele>2.54</ele>
        <time>2016-08-28T15:13:05Z</time>
      </trkpt>
      <trkpt lat="46.22801" lon="-1.42566">
        <ele>3.02</ele>
        <time>2016-08-28T15:13:19Z</time>
      </trkpt>
      <trkpt lat="46.22797" lon="-1.42571">
        <ele>2.54</ele>
        <time>2016-08-28T15:13:20Z</time>
      </trkpt>
      <trkpt lat="46.22793" lon="-1.42574">
        <ele>2.54</ele>
        <time>2016-08-28T15:13:21Z</time>
      </trkpt>
      <trkpt lat="46.22773" lon="-1.42592">
        <ele>2.54</ele>
        <time>2016-08-28T15:13:26Z</time>
      </trkpt>
      <trkpt lat="46.2273" lon="-1.42629">
        <ele>2.54</ele>
        <time>2016-08-28T15:13:37Z</time>
      </trkpt>
      <trkpt lat="46.22678" lon="-1.42677">
        <ele>2.54</ele>
        <time>2016-08-28T15:13:50Z</time>
      </trkpt>
      <trkpt lat="46.22634" lon="-1.42733">
        <ele>2.54</ele>
        <time>2016-08-28T15:14:04Z</time>
      </trkpt>
      <trkpt lat="46.22631" lon="-1.42742">
        <ele>2.06</ele>
        <time>2016-08-28T15:14:06Z</time>
      </trkpt>
      <trkpt lat="46.22631" lon="-1.42747">
        <ele>2.06</ele>
        <time>2016-08-28T15:14:07Z</time>
      </trkpt>
      <trkpt lat="46.22632" lon="-1.42752">
        <ele>2.06</ele>
        <time>2016-08-28T15:14:08Z</time>
      </trkpt>
      <trkpt lat="46.22651" lon="-1.42815">
        <ele>2.06</ele>
        <time>2016-08-28T15:14:20Z</time>
      </trkpt>
      <trkpt lat="46.22663" lon="-1.42875">
        <ele>2.54</ele>
        <time>2016-08-28T15:14:31Z</time>
      </trkpt>
      <trkpt lat="46.2265" lon="-1.4293">
        <ele>2.54</ele>
        <time>2016-08-28T15:14:41Z</time>
      </trkpt>
      <trkpt lat="46.22645" lon="-1.42953">
        <ele>2.54</ele>
        <time>2016-08-28T15:14:45Z</time>
      </trkpt>
      <trkpt lat="46.22645" lon="-1.42959">
        <ele>2.06</ele>
        <time>2016-08-28T15:14:46Z</time>
      </trkpt>
      <trkpt lat="46.22645" lon="-1.42965">
        <ele>2.06</ele>
        <time>2016-08-28T15:14:47Z</time>
      </trkpt>
      <trkpt lat="46.22647" lon="-1.43005">
        <ele>2.06</ele>
        <time>2016-08-28T15:14:54Z</time>
      </trkpt>
      <trkpt lat="46.22648" lon="-1.43011">
        <ele>2.06</ele>
        <time>2016-08-28T15:14:55Z</time>
      </trkpt>
      <trkpt lat="46.22654" lon="-1.43055">
        <ele>2.54</ele>
        <time>2016-08-28T15:15:06Z</time>
      </trkpt>
      <trkpt lat="46.22655" lon="-1.43059">
        <ele>2.54</ele>
        <time>2016-08-28T15:15:07Z</time>
      </trkpt>
      <trkpt lat="46.22655" lon="-1.43064">
        <ele>2.54</ele>
        <time>2016-08-28T15:15:08Z</time>
      </trkpt>
      <trkpt lat="46.22655" lon="-1.43068">
        <ele>2.54</ele>
        <time>2016-08-28T15:15:09Z</time>
      </trkpt>
      <trkpt lat="46.22655" lon="-1.43073">
        <ele>2.54</ele>
        <time>2016-08-28T15:15:10Z</time>
      </trkpt>
      <trkpt lat="46.22654" lon="-1.43132">
        <ele>2.54</ele>
        <time>2016-08-28T15:15:21Z</time>
      </trkpt>
      <trkpt lat="46.22644" lon="-1.43156">
        <ele>3.02</ele>
        <time>2016-08-28T15:15:26Z</time>
      </trkpt>
      <trkpt lat="46.22641" lon="-1.4316">
        <ele>2.54</ele>
        <time>2016-08-28T15:15:27Z</time>
      </trkpt>
      <trkpt lat="46.22639" lon="-1.43164">
        <ele>3.02</ele>
        <time>2016-08-28T15:15:28Z</time>
      </trkpt>
      <trkpt lat="46.22619" lon="-1.43199">
        <ele>2.54</ele>
        <time>2016-08-28T15:15:37Z</time>
      </trkpt>
      <trkpt lat="46.22578" lon="-1.4322">
        <ele>3.02</ele>
        <time>2016-08-28T15:15:48Z</time>
      </trkpt>
      <trkpt lat="46.22547" lon="-1.43225">
        <ele>3.02</ele>
        <time>2016-08-28T15:15:57Z</time>
      </trkpt>
      <trkpt lat="46.22543" lon="-1.43226">
        <ele>7.35</ele>
        <time>2016-08-28T15:15:58Z</time>
      </trkpt>
      <trkpt lat="46.2254" lon="-1.43226">
        <ele>3.02</ele>
        <time>2016-08-28T15:15:59Z</time>
      </trkpt>
      <trkpt lat="46.22529" lon="-1.43228">
        <ele>2.54</ele>
        <time>2016-08-28T15:16:03Z</time>
      </trkpt>
      <trkpt lat="46.22527" lon="-1.43233">
        <ele>2.54</ele>
        <time>2016-08-28T15:16:05Z</time>
      </trkpt>
      <trkpt lat="46.22526" lon="-1.43236">
        <ele>2.54</ele>
        <time>2016-08-28T15:16:06Z</time>
      </trkpt>
      <trkpt lat="46.22526" lon="-1.4324">
        <ele>2.06</ele>
        <time>2016-08-28T15:16:07Z</time>
      </trkpt>
      <trkpt lat="46.22529" lon="-1.43293">
        <ele>2.54</ele>
        <time>2016-08-28T15:16:19Z</time>
      </trkpt>
      <trkpt lat="46.22533" lon="-1.43344">
        <ele>2.54</ele>
        <time>2016-08-28T15:16:30Z</time>
      </trkpt>
      <trkpt lat="46.2254" lon="-1.43388">
        <ele>3.02</ele>
        <time>2016-08-28T15:16:40Z</time>
      </trkpt>
      <trkpt lat="46.22544" lon="-1.43415">
        <ele>3.02</ele>
        <time>2016-08-28T15:16:48Z</time>
      </trkpt>
      <trkpt lat="46.22545" lon="-1.43417">
        <ele>3.5</ele>
        <time>2016-08-28T15:16:50Z</time>
      </trkpt>
      <trkpt lat="46.22543" lon="-1.43422">
        <ele>3.02</ele>
        <time>2016-08-28T15:16:52Z</time>
      </trkpt>
      <trkpt lat="46.22518" lon="-1.43455">
        <ele>2.06</ele>
        <time>2016-08-28T15:17:03Z</time>
      </trkpt>
      <trkpt lat="46.22474" lon="-1.43498">
        <ele>2.06</ele>
        <time>2016-08-28T15:17:18Z</time>
      </trkpt>
      <trkpt lat="46.22466" lon="-1.43545">
        <ele>1.1</ele>
        <time>2016-08-28T15:17:27Z</time>
      </trkpt>
      <trkpt lat="46.22465" lon="-1.43557">
        <ele>1.1</ele>
        <time>2016-08-28T15:17:29Z</time>
      </trkpt>
      <trkpt lat="46.22465" lon="-1.43562">
        <ele>1.1</ele>
        <time>2016-08-28T15:17:30Z</time>
      </trkpt>
      <trkpt lat="46.22463" lon="-1.43656">
        <ele>1.1</ele>
        <time>2016-08-28T15:17:46Z</time>
      </trkpt>
      <trkpt lat="46.22454" lon="-1.43721">
        <ele>1.58</ele>
        <time>2016-08-28T15:17:58Z</time>
      </trkpt>
      <trkpt lat="46.22432" lon="-1.4377">
        <ele>1.58</ele>
        <time>2016-08-28T15:18:09Z</time>
      </trkpt>
      <trkpt lat="46.22408" lon="-1.43798">
        <ele>2.54</ele>
        <time>2016-08-28T15:18:19Z</time>
      </trkpt>
      <trkpt lat="46.22387" lon="-1.43808">
        <ele>2.54</ele>
        <time>2016-08-28T15:18:30Z</time>
      </trkpt>
      <trkpt lat="46.22385" lon="-1.43807">
        <ele>3.02</ele>
        <time>2016-08-28T15:18:38Z</time>
      </trkpt>
      <trkpt lat="46.22384" lon="-1.43808">
        <ele>3.02</ele>
        <time>2016-08-28T15:18:52Z</time>
      </trkpt>
      <trkpt lat="46.22384" lon="-1.43803">
        <ele>3.02</ele>
        <time>2016-08-28T15:19:02Z</time>
      </trkpt>
      <trkpt lat="46.22386" lon="-1.43802">
        <ele>3.02</ele>
        <time>2016-08-28T15:19:13Z</time>
      </trkpt>
      <trkpt lat="46.22386" lon="-1.43802">
        <ele>2.06</ele>
        <time>2016-08-28T15:19:37Z</time>
      </trkpt>
      <trkpt lat="46.22385" lon="-1.43802">
        <ele>3.02</ele>
        <time>2016-08-28T15:19:57Z</time>
      </trkpt>
      <trkpt lat="46.22385" lon="-1.43802">
        <ele>3.02</ele>
        <time>2016-08-28T15:20:17Z</time>
      </trkpt>
      <trkpt lat="46.22386" lon="-1.43802">
        <ele>3.02</ele>
        <time>2016-08-28T15:20:35Z</time>
      </trkpt>
      <trkpt lat="46.22386" lon="-1.43802">
        <ele>3.02</ele>
        <time>2016-08-28T15:20:55Z</time>
      </trkpt>
      <trkpt lat="46.22386" lon="-1.43802">
        <ele>2.54</ele>
        <time>2016-08-28T15:21:13Z</time>
      </trkpt>
      <trkpt lat="46.22386" lon="-1.43802">
        <ele>2.06</ele>
        <time>2016-08-28T15:21:25Z</time>
      </trkpt>
      <trkpt lat="46.22385" lon="-1.43802">
        <ele>-1.79</ele>
        <time>2016-08-28T15:21:29Z</time>
      </trkpt>
      <trkpt lat="46.22385" lon="-1.43802">
        <ele>-1.3</ele>
        <time>2016-08-28T15:21:30Z</time>
      </trkpt>
      <trkpt lat="46.22385" lon="-1.43802">
        <ele>2.54</ele>
        <time>2016-08-28T15:21:31Z</time>
      </trkpt>
      <trkpt lat="46.22385" lon="-1.43802">
        <ele>1.58</ele>
        <time>2016-08-28T15:21:32Z</time>
      </trkpt>
      <trkpt lat="46.22385" lon="-1.43802">
        <ele>-2.27</ele>
        <time>2016-08-28T15:21:33Z</time>
      </trkpt>
      <trkpt lat="46.22385" lon="-1.43802">
        <ele>1.58</ele>
        <time>2016-08-28T15:21:34Z</time>
      </trkpt>
      <trkpt lat="46.22386" lon="-1.43802">
        <ele>2.06</ele>
        <time>2016-08-28T15:21:59Z</time>
      </trkpt>
      <trkpt lat="46.22385" lon="-1.43801">
        <ele>3.5</ele>
        <time>2016-08-28T15:22:19Z</time>
      </trkpt>
      <trkpt lat="46.22387" lon="-1.43806">
        <ele>3.02</ele>
        <time>2016-08-28T15:22:27Z</time>
      </trkpt>
      <trkpt lat="46.22388" lon="-1.43807">
        <ele>3.5</ele>
        <time>2016-08-28T15:22:28Z</time>
      </trkpt>
      <trkpt lat="46.2239" lon="-1.43806">
        <ele>2.54</ele>
        <time>2016-08-28T15:22:30Z</time>
      </trkpt>
      <trkpt lat="46.22391" lon="-1.43805">
        <ele>3.02</ele>
        <time>2016-08-28T15:22:31Z</time>
      </trkpt>
      <trkpt lat="46.22392" lon="-1.43805">
        <ele>2.54</ele>
        <time>2016-08-28T15:22:32Z</time>
      </trkpt>
      <trkpt lat="46.22394" lon="-1.43804">
        <ele>2.54</ele>
        <time>2016-08-28T15:22:33Z</time>
      </trkpt>
      <trkpt lat="46.22395" lon="-1.43804">
        <ele>3.02</ele>
        <time>2016-08-28T15:22:34Z</time>
      </trkpt>
      <trkpt lat="46.22406" lon="-1.43798">
        <ele>2.54</ele>
        <time>2016-08-28T15:22:45Z</time>
      </trkpt>
      <trkpt lat="46.22417" lon="-1.4379">
        <ele>3.5</ele>
        <time>2016-08-28T15:22:56Z</time>
      </trkpt>
      <trkpt lat="46.22422" lon="-1.43786">
        <ele>3.02</ele>
        <time>2016-08-28T15:23:04Z</time>
      </trkpt>
      <trkpt lat="46.22422" lon="-1.43793">
        <ele>3.5</ele>
        <time>2016-08-28T15:23:12Z</time>
      </trkpt>
      <trkpt lat="46.22424" lon="-1.43797">
        <ele>3.5</ele>
        <time>2016-08-28T15:23:21Z</time>
      </trkpt>
      <trkpt lat="46.22426" lon="-1.43803">
        <ele>3.02</ele>
        <time>2016-08-28T15:23:33Z</time>
      </trkpt>
      <trkpt lat="46.22436" lon="-1.43805">
        <ele>3.02</ele>
        <time>2016-08-28T15:23:48Z</time>
      </trkpt>
      <trkpt lat="46.22442" lon="-1.43806">
        <ele>3.02</ele>
        <time>2016-08-28T15:24:01Z</time>
      </trkpt>
      <trkpt lat="46.22443" lon="-1.43807">
        <ele>3.02</ele>
        <time>2016-08-28T15:24:14Z</time>
      </trkpt>
      <trkpt lat="46.22443" lon="-1.43805">
        <ele>3.5</ele>
        <time>2016-08-28T15:24:28Z</time>
      </trkpt>
      <trkpt lat="46.22443" lon="-1.43804">
        <ele>3.02</ele>
        <time>2016-08-28T15:24:45Z</time>
      </trkpt>
      <trkpt lat="46.22441" lon="-1.43805">
        <ele>3.98</ele>
        <time>2016-08-28T15:25:00Z</time>
      </trkpt>
      <trkpt lat="46.22437" lon="-1.43807">
        <ele>3.5</ele>
        <time>2016-08-28T15:25:16Z</time>
      </trkpt>
      <trkpt lat="46.22432" lon="-1.43801">
        <ele>3.98</ele>
        <time>2016-08-28T15:25:30Z</time>
      </trkpt>
      <trkpt lat="46.22431" lon="-1.438">
        <ele>3.5</ele>
        <time>2016-08-28T15:25:44Z</time>
      </trkpt>
      <trkpt lat="46.22425" lon="-1.43795">
        <ele>3.02</ele>
        <time>2016-08-28T15:25:54Z</time>
      </trkpt>
      <trkpt lat="46.22421" lon="-1.43789">
        <ele>3.02</ele>
        <time>2016-08-28T15:26:03Z</time>
      </trkpt>
      <trkpt lat="46.22417" lon="-1.43794">
        <ele>3.02</ele>
        <time>2016-08-28T15:26:12Z</time>
      </trkpt>
      <trkpt lat="46.22414" lon="-1.43797">
        <ele>3.5</ele>
        <time>2016-08-28T15:26:16Z</time>
      </trkpt>
      <trkpt lat="46.22403" lon="-1.438">
        <ele>3.98</ele>
        <time>2016-08-28T15:26:27Z</time>
      </trkpt>
      <trkpt lat="46.22401" lon="-1.43804">
        <ele>3.5</ele>
        <time>2016-08-28T15:26:40Z</time>
      </trkpt>
      <trkpt lat="46.22397" lon="-1.43807">
        <ele>3.02</ele>
        <time>2016-08-28T15:26:54Z</time>
      </trkpt>
      <trkpt lat="46.22395" lon="-1.43807">
        <ele>3.5</ele>
        <time>2016-08-28T15:26:56Z</time>
      </trkpt>
      <trkpt lat="46.22388" lon="-1.43807">
        <ele>3.5</ele>
        <time>2016-08-28T15:27:04Z</time>
      </trkpt>
      <trkpt lat="46.22386" lon="-1.43806">
        <ele>3.98</ele>
        <time>2016-08-28T15:27:06Z</time>
      </trkpt>
      <trkpt lat="46.22386" lon="-1.43804">
        <ele>3.5</ele>
        <time>2016-08-28T15:27:08Z</time>
      </trkpt>
      <trkpt lat="46.22385" lon="-1.43799">
        <ele>3.5</ele>
        <time>2016-08-28T15:27:17Z</time>
      </trkpt>
      <trkpt lat="46.22385" lon="-1.43799">
        <ele>3.98</ele>
        <time>2016-08-28T15:27:32Z</time>
      </trkpt>
      <trkpt lat="46.22382" lon="-1.43798">
        <ele>3.5</ele>
        <time>2016-08-28T15:27:46Z</time>
      </trkpt>
      <trkpt lat="46.2238" lon="-1.43786">
        <ele>3.98</ele>
        <time>2016-08-28T15:27:56Z</time>
      </trkpt>
      <trkpt lat="46.22379" lon="-1.43784">
        <ele>3.5</ele>
        <time>2016-08-28T15:27:58Z</time>
      </trkpt>
      <trkpt lat="46.22378" lon="-1.43781">
        <ele>3.98</ele>
        <time>2016-08-28T15:28:00Z</time>
      </trkpt>
      <trkpt lat="46.22375" lon="-1.43768">
        <ele>3.98</ele>
        <time>2016-08-28T15:28:10Z</time>
      </trkpt>
      <trkpt lat="46.22372" lon="-1.43753">
        <ele>3.02</ele>
        <time>2016-08-28T15:28:21Z</time>
      </trkpt>
      <trkpt lat="46.22371" lon="-1.43737">
        <ele>3.98</ele>
        <time>2016-08-28T15:28:32Z</time>
      </trkpt>
      <trkpt lat="46.22373" lon="-1.4373">
        <ele>3.5</ele>
        <time>2016-08-28T15:28:39Z</time>
      </trkpt>
      <trkpt lat="46.22374" lon="-1.43729">
        <ele>3.98</ele>
        <time>2016-08-28T15:28:40Z</time>
      </trkpt>
      <trkpt lat="46.22382" lon="-1.43723">
        <ele>3.02</ele>
        <time>2016-08-28T15:28:51Z</time>
      </trkpt>
      <trkpt lat="46.22387" lon="-1.43723">
        <ele>3.02</ele>
        <time>2016-08-28T15:29:01Z</time>
      </trkpt>
      <trkpt lat="46.22388" lon="-1.43723">
        <ele>3.5</ele>
        <time>2016-08-28T15:29:13Z</time>
      </trkpt>
      <trkpt lat="46.22389" lon="-1.43723">
        <ele>3.5</ele>
        <time>2016-08-28T15:29:27Z</time>
      </trkpt>
      <trkpt lat="46.22389" lon="-1.43723">
        <ele>3.5</ele>
        <time>2016-08-28T15:29:37Z</time>
      </trkpt>
      <trkpt lat="46.22389" lon="-1.43723">
        <ele>3.02</ele>
        <time>2016-08-28T15:29:49Z</time>
      </trkpt>
      <trkpt lat="46.22389" lon="-1.43722">
        <ele>2.54</ele>
        <time>2016-08-28T15:30:08Z</time>
      </trkpt>
      <trkpt lat="46.2239" lon="-1.43722">
        <ele>3.5</ele>
        <time>2016-08-28T15:30:20Z</time>
      </trkpt>
      <trkpt lat="46.2239" lon="-1.43721">
        <ele>3.02</ele>
        <time>2016-08-28T15:30:32Z</time>
      </trkpt>
      <trkpt lat="46.2239" lon="-1.43722">
        <ele>3.98</ele>
        <time>2016-08-28T15:30:50Z</time>
      </trkpt>
      <trkpt lat="46.22391" lon="-1.43723">
        <ele>3.98</ele>
        <time>2016-08-28T15:31:18Z</time>
      </trkpt>
      <trkpt lat="46.22391" lon="-1.43723">
        <ele>3.5</ele>
        <time>2016-08-28T15:31:36Z</time>
      </trkpt>
      <trkpt lat="46.22392" lon="-1.43722">
        <ele>3.98</ele>
        <time>2016-08-28T15:31:52Z</time>
      </trkpt>
      <trkpt lat="46.22392" lon="-1.43721">
        <ele>3.5</ele>
        <time>2016-08-28T15:32:10Z</time>
      </trkpt>
      <trkpt lat="46.22392" lon="-1.4372">
        <ele>3.98</ele>
        <time>2016-08-28T15:32:27Z</time>
      </trkpt>
      <trkpt lat="46.22392" lon="-1.4372">
        <ele>3.98</ele>
        <time>2016-08-28T15:32:41Z</time>
      </trkpt>
      <trkpt lat="46.22392" lon="-1.4372">
        <ele>3.98</ele>
        <time>2016-08-28T15:32:53Z</time>
      </trkpt>
      <trkpt lat="46.22392" lon="-1.4372">
        <ele>3.98</ele>
        <time>2016-08-28T15:33:11Z</time>
      </trkpt>
      <trkpt lat="46.22393" lon="-1.4372">
        <ele>3.98</ele>
        <time>2016-08-28T15:33:26Z</time>
      </trkpt>
      <trkpt lat="46.22393" lon="-1.4372">
        <ele>3.98</ele>
        <time>2016-08-28T15:33:36Z</time>
      </trkpt>
      <trkpt lat="46.22393" lon="-1.43721">
        <ele>3.5</ele>
        <time>2016-08-28T15:33:46Z</time>
      </trkpt>
      <trkpt lat="46.22393" lon="-1.43721">
        <ele>3.5</ele>
        <time>2016-08-28T15:34:15Z</time>
      </trkpt>
      <trkpt lat="46.22392" lon="-1.43721">
        <ele>3.02</ele>
        <time>2016-08-28T15:34:42Z</time>
      </trkpt>
      <trkpt lat="46.22392" lon="-1.43721">
        <ele>3.02</ele>
        <time>2016-08-28T15:35:11Z</time>
      </trkpt>
      <trkpt lat="46.22392" lon="-1.43722">
        <ele>3.5</ele>
        <time>2016-08-28T15:35:40Z</time>
      </trkpt>
      <trkpt lat="46.22391" lon="-1.43722">
        <ele>3.5</ele>
        <time>2016-08-28T15:36:08Z</time>
      </trkpt>
      <trkpt lat="46.22391" lon="-1.43721">
        <ele>3.02</ele>
        <time>2016-08-28T15:36:35Z</time>
      </trkpt>
      <trkpt lat="46.2239" lon="-1.43721">
        <ele>3.02</ele>
        <time>2016-08-28T15:37:04Z</time>
      </trkpt>
      <trkpt lat="46.2239" lon="-1.43721">
        <ele>3.5</ele>
        <time>2016-08-28T15:37:31Z</time>
      </trkpt>
      <trkpt lat="46.2239" lon="-1.43721">
        <ele>3.02</ele>
        <time>2016-08-28T15:37:58Z</time>
      </trkpt>
      <trkpt lat="46.2239" lon="-1.43721">
        <ele>3.02</ele>
        <time>2016-08-28T15:38:25Z</time>
      </trkpt>
      <trkpt lat="46.2239" lon="-1.43722">
        <ele>3.02</ele>
        <time>2016-08-28T15:38:57Z</time>
      </trkpt>
      <trkpt lat="46.22391" lon="-1.43722">
        <ele>3.5</ele>
        <time>2016-08-28T15:39:19Z</time>
      </trkpt>
      <trkpt lat="46.22392" lon="-1.43722">
        <ele>3.5</ele>
        <time>2016-08-28T15:39:52Z</time>
      </trkpt>
      <trkpt lat="46.22392" lon="-1.43722">
        <ele>3.5</ele>
        <time>2016-08-28T15:40:18Z</time>
      </trkpt>
      <trkpt lat="46.22391" lon="-1.43722">
        <ele>3.5</ele>
        <time>2016-08-28T15:40:41Z</time>
      </trkpt>
      <trkpt lat="46.22391" lon="-1.43722">
        <ele>3.5</ele>
        <time>2016-08-28T15:41:10Z</time>
      </trkpt>
      <trkpt lat="46.22391" lon="-1.43722">
        <ele>3.5</ele>
        <time>2016-08-28T15:41:40Z</time>
      </trkpt>
      <trkpt lat="46.22391" lon="-1.43723">
        <ele>3.5</ele>
        <time>2016-08-28T15:42:08Z</time>
      </trkpt>
      <trkpt lat="46.22392" lon="-1.43723">
        <ele>3.02</ele>
        <time>2016-08-28T15:42:37Z</time>
      </trkpt>
      <trkpt lat="46.22392" lon="-1.43723">
        <ele>3.5</ele>
        <time>2016-08-28T15:43:04Z</time>
      </trkpt>
      <trkpt lat="46.22392" lon="-1.43723">
        <ele>3.5</ele>
        <time>2016-08-28T15:43:30Z</time>
      </trkpt>
      <trkpt lat="46.22392" lon="-1.43722">
        <ele>3.98</ele>
        <time>2016-08-28T15:43:56Z</time>
      </trkpt>
      <trkpt lat="46.22392" lon="-1.43721">
        <ele>3.5</ele>
        <time>2016-08-28T15:44:23Z</time>
      </trkpt>
      <trkpt lat="46.22391" lon="-1.4372">
        <ele>3.5</ele>
        <time>2016-08-28T15:44:47Z</time>
      </trkpt>
      <trkpt lat="46.22391" lon="-1.43721">
        <ele>3.02</ele>
        <time>2016-08-28T15:45:16Z</time>
      </trkpt>
      <trkpt lat="46.22391" lon="-1.4372">
        <ele>3.5</ele>
        <time>2016-08-28T15:45:42Z</time>
      </trkpt>
      <trkpt lat="46.22391" lon="-1.4372">
        <ele>5.42</ele>
        <time>2016-08-28T15:46:05Z</time>
      </trkpt>
      <trkpt lat="46.22391" lon="-1.4372">
        <ele>2.06</ele>
        <time>2016-08-28T15:46:11Z</time>
      </trkpt>
      <trkpt lat="46.22391" lon="-1.4372">
        <ele>12.63</ele>
        <time>2016-08-28T15:46:13Z</time>
      </trkpt>
      <trkpt lat="46.22391" lon="-1.4372">
        <ele>5.42</ele>
        <time>2016-08-28T15:46:14Z</time>
      </trkpt>
      <trkpt lat="46.22391" lon="-1.4372">
        <ele>3.5</ele>
        <time>2016-08-28T15:46:16Z</time>
      </trkpt>
      <trkpt lat="46.2239" lon="-1.4372">
        <ele>15.52</ele>
        <time>2016-08-28T15:46:18Z</time>
      </trkpt>
      <trkpt lat="46.2239" lon="-1.4372">
        <ele>8.79</ele>
        <time>2016-08-28T15:46:20Z</time>
      </trkpt>
      <trkpt lat="46.2239" lon="-1.4372">
        <ele>4.94</ele>
        <time>2016-08-28T15:46:21Z</time>
      </trkpt>
      <trkpt lat="46.2239" lon="-1.4372">
        <ele>3.98</ele>
        <time>2016-08-28T15:46:23Z</time>
      </trkpt>
      <trkpt lat="46.2239" lon="-1.4372">
        <ele>-26.78</ele>
        <time>2016-08-28T15:46:27Z</time>
      </trkpt>
      <trkpt lat="46.2239" lon="-1.4372">
        <ele>11.19</ele>
        <time>2016-08-28T15:46:28Z</time>
      </trkpt>
      <trkpt lat="46.2239" lon="-1.4372">
        <ele>6.39</ele>
        <time>2016-08-28T15:46:29Z</time>
      </trkpt>
      <trkpt lat="46.2239" lon="-1.4372">
        <ele>5.42</ele>
        <time>2016-08-28T15:46:31Z</time>
      </trkpt>
      <trkpt lat="46.2239" lon="-1.4372">
        <ele>23.21</ele>
        <time>2016-08-28T15:46:32Z</time>
      </trkpt>
      <trkpt lat="46.2239" lon="-1.4372">
        <ele>0.62</ele>
        <time>2016-08-28T15:46:33Z</time>
      </trkpt>
      <trkpt lat="46.2239" lon="-1.4372">
        <ele>14.56</ele>
        <time>2016-08-28T15:46:34Z</time>
      </trkpt>
      <trkpt lat="46.2239" lon="-1.4372">
        <ele>3.98</ele>
        <time>2016-08-28T15:46:35Z</time>
      </trkpt>
      <trkpt lat="46.2239" lon="-1.4372">
        <ele>-19.57</ele>
        <time>2016-08-28T15:46:37Z</time>
      </trkpt>
      <trkpt lat="46.2239" lon="-1.4372">
        <ele>4.46</ele>
        <time>2016-08-28T15:46:38Z</time>
      </trkpt>
      <trkpt lat="46.2239" lon="-1.4372">
        <ele>26.09</ele>
        <time>2016-08-28T15:46:39Z</time>
      </trkpt>
      <trkpt lat="46.2239" lon="-1.4372">
        <ele>-20.05</ele>
        <time>2016-08-28T15:46:40Z</time>
      </trkpt>
      <trkpt lat="46.2239" lon="-1.4372">
        <ele>7.35</ele>
        <time>2016-08-28T15:46:41Z</time>
      </trkpt>
      <trkpt lat="46.2239" lon="-1.4372">
        <ele>3.98</ele>
        <time>2016-08-28T15:46:42Z</time>
      </trkpt>
      <trkpt lat="46.22389" lon="-1.4372">
        <ele>13.6</ele>
        <time>2016-08-28T15:46:43Z</time>
      </trkpt>
      <trkpt lat="46.22389" lon="-1.4372">
        <ele>-8.51</ele>
        <time>2016-08-28T15:46:44Z</time>
      </trkpt>
      <trkpt lat="46.22389" lon="-1.4372">
        <ele>5.91</ele>
        <time>2016-08-28T15:46:45Z</time>
      </trkpt>
      <trkpt lat="46.22389" lon="-1.4372">
        <ele>17.92</ele>
        <time>2016-08-28T15:46:46Z</time>
      </trkpt>
      <trkpt lat="46.22389" lon="-1.4372">
        <ele>-4.19</ele>
        <time>2016-08-28T15:46:47Z</time>
      </trkpt>
      <trkpt lat="46.22389" lon="-1.4372">
        <ele>5.91</ele>
        <time>2016-08-28T15:46:48Z</time>
      </trkpt>
      <trkpt lat="46.22389" lon="-1.4372">
        <ele>-9.96</ele>
        <time>2016-08-28T15:46:49Z</time>
      </trkpt>
      <trkpt lat="46.22389" lon="-1.4372">
        <ele>9.27</ele>
        <time>2016-08-28T15:46:50Z</time>
      </trkpt>
      <trkpt lat="46.22389" lon="-1.4372">
        <ele>4.46</ele>
        <time>2016-08-28T15:46:51Z</time>
      </trkpt>
      <trkpt lat="46.22389" lon="-1.4372">
        <ele>-19.57</ele>
        <time>2016-08-28T15:46:53Z</time>
      </trkpt>
      <trkpt lat="46.22389" lon="-1.43721">
        <ele>5.91</ele>
        <time>2016-08-28T15:46:54Z</time>
      </trkpt>
      <trkpt lat="46.22389" lon="-1.43721">
        <ele>17.44</ele>
        <time>2016-08-28T15:46:56Z</time>
      </trkpt>
      <trkpt lat="46.22389" lon="-1.43721">
        <ele>4.46</ele>
        <time>2016-08-28T15:46:57Z</time>
      </trkpt>
      <trkpt lat="46.22389" lon="-1.43721">
        <ele>-15.24</ele>
        <time>2016-08-28T15:46:59Z</time>
      </trkpt>
      <trkpt lat="46.22389" lon="-1.43721">
        <ele>5.42</ele>
        <time>2016-08-28T15:47:00Z</time>
      </trkpt>
      <trkpt lat="46.22389" lon="-1.43721">
        <ele>26.09</ele>
        <time>2016-08-28T15:47:01Z</time>
      </trkpt>
      <trkpt lat="46.22389" lon="-1.43721">
        <ele>4.46</ele>
        <time>2016-08-28T15:47:02Z</time>
      </trkpt>
      <trkpt lat="46.22389" lon="-1.43721">
        <ele>2.06</ele>
        <time>2016-08-28T15:47:06Z</time>
      </trkpt>
      <trkpt lat="46.22389" lon="-1.43721">
        <ele>35.23</ele>
        <time>2016-08-28T15:47:07Z</time>
      </trkpt>
      <trkpt lat="46.22389" lon="-1.43721">
        <ele>-16.21</ele>
        <time>2016-08-28T15:47:08Z</time>
      </trkpt>
      <trkpt lat="46.22389" lon="-1.43721">
        <ele>6.87</ele>
        <time>2016-08-28T15:47:09Z</time>
      </trkpt>
      <trkpt lat="46.22389" lon="-1.43721">
        <ele>-14.28</ele>
        <time>2016-08-28T15:47:10Z</time>
      </trkpt>
      <trkpt lat="46.22389" lon="-1.43721">
        <ele>5.91</ele>
        <time>2016-08-28T15:47:11Z</time>
      </trkpt>
      <trkpt lat="46.22389" lon="-1.43721">
        <ele>0.62</ele>
        <time>2016-08-28T15:47:12Z</time>
      </trkpt>
      <trkpt lat="46.22389" lon="-1.43721">
        <ele>3.98</ele>
        <time>2016-08-28T15:47:14Z</time>
      </trkpt>
      <trkpt lat="46.22389" lon="-1.43721">
        <ele>7.83</ele>
        <time>2016-08-28T15:47:17Z</time>
      </trkpt>
      <trkpt lat="46.22389" lon="-1.43721">
        <ele>3.98</ele>
        <time>2016-08-28T15:47:18Z</time>
      </trkpt>
      <trkpt lat="46.22389" lon="-1.43721">
        <ele>7.35</ele>
        <time>2016-08-28T15:47:20Z</time>
      </trkpt>
      <trkpt lat="46.22389" lon="-1.43721">
        <ele>3.5</ele>
        <time>2016-08-28T15:47:21Z</time>
      </trkpt>
      <trkpt lat="46.22389" lon="-1.43722">
        <ele>0.14</ele>
        <time>2016-08-28T15:47:22Z</time>
      </trkpt>
      <trkpt lat="46.22389" lon="-1.43722">
        <ele>4.46</ele>
        <time>2016-08-28T15:47:23Z</time>
      </trkpt>
      <trkpt lat="46.22389" lon="-1.43722">
        <ele>7.35</ele>
        <time>2016-08-28T15:47:27Z</time>
      </trkpt>
      <trkpt lat="46.22389" lon="-1.43722">
        <ele>-2.27</ele>
        <time>2016-08-28T15:47:28Z</time>
      </trkpt>
      <trkpt lat="46.22389" lon="-1.43722">
        <ele>3.5</ele>
        <time>2016-08-28T15:47:29Z</time>
      </trkpt>
      <trkpt lat="46.22389" lon="-1.43722">
        <ele>3.5</ele>
        <time>2016-08-28T15:47:49Z</time>
      </trkpt>
      <trkpt lat="46.22388" lon="-1.43721">
        <ele>3.98</ele>
        <time>2016-08-28T15:48:20Z</time>
      </trkpt>
      <trkpt lat="46.22388" lon="-1.43721">
        <ele>3.5</ele>
        <time>2016-08-28T15:48:47Z</time>
      </trkpt>
      <trkpt lat="46.22388" lon="-1.43722">
        <ele>3.02</ele>
        <time>2016-08-28T15:49:15Z</time>
      </trkpt>
      <trkpt lat="46.22389" lon="-1.43722">
        <ele>3.5</ele>
        <time>2016-08-28T15:49:47Z</time>
      </trkpt>
      <trkpt lat="46.22388" lon="-1.43721">
        <ele>3.98</ele>
        <time>2016-08-28T15:50:15Z</time>
      </trkpt>
      <trkpt lat="46.22388" lon="-1.4372">
        <ele>3.98</ele>
        <time>2016-08-28T15:50:47Z</time>
      </trkpt>
      <trkpt lat="46.22388" lon="-1.4372">
        <ele>3.98</ele>
        <time>2016-08-28T15:51:15Z</time>
      </trkpt>
      <trkpt lat="46.22388" lon="-1.43721">
        <ele>3.5</ele>
        <time>2016-08-28T15:51:44Z</time>
      </trkpt>
      <trkpt lat="46.22388" lon="-1.43721">
        <ele>3.98</ele>
        <time>2016-08-28T15:52:09Z</time>
      </trkpt>
      <trkpt lat="46.22388" lon="-1.43721">
        <ele>3.5</ele>
        <time>2016-08-28T15:52:35Z</time>
      </trkpt>
      <trkpt lat="46.22388" lon="-1.43721">
        <ele>4.46</ele>
        <time>2016-08-28T15:53:04Z</time>
      </trkpt>
      <trkpt lat="46.22387" lon="-1.43721">
        <ele>3.98</ele>
        <time>2016-08-28T15:53:32Z</time>
      </trkpt>
      <trkpt lat="46.22386" lon="-1.43721">
        <ele>3.98</ele>
        <time>2016-08-28T15:54:02Z</time>
      </trkpt>
      <trkpt lat="46.22386" lon="-1.43721">
        <ele>3.98</ele>
        <time>2016-08-28T15:54:31Z</time>
      </trkpt>
      <trkpt lat="46.22386" lon="-1.43721">
        <ele>3.98</ele>
        <time>2016-08-28T15:54:58Z</time>
      </trkpt>
      <trkpt lat="46.22387" lon="-1.43721">
        <ele>3.98</ele>
        <time>2016-08-28T15:55:23Z</time>
      </trkpt>
      <trkpt lat="46.22388" lon="-1.43722">
        <ele>3.98</ele>
        <time>2016-08-28T15:55:50Z</time>
      </trkpt>
      <trkpt lat="46.22388" lon="-1.43722">
        <ele>3.98</ele>
        <time>2016-08-28T15:56:17Z</time>
      </trkpt>
      <trkpt lat="46.22389" lon="-1.43722">
        <ele>3.98</ele>
        <time>2016-08-28T15:56:40Z</time>
      </trkpt>
      <trkpt lat="46.22389" lon="-1.43722">
        <ele>4.46</ele>
        <time>2016-08-28T15:57:01Z</time>
      </trkpt>
      <trkpt lat="46.22389" lon="-1.43715">
        <ele>4.46</ele>
        <time>2016-08-28T15:57:10Z</time>
      </trkpt>
      <trkpt lat="46.22389" lon="-1.43714">
        <ele>4.46</ele>
        <time>2016-08-28T15:57:11Z</time>
      </trkpt>
      <trkpt lat="46.2239" lon="-1.43705">
        <ele>4.46</ele>
        <time>2016-08-28T15:57:19Z</time>
      </trkpt>
      <trkpt lat="46.22389" lon="-1.43703">
        <ele>3.98</ele>
        <time>2016-08-28T15:57:35Z</time>
      </trkpt>
      <trkpt lat="46.22389" lon="-1.43701">
        <ele>3.02</ele>
        <time>2016-08-28T15:57:58Z</time>
      </trkpt>
      <trkpt lat="46.2239" lon="-1.43698">
        <ele>4.46</ele>
        <time>2016-08-28T15:58:15Z</time>
      </trkpt>
      <trkpt lat="46.2239" lon="-1.43697">
        <ele>4.46</ele>
        <time>2016-08-28T15:58:33Z</time>
      </trkpt>
      <trkpt lat="46.2239" lon="-1.43698">
        <ele>3.98</ele>
        <time>2016-08-28T15:58:53Z</time>
      </trkpt>
      <trkpt lat="46.22387" lon="-1.43704">
        <ele>3.5</ele>
        <time>2016-08-28T15:59:04Z</time>
      </trkpt>
      <trkpt lat="46.22382" lon="-1.43719">
        <ele>3.5</ele>
        <time>2016-08-28T15:59:13Z</time>
      </trkpt>
      <trkpt lat="46.22379" lon="-1.43725">
        <ele>3.98</ele>
        <time>2016-08-28T15:59:20Z</time>
      </trkpt>
      <trkpt lat="46.22375" lon="-1.43736">
        <ele>3.5</ele>
        <time>2016-08-28T15:59:29Z</time>
      </trkpt>
      <trkpt lat="46.22374" lon="-1.43739">
        <ele>3.98</ele>
        <time>2016-08-28T15:59:30Z</time>
      </trkpt>
      <trkpt lat="46.22378" lon="-1.43752">
        <ele>3.5</ele>
        <time>2016-08-28T15:59:39Z</time>
      </trkpt>
      <trkpt lat="46.2238" lon="-1.4376">
        <ele>3.98</ele>
        <time>2016-08-28T15:59:45Z</time>
      </trkpt>
      <trkpt lat="46.2238" lon="-1.43764">
        <ele>3.98</ele>
        <time>2016-08-28T15:59:47Z</time>
      </trkpt>
      <trkpt lat="46.22381" lon="-1.43766">
        <ele>3.5</ele>
        <time>2016-08-28T15:59:48Z</time>
      </trkpt>
      <trkpt lat="46.22386" lon="-1.43779">
        <ele>3.98</ele>
        <time>2016-08-28T15:59:57Z</time>
      </trkpt>
      <trkpt lat="46.22387" lon="-1.43795">
        <ele>4.46</ele>
        <time>2016-08-28T16:00:07Z</time>
      </trkpt>
      <trkpt lat="46.22387" lon="-1.43796">
        <ele>4.46</ele>
        <time>2016-08-28T16:00:09Z</time>
      </trkpt>
      <trkpt lat="46.22386" lon="-1.43797">
        <ele>3.98</ele>
        <time>2016-08-28T16:00:17Z</time>
      </trkpt>
      <trkpt lat="46.22386" lon="-1.43798">
        <ele>7.35</ele>
        <time>2016-08-28T16:00:20Z</time>
      </trkpt>
      <trkpt lat="46.22386" lon="-1.43799">
        <ele>4.46</ele>
        <time>2016-08-28T16:00:21Z</time>
      </trkpt>
      <trkpt lat="46.22384" lon="-1.43799">
        <ele>4.46</ele>
        <time>2016-08-28T16:00:37Z</time>
      </trkpt>
      <trkpt lat="46.22386" lon="-1.43799">
        <ele>3.98</ele>
        <time>2016-08-28T16:00:57Z</time>
      </trkpt>
      <trkpt lat="46.22386" lon="-1.43798">
        <ele>3.5</ele>
        <time>2016-08-28T16:01:20Z</time>
      </trkpt>
      <trkpt lat="46.22386" lon="-1.43798">
        <ele>3.98</ele>
        <time>2016-08-28T16:01:43Z</time>
      </trkpt>
      <trkpt lat="46.22386" lon="-1.43799">
        <ele>3.98</ele>
        <time>2016-08-28T16:02:06Z</time>
      </trkpt>
      <trkpt lat="46.22386" lon="-1.438">
        <ele>3.98</ele>
        <time>2016-08-28T16:02:16Z</time>
      </trkpt>
      <trkpt lat="46.22385" lon="-1.43805">
        <ele>7.35</ele>
        <time>2016-08-28T16:02:28Z</time>
      </trkpt>
      <trkpt lat="46.22385" lon="-1.43805">
        <ele>3.98</ele>
        <time>2016-08-28T16:02:29Z</time>
      </trkpt>
      <trkpt lat="46.22383" lon="-1.43807">
        <ele>3.98</ele>
        <time>2016-08-28T16:02:34Z</time>
      </trkpt>
      <trkpt lat="46.22381" lon="-1.43809">
        <ele>3.98</ele>
        <time>2016-08-28T16:02:36Z</time>
      </trkpt>
      <trkpt lat="46.2238" lon="-1.43812">
        <ele>3.98</ele>
        <time>2016-08-28T16:02:37Z</time>
      </trkpt>
      <trkpt lat="46.22379" lon="-1.43815">
        <ele>3.98</ele>
        <time>2016-08-28T16:02:38Z</time>
      </trkpt>
      <trkpt lat="46.22379" lon="-1.43818">
        <ele>3.5</ele>
        <time>2016-08-28T16:02:39Z</time>
      </trkpt>
      <trkpt lat="46.22378" lon="-1.43822">
        <ele>3.98</ele>
        <time>2016-08-28T16:02:40Z</time>
      </trkpt>
      <trkpt lat="46.22376" lon="-1.43857">
        <ele>3.02</ele>
        <time>2016-08-28T16:02:49Z</time>
      </trkpt>
      <trkpt lat="46.22378" lon="-1.43899">
        <ele>2.54</ele>
        <time>2016-08-28T16:02:58Z</time>
      </trkpt>
      <trkpt lat="46.22381" lon="-1.43948">
        <ele>3.5</ele>
        <time>2016-08-28T16:03:08Z</time>
      </trkpt>
      <trkpt lat="46.2238" lon="-1.43964">
        <ele>3.5</ele>
        <time>2016-08-28T16:03:13Z</time>
      </trkpt>
      <trkpt lat="46.22378" lon="-1.43966">
        <ele>3.98</ele>
        <time>2016-08-28T16:03:14Z</time>
      </trkpt>
      <trkpt lat="46.22376" lon="-1.43967">
        <ele>4.46</ele>
        <time>2016-08-28T16:03:15Z</time>
      </trkpt>
      <trkpt lat="46.22341" lon="-1.4398">
        <ele>3.5</ele>
        <time>2016-08-28T16:03:25Z</time>
      </trkpt>
      <trkpt lat="46.22296" lon="-1.44001">
        <ele>3.5</ele>
        <time>2016-08-28T16:03:38Z</time>
      </trkpt>
      <trkpt lat="46.22277" lon="-1.44034">
        <ele>3.5</ele>
        <time>2016-08-28T16:03:47Z</time>
      </trkpt>
      <trkpt lat="46.22277" lon="-1.44038">
        <ele>3.5</ele>
        <time>2016-08-28T16:03:48Z</time>
      </trkpt>
      <trkpt lat="46.22276" lon="-1.44042">
        <ele>3.5</ele>
        <time>2016-08-28T16:03:49Z</time>
      </trkpt>
      <trkpt lat="46.22276" lon="-1.44047">
        <ele>3.02</ele>
        <time>2016-08-28T16:03:50Z</time>
      </trkpt>
      <trkpt lat="46.22276" lon="-1.44052">
        <ele>3.5</ele>
        <time>2016-08-28T16:03:51Z</time>
      </trkpt>
      <trkpt lat="46.22267" lon="-1.44082">
        <ele>2.54</ele>
        <time>2016-08-28T16:03:57Z</time>
      </trkpt>
      <trkpt lat="46.22265" lon="-1.44087">
        <ele>2.54</ele>
        <time>2016-08-28T16:03:58Z</time>
      </trkpt>
      <trkpt lat="46.22248" lon="-1.44148">
        <ele>2.06</ele>
        <time>2016-08-28T16:04:09Z</time>
      </trkpt>
      <trkpt lat="46.22247" lon="-1.44154">
        <ele>3.02</ele>
        <time>2016-08-28T16:04:10Z</time>
      </trkpt>
      <trkpt lat="46.22247" lon="-1.44159">
        <ele>2.06</ele>
        <time>2016-08-28T16:04:11Z</time>
      </trkpt>
      <trkpt lat="46.22247" lon="-1.44166">
        <ele>2.54</ele>
        <time>2016-08-28T16:04:12Z</time>
      </trkpt>
      <trkpt lat="46.22253" lon="-1.44243">
        <ele>1.58</ele>
        <time>2016-08-28T16:04:24Z</time>
      </trkpt>
      <trkpt lat="46.22259" lon="-1.44325">
        <ele>1.58</ele>
        <time>2016-08-28T16:04:36Z</time>
      </trkpt>
      <trkpt lat="46.22271" lon="-1.44425">
        <ele>0.62</ele>
        <time>2016-08-28T16:04:51Z</time>
      </trkpt>
      <trkpt lat="46.22291" lon="-1.44501">
        <ele>-0.34</ele>
        <time>2016-08-28T16:05:03Z</time>
      </trkpt>
      <trkpt lat="46.22307" lon="-1.44593">
        <ele>-0.82</ele>
        <time>2016-08-28T16:05:17Z</time>
      </trkpt>
      <trkpt lat="46.22308" lon="-1.44614">
        <ele>-0.34</ele>
        <time>2016-08-28T16:05:20Z</time>
      </trkpt>
      <trkpt lat="46.22294" lon="-1.44691">
        <ele>0.14</ele>
        <time>2016-08-28T16:05:32Z</time>
      </trkpt>
      <trkpt lat="46.22285" lon="-1.44717">
        <ele>0.62</ele>
        <time>2016-08-28T16:05:37Z</time>
      </trkpt>
      <trkpt lat="46.22282" lon="-1.44717">
        <ele>0.62</ele>
        <time>2016-08-28T16:05:38Z</time>
      </trkpt>
      <trkpt lat="46.22279" lon="-1.44715">
        <ele>0.62</ele>
        <time>2016-08-28T16:05:39Z</time>
      </trkpt>
      <trkpt lat="46.22275" lon="-1.44713">
        <ele>0.14</ele>
        <time>2016-08-28T16:05:40Z</time>
      </trkpt>
      <trkpt lat="46.22271" lon="-1.44712">
        <ele>1.1</ele>
        <time>2016-08-28T16:05:41Z</time>
      </trkpt>
      <trkpt lat="46.22267" lon="-1.44713">
        <ele>1.1</ele>
        <time>2016-08-28T16:05:42Z</time>
      </trkpt>
      <trkpt lat="46.22263" lon="-1.44715">
        <ele>0.14</ele>
        <time>2016-08-28T16:05:43Z</time>
      </trkpt>
      <trkpt lat="46.22259" lon="-1.44718">
        <ele>-0.34</ele>
        <time>2016-08-28T16:05:44Z</time>
      </trkpt>
      <trkpt lat="46.22256" lon="-1.44722">
        <ele>-0.34</ele>
        <time>2016-08-28T16:05:45Z</time>
      </trkpt>
      <trkpt lat="46.22253" lon="-1.44726">
        <ele>-0.34</ele>
        <time>2016-08-28T16:05:46Z</time>
      </trkpt>
      <trkpt lat="46.2225" lon="-1.4473">
        <ele>0.14</ele>
        <time>2016-08-28T16:05:47Z</time>
      </trkpt>
      <trkpt lat="46.22248" lon="-1.44735">
        <ele>0.14</ele>
        <time>2016-08-28T16:05:48Z</time>
      </trkpt>
      <trkpt lat="46.22247" lon="-1.4474">
        <ele>0.14</ele>
        <time>2016-08-28T16:05:49Z</time>
      </trkpt>
      <trkpt lat="46.22248" lon="-1.44746">
        <ele>-0.34</ele>
        <time>2016-08-28T16:05:50Z</time>
      </trkpt>
      <trkpt lat="46.22249" lon="-1.44751">
        <ele>-0.34</ele>
        <time>2016-08-28T16:05:51Z</time>
      </trkpt>
      <trkpt lat="46.2225" lon="-1.44763">
        <ele>-0.34</ele>
        <time>2016-08-28T16:05:53Z</time>
      </trkpt>
      <trkpt lat="46.22249" lon="-1.44769">
        <ele>-0.34</ele>
        <time>2016-08-28T16:05:54Z</time>
      </trkpt>
      <trkpt lat="46.22248" lon="-1.44775">
        <ele>0.14</ele>
        <time>2016-08-28T16:05:55Z</time>
      </trkpt>
      <trkpt lat="46.22244" lon="-1.44785">
        <ele>0.62</ele>
        <time>2016-08-28T16:05:57Z</time>
      </trkpt>
      <trkpt lat="46.22242" lon="-1.44791">
        <ele>0.14</ele>
        <time>2016-08-28T16:05:58Z</time>
      </trkpt>
      <trkpt lat="46.22239" lon="-1.44796">
        <ele>-0.34</ele>
        <time>2016-08-28T16:05:59Z</time>
      </trkpt>
      <trkpt lat="46.22199" lon="-1.44875">
        <ele>0.14</ele>
        <time>2016-08-28T16:06:14Z</time>
      </trkpt>
      <trkpt lat="46.2217" lon="-1.44946">
        <ele>0.14</ele>
        <time>2016-08-28T16:06:26Z</time>
      </trkpt>
      <trkpt lat="46.22151" lon="-1.45051">
        <ele>-0.34</ele>
        <time>2016-08-28T16:06:42Z</time>
      </trkpt>
      <trkpt lat="46.22137" lon="-1.4514">
        <ele>0.14</ele>
        <time>2016-08-28T16:06:56Z</time>
      </trkpt>
      <trkpt lat="46.22122" lon="-1.45227">
        <ele>-0.34</ele>
        <time>2016-08-28T16:07:09Z</time>
      </trkpt>
      <trkpt lat="46.22111" lon="-1.45278">
        <ele>0.14</ele>
        <time>2016-08-28T16:07:17Z</time>
      </trkpt>
      <trkpt lat="46.22108" lon="-1.45283">
        <ele>0.14</ele>
        <time>2016-08-28T16:07:18Z</time>
      </trkpt>
      <trkpt lat="46.22105" lon="-1.45288">
        <ele>0.14</ele>
        <time>2016-08-28T16:07:19Z</time>
      </trkpt>
      <trkpt lat="46.22101" lon="-1.45291">
        <ele>0.14</ele>
        <time>2016-08-28T16:07:20Z</time>
      </trkpt>
      <trkpt lat="46.22096" lon="-1.45294">
        <ele>0.62</ele>
        <time>2016-08-28T16:07:21Z</time>
      </trkpt>
      <trkpt lat="46.2208" lon="-1.45304">
        <ele>0.62</ele>
        <time>2016-08-28T16:07:25Z</time>
      </trkpt>
      <trkpt lat="46.22076" lon="-1.45307">
        <ele>0.62</ele>
        <time>2016-08-28T16:07:26Z</time>
      </trkpt>
      <trkpt lat="46.22073" lon="-1.45311">
        <ele>0.62</ele>
        <time>2016-08-28T16:07:27Z</time>
      </trkpt>
      <trkpt lat="46.22071" lon="-1.45316">
        <ele>0.62</ele>
        <time>2016-08-28T16:07:28Z</time>
      </trkpt>
      <trkpt lat="46.22069" lon="-1.45322">
        <ele>0.14</ele>
        <time>2016-08-28T16:07:29Z</time>
      </trkpt>
      <trkpt lat="46.22067" lon="-1.45328">
        <ele>0.62</ele>
        <time>2016-08-28T16:07:30Z</time>
      </trkpt>
      <trkpt lat="46.22047" lon="-1.45409">
        <ele>-0.82</ele>
        <time>2016-08-28T16:07:43Z</time>
      </trkpt>
      <trkpt lat="46.22035" lon="-1.45457">
        <ele>-0.82</ele>
        <time>2016-08-28T16:07:51Z</time>
      </trkpt>
      <trkpt lat="46.22016" lon="-1.45545">
        <ele>-1.3</ele>
        <time>2016-08-28T16:08:06Z</time>
      </trkpt>
      <trkpt lat="46.21998" lon="-1.45627">
        <ele>-0.34</ele>
        <time>2016-08-28T16:08:20Z</time>
      </trkpt>
      <trkpt lat="46.21982" lon="-1.45703">
        <ele>-0.34</ele>
        <time>2016-08-28T16:08:33Z</time>
      </trkpt>
      <trkpt lat="46.21965" lon="-1.45785">
        <ele>0.14</ele>
        <time>2016-08-28T16:08:48Z</time>
      </trkpt>
      <trkpt lat="46.21964" lon="-1.45789">
        <ele>0.14</ele>
        <time>2016-08-28T16:08:54Z</time>
      </trkpt>
      <trkpt lat="46.21965" lon="-1.45789">
        <ele>0.62</ele>
        <time>2016-08-28T16:09:23Z</time>
      </trkpt>
      <trkpt lat="46.21964" lon="-1.45791">
        <ele>0.62</ele>
        <time>2016-08-28T16:09:43Z</time>
      </trkpt>
      <trkpt lat="46.21963" lon="-1.45792">
        <ele>0.62</ele>
        <time>2016-08-28T16:09:44Z</time>
      </trkpt>
      <trkpt lat="46.21963" lon="-1.45795">
        <ele>0.14</ele>
        <time>2016-08-28T16:09:45Z</time>
      </trkpt>
      <trkpt lat="46.21953" lon="-1.45839">
        <ele>1.1</ele>
        <time>2016-08-28T16:09:55Z</time>
      </trkpt>
      <trkpt lat="46.21952" lon="-1.45845">
        <ele>-2.75</ele>
        <time>2016-08-28T16:09:56Z</time>
      </trkpt>
      <trkpt lat="46.21948" lon="-1.45862">
        <ele>0.62</ele>
        <time>2016-08-28T16:09:59Z</time>
      </trkpt>
      <trkpt lat="46.21937" lon="-1.45904">
        <ele>0.14</ele>
        <time>2016-08-28T16:10:06Z</time>
      </trkpt>
      <trkpt lat="46.21936" lon="-1.4591">
        <ele>0.14</ele>
        <time>2016-08-28T16:10:07Z</time>
      </trkpt>
      <trkpt lat="46.21926" lon="-1.45945">
        <ele>0.62</ele>
        <time>2016-08-28T16:10:15Z</time>
      </trkpt>
      <trkpt lat="46.21923" lon="-1.45947">
        <ele>0.14</ele>
        <time>2016-08-28T16:10:16Z</time>
      </trkpt>
      <trkpt lat="46.2192" lon="-1.4595">
        <ele>1.1</ele>
        <time>2016-08-28T16:10:17Z</time>
      </trkpt>
      <trkpt lat="46.21877" lon="-1.45963">
        <ele>0.62</ele>
        <time>2016-08-28T16:10:27Z</time>
      </trkpt>
      <trkpt lat="46.2181" lon="-1.45977">
        <ele>1.1</ele>
        <time>2016-08-28T16:10:41Z</time>
      </trkpt>
      <trkpt lat="46.21752" lon="-1.45989">
        <ele>0.62</ele>
        <time>2016-08-28T16:10:54Z</time>
      </trkpt>
      <trkpt lat="46.21743" lon="-1.45989">
        <ele>1.58</ele>
        <time>2016-08-28T16:10:56Z</time>
      </trkpt>
      <trkpt lat="46.21701" lon="-1.4599">
        <ele>1.1</ele>
        <time>2016-08-28T16:11:07Z</time>
      </trkpt>
      <trkpt lat="46.21674" lon="-1.4602">
        <ele>0.14</ele>
        <time>2016-08-28T16:11:16Z</time>
      </trkpt>
      <trkpt lat="46.21663" lon="-1.46031">
        <ele>0.62</ele>
        <time>2016-08-28T16:11:20Z</time>
      </trkpt>
      <trkpt lat="46.21663" lon="-1.46034">
        <ele>0.14</ele>
        <time>2016-08-28T16:11:21Z</time>
      </trkpt>
      <trkpt lat="46.21664" lon="-1.46036">
        <ele>0.14</ele>
        <time>2016-08-28T16:11:22Z</time>
      </trkpt>
      <trkpt lat="46.21667" lon="-1.46038">
        <ele>0.62</ele>
        <time>2016-08-28T16:11:23Z</time>
      </trkpt>
      <trkpt lat="46.2167" lon="-1.46039">
        <ele>1.1</ele>
        <time>2016-08-28T16:11:24Z</time>
      </trkpt>
      <trkpt lat="46.21673" lon="-1.46042">
        <ele>0.14</ele>
        <time>2016-08-28T16:11:25Z</time>
      </trkpt>
      <trkpt lat="46.21675" lon="-1.46045">
        <ele>0.14</ele>
        <time>2016-08-28T16:11:26Z</time>
      </trkpt>
      <trkpt lat="46.21677" lon="-1.46047">
        <ele>-0.34</ele>
        <time>2016-08-28T16:11:27Z</time>
      </trkpt>
      <trkpt lat="46.21678" lon="-1.46051">
        <ele>-0.34</ele>
        <time>2016-08-28T16:11:28Z</time>
      </trkpt>
      <trkpt lat="46.21679" lon="-1.46055">
        <ele>-1.3</ele>
        <time>2016-08-28T16:11:29Z</time>
      </trkpt>
      <trkpt lat="46.21679" lon="-1.46058">
        <ele>-0.82</ele>
        <time>2016-08-28T16:11:30Z</time>
      </trkpt>
      <trkpt lat="46.2168" lon="-1.46061">
        <ele>0.14</ele>
        <time>2016-08-28T16:11:31Z</time>
      </trkpt>
      <trkpt lat="46.21681" lon="-1.46064">
        <ele>0.14</ele>
        <time>2016-08-28T16:11:32Z</time>
      </trkpt>
      <trkpt lat="46.21682" lon="-1.46065">
        <ele>1.1</ele>
        <time>2016-08-28T16:11:33Z</time>
      </trkpt>
      <trkpt lat="46.21683" lon="-1.46067">
        <ele>2.06</ele>
        <time>2016-08-28T16:11:42Z</time>
      </trkpt>
      <trkpt lat="46.21684" lon="-1.46067">
        <ele>1.58</ele>
        <time>2016-08-28T16:11:52Z</time>
      </trkpt>
      <trkpt lat="46.21684" lon="-1.46066">
        <ele>2.06</ele>
        <time>2016-08-28T16:12:16Z</time>
      </trkpt>
      <trkpt lat="46.21684" lon="-1.46067">
        <ele>1.1</ele>
        <time>2016-08-28T16:12:31Z</time>
      </trkpt>
      <trkpt lat="46.21685" lon="-1.46068">
        <ele>1.1</ele>
        <time>2016-08-28T16:13:05Z</time>
      </trkpt>
      <trkpt lat="46.21685" lon="-1.46068">
        <ele>1.1</ele>
        <time>2016-08-28T16:13:37Z</time>
      </trkpt>
      <trkpt lat="46.21685" lon="-1.46068">
        <ele>1.1</ele>
        <time>2016-08-28T16:14:05Z</time>
      </trkpt>
      <trkpt lat="46.21686" lon="-1.46068">
        <ele>1.1</ele>
        <time>2016-08-28T16:14:37Z</time>
      </trkpt>
      <trkpt lat="46.21685" lon="-1.46068">
        <ele>1.1</ele>
        <time>2016-08-28T16:15:13Z</time>
      </trkpt>
      <trkpt lat="46.21685" lon="-1.46068">
        <ele>1.1</ele>
        <time>2016-08-28T16:15:45Z</time>
      </trkpt>
      <trkpt lat="46.21685" lon="-1.46068">
        <ele>1.1</ele>
        <time>2016-08-28T16:16:18Z</time>
      </trkpt>
      <trkpt lat="46.21685" lon="-1.46068">
        <ele>1.58</ele>
        <time>2016-08-28T16:16:40Z</time>
      </trkpt>
      <trkpt lat="46.21683" lon="-1.46066">
        <ele>2.06</ele>
        <time>2016-08-28T16:16:46Z</time>
      </trkpt>
      <trkpt lat="46.2168" lon="-1.46066">
        <ele>2.54</ele>
        <time>2016-08-28T16:16:51Z</time>
      </trkpt>
      <trkpt lat="46.21678" lon="-1.46066">
        <ele>2.06</ele>
        <time>2016-08-28T16:17:02Z</time>
      </trkpt>
      <trkpt lat="46.21679" lon="-1.46059">
        <ele>2.54</ele>
        <time>2016-08-28T16:17:11Z</time>
      </trkpt>
      <trkpt lat="46.21679" lon="-1.46059">
        <ele>1.58</ele>
        <time>2016-08-28T16:17:26Z</time>
      </trkpt>
      <trkpt lat="46.21679" lon="-1.46058">
        <ele>2.06</ele>
        <time>2016-08-28T16:17:48Z</time>
      </trkpt>
      <trkpt lat="46.21679" lon="-1.46058">
        <ele>1.58</ele>
        <time>2016-08-28T16:18:15Z</time>
      </trkpt>
      <trkpt lat="46.21679" lon="-1.46057">
        <ele>1.58</ele>
        <time>2016-08-28T16:18:25Z</time>
      </trkpt>
      <trkpt lat="46.21679" lon="-1.46054">
        <ele>1.1</ele>
        <time>2016-08-28T16:18:30Z</time>
      </trkpt>
      <trkpt lat="46.21677" lon="-1.46049">
        <ele>1.58</ele>
        <time>2016-08-28T16:18:39Z</time>
      </trkpt>
      <trkpt lat="46.21664" lon="-1.46038">
        <ele>1.1</ele>
        <time>2016-08-28T16:18:47Z</time>
      </trkpt>
      <trkpt lat="46.21658" lon="-1.46035">
        <ele>1.1</ele>
        <time>2016-08-28T16:18:49Z</time>
      </trkpt>
      <trkpt lat="46.21654" lon="-1.46036">
        <ele>0.62</ele>
        <time>2016-08-28T16:18:50Z</time>
      </trkpt>
      <trkpt lat="46.21651" lon="-1.46038">
        <ele>-5.15</ele>
        <time>2016-08-28T16:18:51Z</time>
      </trkpt>
      <trkpt lat="46.21648" lon="-1.46041">
        <ele>1.58</ele>
        <time>2016-08-28T16:18:52Z</time>
      </trkpt>
      <trkpt lat="46.21614" lon="-1.46069">
        <ele>0.62</ele>
        <time>2016-08-28T16:19:01Z</time>
      </trkpt>
      <trkpt lat="46.21609" lon="-1.4607">
        <ele>0.14</ele>
        <time>2016-08-28T16:19:02Z</time>
      </trkpt>
      <trkpt lat="46.21586" lon="-1.46076">
        <ele>1.1</ele>
        <time>2016-08-28T16:19:07Z</time>
      </trkpt>
      <trkpt lat="46.21578" lon="-1.4608">
        <ele>0.62</ele>
        <time>2016-08-28T16:19:09Z</time>
      </trkpt>
      <trkpt lat="46.21573" lon="-1.46081">
        <ele>0.62</ele>
        <time>2016-08-28T16:19:10Z</time>
      </trkpt>
      <trkpt lat="46.21569" lon="-1.46081">
        <ele>0.62</ele>
        <time>2016-08-28T16:19:11Z</time>
      </trkpt>
      <trkpt lat="46.2154" lon="-1.46078">
        <ele>1.1</ele>
        <time>2016-08-28T16:19:17Z</time>
      </trkpt>
      <trkpt lat="46.21535" lon="-1.46076">
        <ele>1.1</ele>
        <time>2016-08-28T16:19:18Z</time>
      </trkpt>
      <trkpt lat="46.21521" lon="-1.4607">
        <ele>0.62</ele>
        <time>2016-08-28T16:19:21Z</time>
      </trkpt>
      <trkpt lat="46.21516" lon="-1.46069">
        <ele>0.62</ele>
        <time>2016-08-28T16:19:22Z</time>
      </trkpt>
      <trkpt lat="46.21496" lon="-1.46069">
        <ele>1.1</ele>
        <time>2016-08-28T16:19:26Z</time>
      </trkpt>
      <trkpt lat="46.21428" lon="-1.46051">
        <ele>0.62</ele>
        <time>2016-08-28T16:19:39Z</time>
      </trkpt>
      <trkpt lat="46.21357" lon="-1.4603">
        <ele>2.06</ele>
        <time>2016-08-28T16:19:53Z</time>
      </trkpt>
      <trkpt lat="46.21304" lon="-1.46011">
        <ele>2.06</ele>
        <time>2016-08-28T16:20:04Z</time>
      </trkpt>
      <trkpt lat="46.21279" lon="-1.46007">
        <ele>-1.3</ele>
        <time>2016-08-28T16:20:09Z</time>
      </trkpt>
      <trkpt lat="46.21274" lon="-1.46007">
        <ele>2.06</ele>
        <time>2016-08-28T16:20:10Z</time>
      </trkpt>
      <trkpt lat="46.2123" lon="-1.46006">
        <ele>1.58</ele>
        <time>2016-08-28T16:20:20Z</time>
      </trkpt>
      <trkpt lat="46.21225" lon="-1.46003">
        <ele>2.06</ele>
        <time>2016-08-28T16:20:22Z</time>
      </trkpt>
      <trkpt lat="46.21223" lon="-1.46001">
        <ele>2.54</ele>
        <time>2016-08-28T16:20:23Z</time>
      </trkpt>
      <trkpt lat="46.21222" lon="-1.45997">
        <ele>2.06</ele>
        <time>2016-08-28T16:20:24Z</time>
      </trkpt>
      <trkpt lat="46.21212" lon="-1.45975">
        <ele>1.58</ele>
        <time>2016-08-28T16:20:30Z</time>
      </trkpt>
      <trkpt lat="46.2121" lon="-1.45974">
        <ele>1.58</ele>
        <time>2016-08-28T16:20:31Z</time>
      </trkpt>
      <trkpt lat="46.21207" lon="-1.45973">
        <ele>2.06</ele>
        <time>2016-08-28T16:20:32Z</time>
      </trkpt>
      <trkpt lat="46.21206" lon="-1.4597">
        <ele>1.58</ele>
        <time>2016-08-28T16:20:33Z</time>
      </trkpt>
      <trkpt lat="46.21206" lon="-1.45966">
        <ele>1.58</ele>
        <time>2016-08-28T16:20:34Z</time>
      </trkpt>
      <trkpt lat="46.21207" lon="-1.45961">
        <ele>1.1</ele>
        <time>2016-08-28T16:20:35Z</time>
      </trkpt>
      <trkpt lat="46.21206" lon="-1.45957">
        <ele>1.1</ele>
        <time>2016-08-28T16:20:36Z</time>
      </trkpt>
      <trkpt lat="46.21204" lon="-1.45954">
        <ele>1.58</ele>
        <time>2016-08-28T16:20:37Z</time>
      </trkpt>
      <trkpt lat="46.21201" lon="-1.45954">
        <ele>1.58</ele>
        <time>2016-08-28T16:20:38Z</time>
      </trkpt>
      <trkpt lat="46.21198" lon="-1.45955">
        <ele>1.58</ele>
        <time>2016-08-28T16:20:39Z</time>
      </trkpt>
      <trkpt lat="46.21194" lon="-1.45957">
        <ele>1.1</ele>
        <time>2016-08-28T16:20:40Z</time>
      </trkpt>
      <trkpt lat="46.2119" lon="-1.45959">
        <ele>1.58</ele>
        <time>2016-08-28T16:20:41Z</time>
      </trkpt>
      <trkpt lat="46.21186" lon="-1.4596">
        <ele>1.58</ele>
        <time>2016-08-28T16:20:42Z</time>
      </trkpt>
      <trkpt lat="46.21137" lon="-1.4597">
        <ele>1.1</ele>
        <time>2016-08-28T16:20:54Z</time>
      </trkpt>
      <trkpt lat="46.21097" lon="-1.4597">
        <ele>1.58</ele>
        <time>2016-08-28T16:21:05Z</time>
      </trkpt>
      <trkpt lat="46.21095" lon="-1.45967">
        <ele>2.06</ele>
        <time>2016-08-28T16:21:06Z</time>
      </trkpt>
      <trkpt lat="46.21093" lon="-1.45963">
        <ele>1.1</ele>
        <time>2016-08-28T16:21:07Z</time>
      </trkpt>
      <trkpt lat="46.21092" lon="-1.45958">
        <ele>1.58</ele>
        <time>2016-08-28T16:21:08Z</time>
      </trkpt>
      <trkpt lat="46.21092" lon="-1.45953">
        <ele>1.58</ele>
        <time>2016-08-28T16:21:09Z</time>
      </trkpt>
      <trkpt lat="46.21082" lon="-1.45881">
        <ele>1.58</ele>
        <time>2016-08-28T16:21:20Z</time>
      </trkpt>
      <trkpt lat="46.21067" lon="-1.45788">
        <ele>1.1</ele>
        <time>2016-08-28T16:21:33Z</time>
      </trkpt>
      <trkpt lat="46.21048" lon="-1.45689">
        <ele>1.58</ele>
        <time>2016-08-28T16:21:47Z</time>
      </trkpt>
      <trkpt lat="46.21033" lon="-1.45608">
        <ele>1.58</ele>
        <time>2016-08-28T16:22:00Z</time>
      </trkpt>
      <trkpt lat="46.21034" lon="-1.45604">
        <ele>1.58</ele>
        <time>2016-08-28T16:22:01Z</time>
      </trkpt>
      <trkpt lat="46.21037" lon="-1.456">
        <ele>1.58</ele>
        <time>2016-08-28T16:22:02Z</time>
      </trkpt>
      <trkpt lat="46.2104" lon="-1.45596">
        <ele>1.1</ele>
        <time>2016-08-28T16:22:03Z</time>
      </trkpt>
      <trkpt lat="46.21043" lon="-1.45593">
        <ele>1.1</ele>
        <time>2016-08-28T16:22:04Z</time>
      </trkpt>
      <trkpt lat="46.21047" lon="-1.45591">
        <ele>1.1</ele>
        <time>2016-08-28T16:22:05Z</time>
      </trkpt>
      <trkpt lat="46.21051" lon="-1.45588">
        <ele>1.1</ele>
        <time>2016-08-28T16:22:06Z</time>
      </trkpt>
      <trkpt lat="46.21063" lon="-1.45582">
        <ele>1.58</ele>
        <time>2016-08-28T16:22:09Z</time>
      </trkpt>
      <trkpt lat="46.21072" lon="-1.45579">
        <ele>1.1</ele>
        <time>2016-08-28T16:22:11Z</time>
      </trkpt>
      <trkpt lat="46.21076" lon="-1.45577">
        <ele>1.1</ele>
        <time>2016-08-28T16:22:12Z</time>
      </trkpt>
      <trkpt lat="46.21107" lon="-1.45568">
        <ele>1.58</ele>
        <time>2016-08-28T16:22:19Z</time>
      </trkpt>
      <trkpt lat="46.21111" lon="-1.45568">
        <ele>1.58</ele>
        <time>2016-08-28T16:22:20Z</time>
      </trkpt>
      <trkpt lat="46.21128" lon="-1.45559">
        <ele>2.54</ele>
        <time>2016-08-28T16:22:26Z</time>
      </trkpt>
      <trkpt lat="46.21129" lon="-1.45557">
        <ele>2.06</ele>
        <time>2016-08-28T16:22:27Z</time>
      </trkpt>
      <trkpt lat="46.2113" lon="-1.45557">
        <ele>2.06</ele>
        <time>2016-08-28T16:22:28Z</time>
      </trkpt>
      <trkpt lat="46.21131" lon="-1.45559">
        <ele>2.06</ele>
        <time>2016-08-28T16:22:29Z</time>
      </trkpt>
      <trkpt lat="46.21131" lon="-1.4556">
        <ele>2.06</ele>
        <time>2016-08-28T16:22:30Z</time>
      </trkpt>
      <trkpt lat="46.21129" lon="-1.45561">
        <ele>2.06</ele>
        <time>2016-08-28T16:22:31Z</time>
      </trkpt>
      <trkpt lat="46.21128" lon="-1.45561">
        <ele>1.58</ele>
        <time>2016-08-28T16:22:32Z</time>
      </trkpt>
      <trkpt lat="46.21126" lon="-1.45561">
        <ele>2.06</ele>
        <time>2016-08-28T16:22:33Z</time>
      </trkpt>
      <trkpt lat="46.21124" lon="-1.45561">
        <ele>1.58</ele>
        <time>2016-08-28T16:22:34Z</time>
      </trkpt>
      <trkpt lat="46.21121" lon="-1.45562">
        <ele>2.06</ele>
        <time>2016-08-28T16:22:35Z</time>
      </trkpt>
      <trkpt lat="46.21118" lon="-1.45564">
        <ele>2.06</ele>
        <time>2016-08-28T16:22:36Z</time>
      </trkpt>
      <trkpt lat="46.21088" lon="-1.4557">
        <ele>1.58</ele>
        <time>2016-08-28T16:22:45Z</time>
      </trkpt>
      <trkpt lat="46.21087" lon="-1.45566">
        <ele>1.58</ele>
        <time>2016-08-28T16:22:46Z</time>
      </trkpt>
      <trkpt lat="46.21087" lon="-1.45562">
        <ele>1.58</ele>
        <time>2016-08-28T16:22:47Z</time>
      </trkpt>
      <trkpt lat="46.21087" lon="-1.45503">
        <ele>1.58</ele>
        <time>2016-08-28T16:22:58Z</time>
      </trkpt>
      <trkpt lat="46.21086" lon="-1.45434">
        <ele>1.58</ele>
        <time>2016-08-28T16:23:10Z</time>
      </trkpt>
      <trkpt lat="46.21086" lon="-1.45368">
        <ele>2.06</ele>
        <time>2016-08-28T16:23:21Z</time>
      </trkpt>
      <trkpt lat="46.21087" lon="-1.45284">
        <ele>1.58</ele>
        <time>2016-08-28T16:23:34Z</time>
      </trkpt>
      <trkpt lat="46.21089" lon="-1.45188">
        <ele>1.58</ele>
        <time>2016-08-28T16:23:49Z</time>
      </trkpt>
      <trkpt lat="46.2109" lon="-1.45122">
        <ele>1.58</ele>
        <time>2016-08-28T16:24:00Z</time>
      </trkpt>
      <trkpt lat="46.21091" lon="-1.45118">
        <ele>2.06</ele>
        <time>2016-08-28T16:24:01Z</time>
      </trkpt>
      <trkpt lat="46.21094" lon="-1.45116">
        <ele>1.58</ele>
        <time>2016-08-28T16:24:02Z</time>
      </trkpt>
      <trkpt lat="46.21098" lon="-1.45116">
        <ele>1.1</ele>
        <time>2016-08-28T16:24:03Z</time>
      </trkpt>
      <trkpt lat="46.21102" lon="-1.45117">
        <ele>1.58</ele>
        <time>2016-08-28T16:24:04Z</time>
      </trkpt>
      <trkpt lat="46.21106" lon="-1.45119">
        <ele>1.1</ele>
        <time>2016-08-28T16:24:05Z</time>
      </trkpt>
      <trkpt lat="46.21123" lon="-1.45124">
        <ele>1.58</ele>
        <time>2016-08-28T16:24:09Z</time>
      </trkpt>
      <trkpt lat="46.21127" lon="-1.45123">
        <ele>1.1</ele>
        <time>2016-08-28T16:24:10Z</time>
      </trkpt>
      <trkpt lat="46.2113" lon="-1.4512">
        <ele>1.58</ele>
        <time>2016-08-28T16:24:11Z</time>
      </trkpt>
      <trkpt lat="46.21132" lon="-1.45116">
        <ele>1.1</ele>
        <time>2016-08-28T16:24:12Z</time>
      </trkpt>
      <trkpt lat="46.21133" lon="-1.45111">
        <ele>2.06</ele>
        <time>2016-08-28T16:24:13Z</time>
      </trkpt>
      <trkpt lat="46.21133" lon="-1.45107">
        <ele>1.58</ele>
        <time>2016-08-28T16:24:14Z</time>
      </trkpt>
      <trkpt lat="46.21134" lon="-1.45104">
        <ele>2.06</ele>
        <time>2016-08-28T16:24:15Z</time>
      </trkpt>
      <trkpt lat="46.21135" lon="-1.45101">
        <ele>2.06</ele>
        <time>2016-08-28T16:24:16Z</time>
      </trkpt>
      <trkpt lat="46.21136" lon="-1.45098">
        <ele>2.06</ele>
        <time>2016-08-28T16:24:17Z</time>
      </trkpt>
      <trkpt lat="46.21139" lon="-1.45095">
        <ele>2.06</ele>
        <time>2016-08-28T16:24:18Z</time>
      </trkpt>
      <trkpt lat="46.21158" lon="-1.45056">
        <ele>2.06</ele>
        <time>2016-08-28T16:24:28Z</time>
      </trkpt>
      <trkpt lat="46.2116" lon="-1.45046">
        <ele>7.83</ele>
        <time>2016-08-28T16:24:34Z</time>
      </trkpt>
      <trkpt lat="46.2116" lon="-1.45046">
        <ele>17.44</ele>
        <time>2016-08-28T16:24:36Z</time>
      </trkpt>
      <trkpt lat="46.2116" lon="-1.45046">
        <ele>15.52</ele>
        <time>2016-08-28T16:24:37Z</time>
      </trkpt>
      <trkpt lat="46.2116" lon="-1.45046">
        <ele>2.54</ele>
        <time>2016-08-28T16:24:39Z</time>
      </trkpt>
      <trkpt lat="46.2116" lon="-1.45046">
        <ele>-1.79</ele>
        <time>2016-08-28T16:24:42Z</time>
      </trkpt>
      <trkpt lat="46.2116" lon="-1.45046">
        <ele>2.06</ele>
        <time>2016-08-28T16:24:43Z</time>
      </trkpt>
      <trkpt lat="46.2116" lon="-1.45046">
        <ele>-2.27</ele>
        <time>2016-08-28T16:24:45Z</time>
      </trkpt>
      <trkpt lat="46.2116" lon="-1.45046">
        <ele>3.02</ele>
        <time>2016-08-28T16:24:46Z</time>
      </trkpt>
      <trkpt lat="46.2116" lon="-1.45046">
        <ele>-9</ele>
        <time>2016-08-28T16:24:47Z</time>
      </trkpt>
      <trkpt lat="46.2116" lon="-1.45046">
        <ele>3.98</ele>
        <time>2016-08-28T16:24:49Z</time>
      </trkpt>
      <trkpt lat="46.2116" lon="-1.45046">
        <ele>7.35</ele>
        <time>2016-08-28T16:24:50Z</time>
      </trkpt>
      <trkpt lat="46.2116" lon="-1.45046">
        <ele>4.94</ele>
        <time>2016-08-28T16:24:51Z</time>
      </trkpt>
      <trkpt lat="46.2116" lon="-1.45046">
        <ele>2.06</ele>
        <time>2016-08-28T16:24:52Z</time>
      </trkpt>
      <trkpt lat="46.2116" lon="-1.45046">
        <ele>2.54</ele>
        <time>2016-08-28T16:24:53Z</time>
      </trkpt>
      <trkpt lat="46.2116" lon="-1.45042">
        <ele>1.58</ele>
        <time>2016-08-28T16:24:55Z</time>
      </trkpt>
      <trkpt lat="46.2116" lon="-1.4504">
        <ele>1.58</ele>
        <time>2016-08-28T16:24:56Z</time>
      </trkpt>
      <trkpt lat="46.21159" lon="-1.45037">
        <ele>2.06</ele>
        <time>2016-08-28T16:24:57Z</time>
      </trkpt>
      <trkpt lat="46.21157" lon="-1.45035">
        <ele>2.54</ele>
        <time>2016-08-28T16:24:58Z</time>
      </trkpt>
      <trkpt lat="46.21156" lon="-1.45033">
        <ele>2.06</ele>
        <time>2016-08-28T16:24:59Z</time>
      </trkpt>
      <trkpt lat="46.2113" lon="-1.45004">
        <ele>2.54</ele>
        <time>2016-08-28T16:25:10Z</time>
      </trkpt>
      <trkpt lat="46.21109" lon="-1.4499">
        <ele>2.06</ele>
        <time>2016-08-28T16:25:16Z</time>
      </trkpt>
      <trkpt lat="46.21101" lon="-1.44988">
        <ele>3.02</ele>
        <time>2016-08-28T16:25:18Z</time>
      </trkpt>
      <trkpt lat="46.21045" lon="-1.44984">
        <ele>2.06</ele>
        <time>2016-08-28T16:25:31Z</time>
      </trkpt>
      <trkpt lat="46.21028" lon="-1.4498">
        <ele>1.58</ele>
        <time>2016-08-28T16:25:35Z</time>
      </trkpt>
      <trkpt lat="46.20977" lon="-1.44961">
        <ele>3.02</ele>
        <time>2016-08-28T16:25:47Z</time>
      </trkpt>
      <trkpt lat="46.2093" lon="-1.44953">
        <ele>1.58</ele>
        <time>2016-08-28T16:25:58Z</time>
      </trkpt>
      <trkpt lat="46.20919" lon="-1.44947">
        <ele>1.58</ele>
        <time>2016-08-28T16:26:01Z</time>
      </trkpt>
      <trkpt lat="46.20915" lon="-1.44944">
        <ele>1.58</ele>
        <time>2016-08-28T16:26:02Z</time>
      </trkpt>
      <trkpt lat="46.20912" lon="-1.4494">
        <ele>2.06</ele>
        <time>2016-08-28T16:26:03Z</time>
      </trkpt>
      <trkpt lat="46.20909" lon="-1.44936">
        <ele>1.58</ele>
        <time>2016-08-28T16:26:04Z</time>
      </trkpt>
      <trkpt lat="46.20906" lon="-1.44931">
        <ele>1.58</ele>
        <time>2016-08-28T16:26:05Z</time>
      </trkpt>
      <trkpt lat="46.20904" lon="-1.44927">
        <ele>1.58</ele>
        <time>2016-08-28T16:26:06Z</time>
      </trkpt>
      <trkpt lat="46.20901" lon="-1.44923">
        <ele>2.06</ele>
        <time>2016-08-28T16:26:07Z</time>
      </trkpt>
      <trkpt lat="46.2087" lon="-1.44861">
        <ele>1.58</ele>
        <time>2016-08-28T16:26:19Z</time>
      </trkpt>
      <trkpt lat="46.20861" lon="-1.44846">
        <ele>1.1</ele>
        <time>2016-08-28T16:26:22Z</time>
      </trkpt>
      <trkpt lat="46.20858" lon="-1.44842">
        <ele>1.58</ele>
        <time>2016-08-28T16:26:23Z</time>
      </trkpt>
      <trkpt lat="46.20854" lon="-1.4484">
        <ele>1.1</ele>
        <time>2016-08-28T16:26:24Z</time>
      </trkpt>
      <trkpt lat="46.2085" lon="-1.44838">
        <ele>1.58</ele>
        <time>2016-08-28T16:26:25Z</time>
      </trkpt>
      <trkpt lat="46.20846" lon="-1.44838">
        <ele>1.1</ele>
        <time>2016-08-28T16:26:26Z</time>
      </trkpt>
      <trkpt lat="46.20841" lon="-1.4484">
        <ele>1.58</ele>
        <time>2016-08-28T16:26:27Z</time>
      </trkpt>
      <trkpt lat="46.20837" lon="-1.44843">
        <ele>1.1</ele>
        <time>2016-08-28T16:26:28Z</time>
      </trkpt>
      <trkpt lat="46.20834" lon="-1.44847">
        <ele>1.1</ele>
        <time>2016-08-28T16:26:29Z</time>
      </trkpt>
      <trkpt lat="46.2083" lon="-1.44851">
        <ele>1.1</ele>
        <time>2016-08-28T16:26:30Z</time>
      </trkpt>
      <trkpt lat="46.20826" lon="-1.44854">
        <ele>0.14</ele>
        <time>2016-08-28T16:26:31Z</time>
      </trkpt>
      <trkpt lat="46.20823" lon="-1.44857">
        <ele>3.5</ele>
        <time>2016-08-28T16:26:32Z</time>
      </trkpt>
      <trkpt lat="46.20819" lon="-1.4486">
        <ele>1.1</ele>
        <time>2016-08-28T16:26:33Z</time>
      </trkpt>
      <trkpt lat="46.20815" lon="-1.44862">
        <ele>1.1</ele>
        <time>2016-08-28T16:26:34Z</time>
      </trkpt>
      <trkpt lat="46.20796" lon="-1.4487">
        <ele>1.58</ele>
        <time>2016-08-28T16:26:42Z</time>
      </trkpt>
      <trkpt lat="46.20796" lon="-1.4487">
        <ele>-4.19</ele>
        <time>2016-08-28T16:26:47Z</time>
      </trkpt>
      <trkpt lat="46.20796" lon="-1.4487">
        <ele>7.83</ele>
        <time>2016-08-28T16:26:48Z</time>
      </trkpt>
      <trkpt lat="46.20796" lon="-1.4487">
        <ele>1.58</ele>
        <time>2016-08-28T16:26:49Z</time>
      </trkpt>
      <trkpt lat="46.20796" lon="-1.4487">
        <ele>7.83</ele>
        <time>2016-08-28T16:26:51Z</time>
      </trkpt>
      <trkpt lat="46.20796" lon="-1.4487">
        <ele>5.42</ele>
        <time>2016-08-28T16:26:52Z</time>
      </trkpt>
      <trkpt lat="46.20796" lon="-1.4487">
        <ele>14.56</ele>
        <time>2016-08-28T16:26:53Z</time>
      </trkpt>
      <trkpt lat="46.20796" lon="-1.4487">
        <ele>2.06</ele>
        <time>2016-08-28T16:26:54Z</time>
      </trkpt>
      <trkpt lat="46.20796" lon="-1.4487">
        <ele>-4.67</ele>
        <time>2016-08-28T16:27:01Z</time>
      </trkpt>
      <trkpt lat="46.20796" lon="-1.4487">
        <ele>5.42</ele>
        <time>2016-08-28T16:27:02Z</time>
      </trkpt>
      <trkpt lat="46.20796" lon="-1.4487">
        <ele>12.15</ele>
        <time>2016-08-28T16:27:03Z</time>
      </trkpt>
      <trkpt lat="46.20796" lon="-1.4487">
        <ele>-4.67</ele>
        <time>2016-08-28T16:27:04Z</time>
      </trkpt>
      <trkpt lat="46.20796" lon="-1.4487">
        <ele>1.58</ele>
        <time>2016-08-28T16:27:05Z</time>
      </trkpt>
      <trkpt lat="46.20796" lon="-1.4487">
        <ele>-6.11</ele>
        <time>2016-08-28T16:27:07Z</time>
      </trkpt>
      <trkpt lat="46.20796" lon="-1.4487">
        <ele>3.5</ele>
        <time>2016-08-28T16:27:08Z</time>
      </trkpt>
      <trkpt lat="46.20796" lon="-1.4487">
        <ele>3.5</ele>
        <time>2016-08-28T16:27:09Z</time>
      </trkpt>
      <trkpt lat="46.20796" lon="-1.4487">
        <ele>9.75</ele>
        <time>2016-08-28T16:27:10Z</time>
      </trkpt>
      <trkpt lat="46.20796" lon="-1.4487">
        <ele>-1.79</ele>
        <time>2016-08-28T16:27:11Z</time>
      </trkpt>
      <trkpt lat="46.20796" lon="-1.4487">
        <ele>2.06</ele>
        <time>2016-08-28T16:27:12Z</time>
      </trkpt>
      <trkpt lat="46.20796" lon="-1.4487">
        <ele>6.87</ele>
        <time>2016-08-28T16:27:14Z</time>
      </trkpt>
      <trkpt lat="46.20796" lon="-1.4487">
        <ele>2.06</ele>
        <time>2016-08-28T16:27:15Z</time>
      </trkpt>
      <trkpt lat="46.20796" lon="-1.4487">
        <ele>-7.55</ele>
        <time>2016-08-28T16:27:17Z</time>
      </trkpt>
      <trkpt lat="46.20796" lon="-1.4487">
        <ele>3.5</ele>
        <time>2016-08-28T16:27:18Z</time>
      </trkpt>
      <trkpt lat="46.20796" lon="-1.4487">
        <ele>-1.3</ele>
        <time>2016-08-28T16:27:26Z</time>
      </trkpt>
      <trkpt lat="46.20796" lon="-1.4487">
        <ele>2.54</ele>
        <time>2016-08-28T16:27:27Z</time>
      </trkpt>
      <trkpt lat="46.20786" lon="-1.44879">
        <ele>1.1</ele>
        <time>2016-08-28T16:27:37Z</time>
      </trkpt>
      <trkpt lat="46.20749" lon="-1.44914">
        <ele>1.1</ele>
        <time>2016-08-28T16:27:48Z</time>
      </trkpt>
      <trkpt lat="46.20709" lon="-1.44953">
        <ele>1.1</ele>
        <time>2016-08-28T16:28:00Z</time>
      </trkpt>
      <trkpt lat="46.2069" lon="-1.44955">
        <ele>1.1</ele>
        <time>2016-08-28T16:28:07Z</time>
      </trkpt>
      <trkpt lat="46.2066" lon="-1.44918">
        <ele>1.1</ele>
        <time>2016-08-28T16:28:18Z</time>
      </trkpt>
      <trkpt lat="46.20657" lon="-1.44913">
        <ele>1.58</ele>
        <time>2016-08-28T16:28:19Z</time>
      </trkpt>
      <trkpt lat="46.20654" lon="-1.44909">
        <ele>1.58</ele>
        <time>2016-08-28T16:28:20Z</time>
      </trkpt>
      <trkpt lat="46.20616" lon="-1.4485">
        <ele>2.06</ele>
        <time>2016-08-28T16:28:32Z</time>
      </trkpt>
      <trkpt lat="46.20573" lon="-1.44792">
        <ele>1.1</ele>
        <time>2016-08-28T16:28:44Z</time>
      </trkpt>
      <trkpt lat="46.20536" lon="-1.44743">
        <ele>1.1</ele>
        <time>2016-08-28T16:28:54Z</time>
      </trkpt>
      <trkpt lat="46.20494" lon="-1.44696">
        <ele>1.1</ele>
        <time>2016-08-28T16:29:05Z</time>
      </trkpt>
      <trkpt lat="46.2049" lon="-1.44694">
        <ele>1.58</ele>
        <time>2016-08-28T16:29:06Z</time>
      </trkpt>
      <trkpt lat="46.20485" lon="-1.44692">
        <ele>1.1</ele>
        <time>2016-08-28T16:29:07Z</time>
      </trkpt>
      <trkpt lat="46.20455" lon="-1.44684">
        <ele>1.58</ele>
        <time>2016-08-28T16:29:14Z</time>
      </trkpt>
      <trkpt lat="46.20451" lon="-1.44681">
        <ele>1.58</ele>
        <time>2016-08-28T16:29:15Z</time>
      </trkpt>
      <trkpt lat="46.20439" lon="-1.44676">
        <ele>1.58</ele>
        <time>2016-08-28T16:29:19Z</time>
      </trkpt>
      <trkpt lat="46.20437" lon="-1.44677">
        <ele>2.06</ele>
        <time>2016-08-28T16:29:20Z</time>
      </trkpt>
      <trkpt lat="46.20434" lon="-1.4468">
        <ele>2.06</ele>
        <time>2016-08-28T16:29:21Z</time>
      </trkpt>
      <trkpt lat="46.20431" lon="-1.44683">
        <ele>1.58</ele>
        <time>2016-08-28T16:29:22Z</time>
      </trkpt>
      <trkpt lat="46.20429" lon="-1.44686">
        <ele>1.58</ele>
        <time>2016-08-28T16:29:23Z</time>
      </trkpt>
      <trkpt lat="46.20414" lon="-1.44704">
        <ele>2.06</ele>
        <time>2016-08-28T16:29:28Z</time>
      </trkpt>
      <trkpt lat="46.20408" lon="-1.44713">
        <ele>2.06</ele>
        <time>2016-08-28T16:29:30Z</time>
      </trkpt>
      <trkpt lat="46.204" lon="-1.44727">
        <ele>2.06</ele>
        <time>2016-08-28T16:29:33Z</time>
      </trkpt>
      <trkpt lat="46.20396" lon="-1.44731">
        <ele>2.06</ele>
        <time>2016-08-28T16:29:34Z</time>
      </trkpt>
      <trkpt lat="46.20392" lon="-1.44734">
        <ele>2.06</ele>
        <time>2016-08-28T16:29:35Z</time>
      </trkpt>
      <trkpt lat="46.20388" lon="-1.44736">
        <ele>2.06</ele>
        <time>2016-08-28T16:29:36Z</time>
      </trkpt>
      <trkpt lat="46.20384" lon="-1.44737">
        <ele>2.06</ele>
        <time>2016-08-28T16:29:37Z</time>
      </trkpt>
      <trkpt lat="46.2038" lon="-1.44737">
        <ele>2.06</ele>
        <time>2016-08-28T16:29:38Z</time>
      </trkpt>
      <trkpt lat="46.20329" lon="-1.44739">
        <ele>2.54</ele>
        <time>2016-08-28T16:29:49Z</time>
      </trkpt>
      <trkpt lat="46.2031" lon="-1.44741">
        <ele>2.54</ele>
        <time>2016-08-28T16:29:53Z</time>
      </trkpt>
      <trkpt lat="46.20306" lon="-1.4474">
        <ele>2.06</ele>
        <time>2016-08-28T16:29:54Z</time>
      </trkpt>
      <trkpt lat="46.20271" lon="-1.44746">
        <ele>2.06</ele>
        <time>2016-08-28T16:30:01Z</time>
      </trkpt>
      <trkpt lat="46.20266" lon="-1.44748">
        <ele>3.02</ele>
        <time>2016-08-28T16:30:02Z</time>
      </trkpt>
      <trkpt lat="46.20244" lon="-1.44758">
        <ele>2.54</ele>
        <time>2016-08-28T16:30:07Z</time>
      </trkpt>
      <trkpt lat="46.20239" lon="-1.44761">
        <ele>2.54</ele>
        <time>2016-08-28T16:30:08Z</time>
      </trkpt>
      <trkpt lat="46.20231" lon="-1.44767">
        <ele>2.54</ele>
        <time>2016-08-28T16:30:10Z</time>
      </trkpt>
      <trkpt lat="46.2019" lon="-1.44798">
        <ele>2.06</ele>
        <time>2016-08-28T16:30:21Z</time>
      </trkpt>
      <trkpt lat="46.20184" lon="-1.44803">
        <ele>3.02</ele>
        <time>2016-08-28T16:30:25Z</time>
      </trkpt>
      <trkpt lat="46.20182" lon="-1.44805">
        <ele>2.54</ele>
        <time>2016-08-28T16:30:26Z</time>
      </trkpt>
      <trkpt lat="46.2018" lon="-1.44807">
        <ele>2.54</ele>
        <time>2016-08-28T16:30:27Z</time>
      </trkpt>
      <trkpt lat="46.20149" lon="-1.44826">
        <ele>2.54</ele>
        <time>2016-08-28T16:30:37Z</time>
      </trkpt>
      <trkpt lat="46.20115" lon="-1.44853">
        <ele>2.54</ele>
        <time>2016-08-28T16:30:47Z</time>
      </trkpt>
      <trkpt lat="46.20111" lon="-1.44856">
        <ele>2.06</ele>
        <time>2016-08-28T16:30:48Z</time>
      </trkpt>
      <trkpt lat="46.20107" lon="-1.4486">
        <ele>2.54</ele>
        <time>2016-08-28T16:30:49Z</time>
      </trkpt>
      <trkpt lat="46.20103" lon="-1.44863">
        <ele>2.54</ele>
        <time>2016-08-28T16:30:50Z</time>
      </trkpt>
      <trkpt lat="46.20085" lon="-1.44877">
        <ele>2.06</ele>
        <time>2016-08-28T16:30:54Z</time>
      </trkpt>
      <trkpt lat="46.20081" lon="-1.44881">
        <ele>2.06</ele>
        <time>2016-08-28T16:30:55Z</time>
      </trkpt>
      <trkpt lat="46.20076" lon="-1.44883">
        <ele>2.06</ele>
        <time>2016-08-28T16:30:56Z</time>
      </trkpt>
      <trkpt lat="46.20072" lon="-1.44885">
        <ele>2.54</ele>
        <time>2016-08-28T16:30:57Z</time>
      </trkpt>
      <trkpt lat="46.20067" lon="-1.44884">
        <ele>2.54</ele>
        <time>2016-08-28T16:30:58Z</time>
      </trkpt>
      <trkpt lat="46.20064" lon="-1.44881">
        <ele>2.06</ele>
        <time>2016-08-28T16:30:59Z</time>
      </trkpt>
      <trkpt lat="46.2006" lon="-1.44877">
        <ele>2.54</ele>
        <time>2016-08-28T16:31:00Z</time>
      </trkpt>
      <trkpt lat="46.20056" lon="-1.44874">
        <ele>2.54</ele>
        <time>2016-08-28T16:31:01Z</time>
      </trkpt>
      <trkpt lat="46.20052" lon="-1.44871">
        <ele>2.06</ele>
        <time>2016-08-28T16:31:02Z</time>
      </trkpt>
      <trkpt lat="46.20021" lon="-1.4483">
        <ele>2.54</ele>
        <time>2016-08-28T16:31:11Z</time>
      </trkpt>
      <trkpt lat="46.20018" lon="-1.44825">
        <ele>3.02</ele>
        <time>2016-08-28T16:31:12Z</time>
      </trkpt>
      <trkpt lat="46.20016" lon="-1.44819">
        <ele>2.54</ele>
        <time>2016-08-28T16:31:13Z</time>
      </trkpt>
      <trkpt lat="46.2001" lon="-1.44801">
        <ele>2.06</ele>
        <time>2016-08-28T16:31:16Z</time>
      </trkpt>
      <trkpt lat="46.20005" lon="-1.44789">
        <ele>2.54</ele>
        <time>2016-08-28T16:31:18Z</time>
      </trkpt>
      <trkpt lat="46.20003" lon="-1.44783">
        <ele>0.14</ele>
        <time>2016-08-28T16:31:19Z</time>
      </trkpt>
      <trkpt lat="46.19997" lon="-1.44764">
        <ele>3.02</ele>
        <time>2016-08-28T16:31:22Z</time>
      </trkpt>
      <trkpt lat="46.19995" lon="-1.44758">
        <ele>2.06</ele>
        <time>2016-08-28T16:31:23Z</time>
      </trkpt>
      <trkpt lat="46.19994" lon="-1.44751">
        <ele>2.54</ele>
        <time>2016-08-28T16:31:24Z</time>
      </trkpt>
      <trkpt lat="46.19992" lon="-1.44745">
        <ele>2.54</ele>
        <time>2016-08-28T16:31:25Z</time>
      </trkpt>
      <trkpt lat="46.19989" lon="-1.44739">
        <ele>2.06</ele>
        <time>2016-08-28T16:31:26Z</time>
      </trkpt>
      <trkpt lat="46.19987" lon="-1.44733">
        <ele>2.06</ele>
        <time>2016-08-28T16:31:27Z</time>
      </trkpt>
      <trkpt lat="46.19976" lon="-1.44711">
        <ele>2.54</ele>
        <time>2016-08-28T16:31:31Z</time>
      </trkpt>
      <trkpt lat="46.19973" lon="-1.44706">
        <ele>2.54</ele>
        <time>2016-08-28T16:31:32Z</time>
      </trkpt>
      <trkpt lat="46.1997" lon="-1.44701">
        <ele>2.54</ele>
        <time>2016-08-28T16:31:33Z</time>
      </trkpt>
      <trkpt lat="46.19936" lon="-1.44639">
        <ele>2.54</ele>
        <time>2016-08-28T16:31:44Z</time>
      </trkpt>
      <trkpt lat="46.19931" lon="-1.44628">
        <ele>2.06</ele>
        <time>2016-08-28T16:31:46Z</time>
      </trkpt>
      <trkpt lat="46.19927" lon="-1.44617">
        <ele>2.06</ele>
        <time>2016-08-28T16:31:48Z</time>
      </trkpt>
      <trkpt lat="46.19921" lon="-1.44606">
        <ele>2.06</ele>
        <time>2016-08-28T16:31:50Z</time>
      </trkpt>
      <trkpt lat="46.19918" lon="-1.446">
        <ele>2.54</ele>
        <time>2016-08-28T16:31:51Z</time>
      </trkpt>
      <trkpt lat="46.19902" lon="-1.44568">
        <ele>2.06</ele>
        <time>2016-08-28T16:31:57Z</time>
      </trkpt>
      <trkpt lat="46.199" lon="-1.44562">
        <ele>2.54</ele>
        <time>2016-08-28T16:31:58Z</time>
      </trkpt>
      <trkpt lat="46.19875" lon="-1.4451">
        <ele>2.06</ele>
        <time>2016-08-28T16:32:07Z</time>
      </trkpt>
      <trkpt lat="46.19873" lon="-1.44506">
        <ele>2.06</ele>
        <time>2016-08-28T16:32:08Z</time>
      </trkpt>
      <trkpt lat="46.19853" lon="-1.4447">
        <ele>2.54</ele>
        <time>2016-08-28T16:32:15Z</time>
      </trkpt>
      <trkpt lat="46.19851" lon="-1.44464">
        <ele>2.54</ele>
        <time>2016-08-28T16:32:16Z</time>
      </trkpt>
      <trkpt lat="46.19835" lon="-1.44434">
        <ele>3.02</ele>
        <time>2016-08-28T16:32:22Z</time>
      </trkpt>
      <trkpt lat="46.19832" lon="-1.44429">
        <ele>2.06</ele>
        <time>2016-08-28T16:32:23Z</time>
      </trkpt>
      <trkpt lat="46.19829" lon="-1.44423">
        <ele>2.54</ele>
        <time>2016-08-28T16:32:24Z</time>
      </trkpt>
      <trkpt lat="46.19827" lon="-1.44418">
        <ele>2.54</ele>
        <time>2016-08-28T16:32:25Z</time>
      </trkpt>
      <trkpt lat="46.19824" lon="-1.44412">
        <ele>2.06</ele>
        <time>2016-08-28T16:32:26Z</time>
      </trkpt>
      <trkpt lat="46.19821" lon="-1.44407">
        <ele>2.06</ele>
        <time>2016-08-28T16:32:27Z</time>
      </trkpt>
      <trkpt lat="46.19799" lon="-1.44353">
        <ele>2.54</ele>
        <time>2016-08-28T16:32:36Z</time>
      </trkpt>
      <trkpt lat="46.19796" lon="-1.44348">
        <ele>2.06</ele>
        <time>2016-08-28T16:32:37Z</time>
      </trkpt>
      <trkpt lat="46.19793" lon="-1.44343">
        <ele>2.06</ele>
        <time>2016-08-28T16:32:38Z</time>
      </trkpt>
      <trkpt lat="46.19776" lon="-1.44317">
        <ele>2.06</ele>
        <time>2016-08-28T16:32:44Z</time>
      </trkpt>
      <trkpt lat="46.19773" lon="-1.44313">
        <ele>2.06</ele>
        <time>2016-08-28T16:32:45Z</time>
      </trkpt>
      <trkpt lat="46.19747" lon="-1.44276">
        <ele>2.54</ele>
        <time>2016-08-28T16:32:54Z</time>
      </trkpt>
      <trkpt lat="46.19737" lon="-1.44266">
        <ele>2.54</ele>
        <time>2016-08-28T16:32:57Z</time>
      </trkpt>
      <trkpt lat="46.19731" lon="-1.44256">
        <ele>2.06</ele>
        <time>2016-08-28T16:32:59Z</time>
      </trkpt>
      <trkpt lat="46.19727" lon="-1.44252">
        <ele>2.06</ele>
        <time>2016-08-28T16:33:00Z</time>
      </trkpt>
      <trkpt lat="46.19713" lon="-1.44236">
        <ele>2.06</ele>
        <time>2016-08-28T16:33:04Z</time>
      </trkpt>
      <trkpt lat="46.19709" lon="-1.44232">
        <ele>2.54</ele>
        <time>2016-08-28T16:33:05Z</time>
      </trkpt>
      <trkpt lat="46.1969" lon="-1.44211">
        <ele>2.06</ele>
        <time>2016-08-28T16:33:10Z</time>
      </trkpt>
      <trkpt lat="46.19673" lon="-1.44186">
        <ele>2.06</ele>
        <time>2016-08-28T16:33:15Z</time>
      </trkpt>
      <trkpt lat="46.19656" lon="-1.44151">
        <ele>1.58</ele>
        <time>2016-08-28T16:33:22Z</time>
      </trkpt>
      <trkpt lat="46.19641" lon="-1.44114">
        <ele>4.94</ele>
        <time>2016-08-28T16:33:29Z</time>
      </trkpt>
      <trkpt lat="46.19637" lon="-1.44103">
        <ele>-17.65</ele>
        <time>2016-08-28T16:33:31Z</time>
      </trkpt>
      <trkpt lat="46.19635" lon="-1.44098">
        <ele>4.46</ele>
        <time>2016-08-28T16:33:32Z</time>
      </trkpt>
      <trkpt lat="46.19633" lon="-1.44092">
        <ele>2.54</ele>
        <time>2016-08-28T16:33:33Z</time>
      </trkpt>
      <trkpt lat="46.19616" lon="-1.44023">
        <ele>2.06</ele>
        <time>2016-08-28T16:33:44Z</time>
      </trkpt>
      <trkpt lat="46.19598" lon="-1.43941">
        <ele>2.06</ele>
        <time>2016-08-28T16:33:56Z</time>
      </trkpt>
      <trkpt lat="46.19586" lon="-1.43887">
        <ele>2.54</ele>
        <time>2016-08-28T16:34:04Z</time>
      </trkpt>
      <trkpt lat="46.19573" lon="-1.43832">
        <ele>2.06</ele>
        <time>2016-08-28T16:34:14Z</time>
      </trkpt>
      <trkpt lat="46.19571" lon="-1.43827">
        <ele>2.54</ele>
        <time>2016-08-28T16:34:15Z</time>
      </trkpt>
      <trkpt lat="46.19547" lon="-1.43744">
        <ele>2.54</ele>
        <time>2016-08-28T16:34:29Z</time>
      </trkpt>
      <trkpt lat="46.19539" lon="-1.43718">
        <ele>2.06</ele>
        <time>2016-08-28T16:34:33Z</time>
      </trkpt>
      <trkpt lat="46.19538" lon="-1.43712">
        <ele>2.06</ele>
        <time>2016-08-28T16:34:34Z</time>
      </trkpt>
      <trkpt lat="46.19519" lon="-1.43636">
        <ele>2.54</ele>
        <time>2016-08-28T16:34:46Z</time>
      </trkpt>
      <trkpt lat="46.19497" lon="-1.43562">
        <ele>2.54</ele>
        <time>2016-08-28T16:34:58Z</time>
      </trkpt>
      <trkpt lat="46.19475" lon="-1.43478">
        <ele>2.06</ele>
        <time>2016-08-28T16:35:11Z</time>
      </trkpt>
      <trkpt lat="46.19454" lon="-1.43402">
        <ele>1.58</ele>
        <time>2016-08-28T16:35:23Z</time>
      </trkpt>
      <trkpt lat="46.19438" lon="-1.43361">
        <ele>2.06</ele>
        <time>2016-08-28T16:35:32Z</time>
      </trkpt>
      <trkpt lat="46.19436" lon="-1.43362">
        <ele>2.06</ele>
        <time>2016-08-28T16:35:33Z</time>
      </trkpt>
      <trkpt lat="46.19436" lon="-1.43363">
        <ele>2.54</ele>
        <time>2016-08-28T16:35:40Z</time>
      </trkpt>
      <trkpt lat="46.19436" lon="-1.43363">
        <ele>-5.63</ele>
        <time>2016-08-28T16:35:41Z</time>
      </trkpt>
      <trkpt lat="46.19435" lon="-1.43363">
        <ele>3.5</ele>
        <time>2016-08-28T16:35:42Z</time>
      </trkpt>
      <trkpt lat="46.19435" lon="-1.43363">
        <ele>11.67</ele>
        <time>2016-08-28T16:35:43Z</time>
      </trkpt>
      <trkpt lat="46.19435" lon="-1.43363">
        <ele>2.54</ele>
        <time>2016-08-28T16:35:44Z</time>
      </trkpt>
      <trkpt lat="46.19435" lon="-1.43363">
        <ele>-9</ele>
        <time>2016-08-28T16:35:46Z</time>
      </trkpt>
      <trkpt lat="46.19435" lon="-1.43363">
        <ele>3.98</ele>
        <time>2016-08-28T16:35:47Z</time>
      </trkpt>
      <trkpt lat="46.19435" lon="-1.43363">
        <ele>9.27</ele>
        <time>2016-08-28T16:35:48Z</time>
      </trkpt>
      <trkpt lat="46.19435" lon="-1.43363">
        <ele>-3.71</ele>
        <time>2016-08-28T16:35:49Z</time>
      </trkpt>
      <trkpt lat="46.19435" lon="-1.43363">
        <ele>4.46</ele>
        <time>2016-08-28T16:35:50Z</time>
      </trkpt>
      <trkpt lat="46.19435" lon="-1.43363">
        <ele>8.79</ele>
        <time>2016-08-28T16:35:51Z</time>
      </trkpt>
      <trkpt lat="46.19435" lon="-1.43363">
        <ele>2.54</ele>
        <time>2016-08-28T16:35:52Z</time>
      </trkpt>
      <trkpt lat="46.19435" lon="-1.43363">
        <ele>2.54</ele>
        <time>2016-08-28T16:35:53Z</time>
      </trkpt>
      <trkpt lat="46.19435" lon="-1.43363">
        <ele>-3.23</ele>
        <time>2016-08-28T16:35:54Z</time>
      </trkpt>
      <trkpt lat="46.19435" lon="-1.43363">
        <ele>8.31</ele>
        <time>2016-08-28T16:35:55Z</time>
      </trkpt>
      <trkpt lat="46.19435" lon="-1.43363">
        <ele>7.35</ele>
        <time>2016-08-28T16:35:56Z</time>
      </trkpt>
      <trkpt lat="46.19435" lon="-1.43363">
        <ele>11.19</ele>
        <time>2016-08-28T16:35:57Z</time>
      </trkpt>
      <trkpt lat="46.19435" lon="-1.43363">
        <ele>-0.34</ele>
        <time>2016-08-28T16:35:58Z</time>
      </trkpt>
      <trkpt lat="46.19435" lon="-1.43362">
        <ele>3.5</ele>
        <time>2016-08-28T16:35:59Z</time>
      </trkpt>
      <trkpt lat="46.19435" lon="-1.43362">
        <ele>0.14</ele>
        <time>2016-08-28T16:36:00Z</time>
      </trkpt>
      <trkpt lat="46.19435" lon="-1.43362">
        <ele>3.02</ele>
        <time>2016-08-28T16:36:01Z</time>
      </trkpt>
      <trkpt lat="46.19435" lon="-1.43362">
        <ele>6.87</ele>
        <time>2016-08-28T16:36:02Z</time>
      </trkpt>
      <trkpt lat="46.19435" lon="-1.43362">
        <ele>2.06</ele>
        <time>2016-08-28T16:36:03Z</time>
      </trkpt>
      <trkpt lat="46.19432" lon="-1.4336">
        <ele>3.5</ele>
        <time>2016-08-28T16:36:20Z</time>
      </trkpt>
      <trkpt lat="46.19431" lon="-1.4336">
        <ele>3.02</ele>
        <time>2016-08-28T16:36:21Z</time>
      </trkpt>
      <trkpt lat="46.19429" lon="-1.43358">
        <ele>2.54</ele>
        <time>2016-08-28T16:36:22Z</time>
      </trkpt>
      <trkpt lat="46.19427" lon="-1.43358">
        <ele>3.02</ele>
        <time>2016-08-28T16:36:23Z</time>
      </trkpt>
      <trkpt lat="46.19425" lon="-1.43358">
        <ele>3.02</ele>
        <time>2016-08-28T16:36:24Z</time>
      </trkpt>
      <trkpt lat="46.19422" lon="-1.43359">
        <ele>3.02</ele>
        <time>2016-08-28T16:36:25Z</time>
      </trkpt>
      <trkpt lat="46.19418" lon="-1.43358">
        <ele>2.54</ele>
        <time>2016-08-28T16:36:26Z</time>
      </trkpt>
      <trkpt lat="46.19415" lon="-1.43358">
        <ele>2.54</ele>
        <time>2016-08-28T16:36:27Z</time>
      </trkpt>
      <trkpt lat="46.19388" lon="-1.43347">
        <ele>2.54</ele>
        <time>2016-08-28T16:36:34Z</time>
      </trkpt>
      <trkpt lat="46.19384" lon="-1.43344">
        <ele>2.06</ele>
        <time>2016-08-28T16:36:35Z</time>
      </trkpt>
      <trkpt lat="46.19381" lon="-1.43341">
        <ele>3.02</ele>
        <time>2016-08-28T16:36:36Z</time>
      </trkpt>
      <trkpt lat="46.19366" lon="-1.43324">
        <ele>2.54</ele>
        <time>2016-08-28T16:36:40Z</time>
      </trkpt>
      <trkpt lat="46.19363" lon="-1.43319">
        <ele>2.54</ele>
        <time>2016-08-28T16:36:41Z</time>
      </trkpt>
      <trkpt lat="46.19353" lon="-1.43302">
        <ele>2.54</ele>
        <time>2016-08-28T16:36:44Z</time>
      </trkpt>
      <trkpt lat="46.19339" lon="-1.43264">
        <ele>3.02</ele>
        <time>2016-08-28T16:36:50Z</time>
      </trkpt>
      <trkpt lat="46.19333" lon="-1.43244">
        <ele>3.02</ele>
        <time>2016-08-28T16:36:54Z</time>
      </trkpt>
      <trkpt lat="46.19331" lon="-1.43243">
        <ele>3.02</ele>
        <time>2016-08-28T16:36:55Z</time>
      </trkpt>
      <trkpt lat="46.19329" lon="-1.43244">
        <ele>3.02</ele>
        <time>2016-08-28T16:36:56Z</time>
      </trkpt>
      <trkpt lat="46.19326" lon="-1.43245">
        <ele>3.02</ele>
        <time>2016-08-28T16:36:57Z</time>
      </trkpt>
      <trkpt lat="46.19324" lon="-1.43247">
        <ele>2.54</ele>
        <time>2016-08-28T16:36:58Z</time>
      </trkpt>
      <trkpt lat="46.19322" lon="-1.4325">
        <ele>2.54</ele>
        <time>2016-08-28T16:36:59Z</time>
      </trkpt>
      <trkpt lat="46.19319" lon="-1.43254">
        <ele>1.58</ele>
        <time>2016-08-28T16:37:00Z</time>
      </trkpt>
      <trkpt lat="46.19278" lon="-1.4331">
        <ele>3.98</ele>
        <time>2016-08-28T16:37:15Z</time>
      </trkpt>
      <trkpt lat="46.19261" lon="-1.43339">
        <ele>4.46</ele>
        <time>2016-08-28T16:37:24Z</time>
      </trkpt>
      <trkpt lat="46.19258" lon="-1.43344">
        <ele>4.46</ele>
        <time>2016-08-28T16:37:27Z</time>
      </trkpt>
      <trkpt lat="46.19258" lon="-1.43346">
        <ele>3.98</ele>
        <time>2016-08-28T16:37:28Z</time>
      </trkpt>
      <trkpt lat="46.19257" lon="-1.43349">
        <ele>3.98</ele>
        <time>2016-08-28T16:37:29Z</time>
      </trkpt>
      <trkpt lat="46.19256" lon="-1.43351">
        <ele>3.98</ele>
        <time>2016-08-28T16:37:30Z</time>
      </trkpt>
      <trkpt lat="46.19254" lon="-1.43353">
        <ele>3.5</ele>
        <time>2016-08-28T16:37:31Z</time>
      </trkpt>
      <trkpt lat="46.19252" lon="-1.43358">
        <ele>4.46</ele>
        <time>2016-08-28T16:37:34Z</time>
      </trkpt>
      <trkpt lat="46.1925" lon="-1.43359">
        <ele>4.46</ele>
        <time>2016-08-28T16:37:35Z</time>
      </trkpt>
      <trkpt lat="46.19249" lon="-1.4336">
        <ele>4.46</ele>
        <time>2016-08-28T16:37:36Z</time>
      </trkpt>
      <trkpt lat="46.19248" lon="-1.4336">
        <ele>4.94</ele>
        <time>2016-08-28T16:37:37Z</time>
      </trkpt>
      <trkpt lat="46.19246" lon="-1.43362">
        <ele>3.98</ele>
        <time>2016-08-28T16:37:38Z</time>
      </trkpt>
      <trkpt lat="46.19244" lon="-1.43364">
        <ele>3.98</ele>
        <time>2016-08-28T16:37:39Z</time>
      </trkpt>
      <trkpt lat="46.19242" lon="-1.43364">
        <ele>3.98</ele>
        <time>2016-08-28T16:37:40Z</time>
      </trkpt>
      <trkpt lat="46.1924" lon="-1.43363">
        <ele>5.42</ele>
        <time>2016-08-28T16:37:41Z</time>
      </trkpt>
      <trkpt lat="46.19239" lon="-1.43361">
        <ele>5.91</ele>
        <time>2016-08-28T16:37:42Z</time>
      </trkpt>
      <trkpt lat="46.19238" lon="-1.43357">
        <ele>4.46</ele>
        <time>2016-08-28T16:37:43Z</time>
      </trkpt>
      <trkpt lat="46.19238" lon="-1.43353">
        <ele>4.94</ele>
        <time>2016-08-28T16:37:44Z</time>
      </trkpt>
      <trkpt lat="46.19237" lon="-1.43343">
        <ele>4.46</ele>
        <time>2016-08-28T16:37:47Z</time>
      </trkpt>
      <trkpt lat="46.19235" lon="-1.43341">
        <ele>4.46</ele>
        <time>2016-08-28T16:37:48Z</time>
      </trkpt>
      <trkpt lat="46.19233" lon="-1.4334">
        <ele>4.46</ele>
        <time>2016-08-28T16:37:49Z</time>
      </trkpt>
      <trkpt lat="46.1923" lon="-1.43339">
        <ele>3.98</ele>
        <time>2016-08-28T16:37:50Z</time>
      </trkpt>
      <trkpt lat="46.19227" lon="-1.43338">
        <ele>4.46</ele>
        <time>2016-08-28T16:37:51Z</time>
      </trkpt>
      <trkpt lat="46.19224" lon="-1.43337">
        <ele>4.46</ele>
        <time>2016-08-28T16:37:52Z</time>
      </trkpt>
      <trkpt lat="46.19222" lon="-1.43336">
        <ele>3.98</ele>
        <time>2016-08-28T16:37:53Z</time>
      </trkpt>
      <trkpt lat="46.19219" lon="-1.43335">
        <ele>4.46</ele>
        <time>2016-08-28T16:37:54Z</time>
      </trkpt>
      <trkpt lat="46.19216" lon="-1.43333">
        <ele>3.98</ele>
        <time>2016-08-28T16:37:55Z</time>
      </trkpt>
      <trkpt lat="46.19213" lon="-1.43331">
        <ele>4.46</ele>
        <time>2016-08-28T16:37:56Z</time>
      </trkpt>
      <trkpt lat="46.19187" lon="-1.43298">
        <ele>3.98</ele>
        <time>2016-08-28T16:38:05Z</time>
      </trkpt>
      <trkpt lat="46.19166" lon="-1.43252">
        <ele>5.91</ele>
        <time>2016-08-28T16:38:15Z</time>
      </trkpt>
      <trkpt lat="46.19156" lon="-1.43233">
        <ele>3.98</ele>
        <time>2016-08-28T16:38:19Z</time>
      </trkpt>
      <trkpt lat="46.19149" lon="-1.43224">
        <ele>3.98</ele>
        <time>2016-08-28T16:38:21Z</time>
      </trkpt>
      <trkpt lat="46.19139" lon="-1.43215">
        <ele>4.46</ele>
        <time>2016-08-28T16:38:24Z</time>
      </trkpt>
      <trkpt lat="46.19137" lon="-1.4321">
        <ele>4.94</ele>
        <time>2016-08-28T16:38:25Z</time>
      </trkpt>
      <trkpt lat="46.19121" lon="-1.43176">
        <ele>5.42</ele>
        <time>2016-08-28T16:38:33Z</time>
      </trkpt>
      <trkpt lat="46.19094" lon="-1.43114">
        <ele>5.42</ele>
        <time>2016-08-28T16:38:46Z</time>
      </trkpt>
      <trkpt lat="46.19078" lon="-1.43102">
        <ele>6.39</ele>
        <time>2016-08-28T16:38:54Z</time>
      </trkpt>
      <trkpt lat="46.1907" lon="-1.43104">
        <ele>6.87</ele>
        <time>2016-08-28T16:38:58Z</time>
      </trkpt>
      <trkpt lat="46.19068" lon="-1.43104">
        <ele>6.39</ele>
        <time>2016-08-28T16:38:59Z</time>
      </trkpt>
      <trkpt lat="46.19065" lon="-1.43105">
        <ele>6.39</ele>
        <time>2016-08-28T16:39:07Z</time>
      </trkpt>
      <trkpt lat="46.19064" lon="-1.43105">
        <ele>6.39</ele>
        <time>2016-08-28T16:39:08Z</time>
      </trkpt>
      <trkpt lat="46.19063" lon="-1.43106">
        <ele>6.39</ele>
        <time>2016-08-28T16:39:09Z</time>
      </trkpt>
      <trkpt lat="46.1905" lon="-1.4311">
        <ele>6.39</ele>
        <time>2016-08-28T16:39:19Z</time>
      </trkpt>
      <trkpt lat="46.1905" lon="-1.4311">
        <ele>16</ele>
        <time>2016-08-28T16:39:31Z</time>
      </trkpt>
      <trkpt lat="46.1905" lon="-1.4311">
        <ele>0.62</ele>
        <time>2016-08-28T16:39:32Z</time>
      </trkpt>
      <trkpt lat="46.1905" lon="-1.4311">
        <ele>6.39</ele>
        <time>2016-08-28T16:39:33Z</time>
      </trkpt>
      <trkpt lat="46.19051" lon="-1.4311">
        <ele>10.71</ele>
        <time>2016-08-28T16:39:35Z</time>
      </trkpt>
      <trkpt lat="46.19051" lon="-1.4311">
        <ele>11.19</ele>
        <time>2016-08-28T16:39:36Z</time>
      </trkpt>
      <trkpt lat="46.19051" lon="-1.4311">
        <ele>7.83</ele>
        <time>2016-08-28T16:39:37Z</time>
      </trkpt>
      <trkpt lat="46.19051" lon="-1.43111">
        <ele>-1.79</ele>
        <time>2016-08-28T16:39:38Z</time>
      </trkpt>
      <trkpt lat="46.19051" lon="-1.43111">
        <ele>6.87</ele>
        <time>2016-08-28T16:39:39Z</time>
      </trkpt>
      <trkpt lat="46.19051" lon="-1.43111">
        <ele>-5.15</ele>
        <time>2016-08-28T16:39:40Z</time>
      </trkpt>
      <trkpt lat="46.19051" lon="-1.43111">
        <ele>7.83</ele>
        <time>2016-08-28T16:39:41Z</time>
      </trkpt>
      <trkpt lat="46.19051" lon="-1.43111">
        <ele>0.62</ele>
        <time>2016-08-28T16:39:49Z</time>
      </trkpt>
      <trkpt lat="46.19051" lon="-1.43111">
        <ele>6.87</ele>
        <time>2016-08-28T16:39:50Z</time>
      </trkpt>
      <trkpt lat="46.19051" lon="-1.43111">
        <ele>10.23</ele>
        <time>2016-08-28T16:39:51Z</time>
      </trkpt>
      <trkpt lat="46.19051" lon="-1.43111">
        <ele>7.35</ele>
        <time>2016-08-28T16:39:52Z</time>
      </trkpt>
      <trkpt lat="46.19051" lon="-1.43111">
        <ele>11.67</ele>
        <time>2016-08-28T16:39:53Z</time>
      </trkpt>
      <trkpt lat="46.19051" lon="-1.43111">
        <ele>-9.48</ele>
        <time>2016-08-28T16:39:54Z</time>
      </trkpt>
      <trkpt lat="46.19051" lon="-1.43111">
        <ele>16.48</ele>
        <time>2016-08-28T16:39:55Z</time>
      </trkpt>
      <trkpt lat="46.19051" lon="-1.43111">
        <ele>-7.07</ele>
        <time>2016-08-28T16:39:56Z</time>
      </trkpt>
      <trkpt lat="46.19051" lon="-1.43111">
        <ele>9.75</ele>
        <time>2016-08-28T16:39:57Z</time>
      </trkpt>
      <trkpt lat="46.19051" lon="-1.43111">
        <ele>-6.59</ele>
        <time>2016-08-28T16:39:58Z</time>
      </trkpt>
      <trkpt lat="46.19051" lon="-1.43111">
        <ele>7.35</ele>
        <time>2016-08-28T16:39:59Z</time>
      </trkpt>
      <trkpt lat="46.19051" lon="-1.43111">
        <ele>3.5</ele>
        <time>2016-08-28T16:40:01Z</time>
      </trkpt>
      <trkpt lat="46.19051" lon="-1.43111">
        <ele>11.19</ele>
        <time>2016-08-28T16:40:02Z</time>
      </trkpt>
      <trkpt lat="46.19051" lon="-1.43111">
        <ele>5.91</ele>
        <time>2016-08-28T16:40:03Z</time>
      </trkpt>
      <trkpt lat="46.19051" lon="-1.43111">
        <ele>1.1</ele>
        <time>2016-08-28T16:40:05Z</time>
      </trkpt>
      <trkpt lat="46.19051" lon="-1.43111">
        <ele>-8.03</ele>
        <time>2016-08-28T16:40:06Z</time>
      </trkpt>
      <trkpt lat="46.19051" lon="-1.43111">
        <ele>1.58</ele>
        <time>2016-08-28T16:40:07Z</time>
      </trkpt>
      <trkpt lat="46.19051" lon="-1.43111">
        <ele>9.75</ele>
        <time>2016-08-28T16:40:08Z</time>
      </trkpt>
      <trkpt lat="46.19051" lon="-1.43111">
        <ele>5.91</ele>
        <time>2016-08-28T16:40:09Z</time>
      </trkpt>
      <trkpt lat="46.19051" lon="-1.43111">
        <ele>8.31</ele>
        <time>2016-08-28T16:40:18Z</time>
      </trkpt>
      <trkpt lat="46.19051" lon="-1.43111">
        <ele>5.91</ele>
        <time>2016-08-28T16:40:20Z</time>
      </trkpt>
      <trkpt lat="46.19049" lon="-1.43116">
        <ele>6.39</ele>
        <time>2016-08-28T16:40:30Z</time>
      </trkpt>
      <trkpt lat="46.19049" lon="-1.43116">
        <ele>6.39</ele>
        <time>2016-08-28T16:40:56Z</time>
      </trkpt>
      <trkpt lat="46.19048" lon="-1.43116">
        <ele>6.39</ele>
        <time>2016-08-28T16:41:26Z</time>
      </trkpt>
      <trkpt lat="46.19049" lon="-1.43116">
        <ele>6.39</ele>
        <time>2016-08-28T16:41:53Z</time>
      </trkpt>
      <trkpt lat="46.19049" lon="-1.43116">
        <ele>6.39</ele>
        <time>2016-08-28T16:42:22Z</time>
      </trkpt>
      <trkpt lat="46.19049" lon="-1.43114">
        <ele>5.42</ele>
        <time>2016-08-28T16:42:25Z</time>
      </trkpt>
      <trkpt lat="46.1905" lon="-1.43113">
        <ele>5.91</ele>
        <time>2016-08-28T16:42:26Z</time>
      </trkpt>
      <trkpt lat="46.19052" lon="-1.43112">
        <ele>5.91</ele>
        <time>2016-08-28T16:42:27Z</time>
      </trkpt>
      <trkpt lat="46.19053" lon="-1.43112">
        <ele>6.39</ele>
        <time>2016-08-28T16:42:28Z</time>
      </trkpt>
      <trkpt lat="46.19054" lon="-1.43112">
        <ele>6.39</ele>
        <time>2016-08-28T16:42:29Z</time>
      </trkpt>
      <trkpt lat="46.19055" lon="-1.43112">
        <ele>5.91</ele>
        <time>2016-08-28T16:42:30Z</time>
      </trkpt>
      <trkpt lat="46.19056" lon="-1.43112">
        <ele>5.91</ele>
        <time>2016-08-28T16:42:31Z</time>
      </trkpt>
      <trkpt lat="46.19058" lon="-1.43111">
        <ele>5.91</ele>
        <time>2016-08-28T16:42:32Z</time>
      </trkpt>
      <trkpt lat="46.19059" lon="-1.4311">
        <ele>5.91</ele>
        <time>2016-08-28T16:42:33Z</time>
      </trkpt>
      <trkpt lat="46.1906" lon="-1.43109">
        <ele>6.39</ele>
        <time>2016-08-28T16:42:34Z</time>
      </trkpt>
      <trkpt lat="46.19061" lon="-1.43109">
        <ele>6.39</ele>
        <time>2016-08-28T16:42:35Z</time>
      </trkpt>
      <trkpt lat="46.19065" lon="-1.43105">
        <ele>6.39</ele>
        <time>2016-08-28T16:42:39Z</time>
      </trkpt>
      <trkpt lat="46.19066" lon="-1.43104">
        <ele>5.91</ele>
        <time>2016-08-28T16:42:40Z</time>
      </trkpt>
      <trkpt lat="46.19081" lon="-1.43102">
        <ele>-1.79</ele>
        <time>2016-08-28T16:42:47Z</time>
      </trkpt>
      <trkpt lat="46.19084" lon="-1.431">
        <ele>5.42</ele>
        <time>2016-08-28T16:42:48Z</time>
      </trkpt>
      <trkpt lat="46.19106" lon="-1.43079">
        <ele>4.46</ele>
        <time>2016-08-28T16:42:55Z</time>
      </trkpt>
      <trkpt lat="46.19127" lon="-1.43048">
        <ele>2.54</ele>
        <time>2016-08-28T16:43:01Z</time>
      </trkpt>
      <trkpt lat="46.19132" lon="-1.43041">
        <ele>3.02</ele>
        <time>2016-08-28T16:43:02Z</time>
      </trkpt>
      <trkpt lat="46.19177" lon="-1.42975">
        <ele>1.1</ele>
        <time>2016-08-28T16:43:13Z</time>
      </trkpt>
      <trkpt lat="46.19225" lon="-1.4291">
        <ele>2.06</ele>
        <time>2016-08-28T16:43:26Z</time>
      </trkpt>
      <trkpt lat="46.1923" lon="-1.42901">
        <ele>2.06</ele>
        <time>2016-08-28T16:43:28Z</time>
      </trkpt>
      <trkpt lat="46.19232" lon="-1.42896">
        <ele>2.06</ele>
        <time>2016-08-28T16:43:29Z</time>
      </trkpt>
      <trkpt lat="46.19232" lon="-1.4289">
        <ele>1.58</ele>
        <time>2016-08-28T16:43:30Z</time>
      </trkpt>
      <trkpt lat="46.19231" lon="-1.42884">
        <ele>1.58</ele>
        <time>2016-08-28T16:43:31Z</time>
      </trkpt>
      <trkpt lat="46.1923" lon="-1.42878">
        <ele>1.58</ele>
        <time>2016-08-28T16:43:32Z</time>
      </trkpt>
      <trkpt lat="46.19218" lon="-1.42779">
        <ele>2.54</ele>
        <time>2016-08-28T16:43:46Z</time>
      </trkpt>
      <trkpt lat="46.19206" lon="-1.42686">
        <ele>2.06</ele>
        <time>2016-08-28T16:43:59Z</time>
      </trkpt>
      <trkpt lat="46.19192" lon="-1.42577">
        <ele>1.58</ele>
        <time>2016-08-28T16:44:13Z</time>
      </trkpt>
      <trkpt lat="46.19187" lon="-1.42483">
        <ele>1.58</ele>
        <time>2016-08-28T16:44:25Z</time>
      </trkpt>
      <trkpt lat="46.1918" lon="-1.42372">
        <ele>2.06</ele>
        <time>2016-08-28T16:44:39Z</time>
      </trkpt>
      <trkpt lat="46.1918" lon="-1.42356">
        <ele>1.58</ele>
        <time>2016-08-28T16:44:41Z</time>
      </trkpt>
      <trkpt lat="46.19181" lon="-1.42349">
        <ele>2.06</ele>
        <time>2016-08-28T16:44:42Z</time>
      </trkpt>
      <trkpt lat="46.19182" lon="-1.42342">
        <ele>2.06</ele>
        <time>2016-08-28T16:44:43Z</time>
      </trkpt>
      <trkpt lat="46.19181" lon="-1.42336">
        <ele>2.06</ele>
        <time>2016-08-28T16:44:44Z</time>
      </trkpt>
      <trkpt lat="46.19178" lon="-1.42333">
        <ele>2.06</ele>
        <time>2016-08-28T16:44:45Z</time>
      </trkpt>
      <trkpt lat="46.19174" lon="-1.42332">
        <ele>2.06</ele>
        <time>2016-08-28T16:44:46Z</time>
      </trkpt>
      <trkpt lat="46.1917" lon="-1.42332">
        <ele>1.58</ele>
        <time>2016-08-28T16:44:47Z</time>
      </trkpt>
      <trkpt lat="46.19166" lon="-1.42331">
        <ele>1.1</ele>
        <time>2016-08-28T16:44:48Z</time>
      </trkpt>
      <trkpt lat="46.19161" lon="-1.42329">
        <ele>1.1</ele>
        <time>2016-08-28T16:44:49Z</time>
      </trkpt>
      <trkpt lat="46.19157" lon="-1.42327">
        <ele>1.58</ele>
        <time>2016-08-28T16:44:50Z</time>
      </trkpt>
      <trkpt lat="46.19153" lon="-1.42325">
        <ele>1.58</ele>
        <time>2016-08-28T16:44:51Z</time>
      </trkpt>
      <trkpt lat="46.19149" lon="-1.42322">
        <ele>2.06</ele>
        <time>2016-08-28T16:44:52Z</time>
      </trkpt>
      <trkpt lat="46.1911" lon="-1.42306">
        <ele>1.1</ele>
        <time>2016-08-28T16:45:02Z</time>
      </trkpt>
      <trkpt lat="46.19106" lon="-1.42308">
        <ele>1.1</ele>
        <time>2016-08-28T16:45:03Z</time>
      </trkpt>
      <trkpt lat="46.19102" lon="-1.42312">
        <ele>1.58</ele>
        <time>2016-08-28T16:45:04Z</time>
      </trkpt>
      <trkpt lat="46.19099" lon="-1.42315">
        <ele>1.1</ele>
        <time>2016-08-28T16:45:05Z</time>
      </trkpt>
      <trkpt lat="46.19096" lon="-1.42317">
        <ele>0.62</ele>
        <time>2016-08-28T16:45:06Z</time>
      </trkpt>
      <trkpt lat="46.19092" lon="-1.42318">
        <ele>1.1</ele>
        <time>2016-08-28T16:45:07Z</time>
      </trkpt>
      <trkpt lat="46.19088" lon="-1.42318">
        <ele>1.1</ele>
        <time>2016-08-28T16:45:08Z</time>
      </trkpt>
      <trkpt lat="46.19084" lon="-1.42316">
        <ele>1.1</ele>
        <time>2016-08-28T16:45:09Z</time>
      </trkpt>
      <trkpt lat="46.19081" lon="-1.42314">
        <ele>1.1</ele>
        <time>2016-08-28T16:45:10Z</time>
      </trkpt>
      <trkpt lat="46.19077" lon="-1.42312">
        <ele>1.1</ele>
        <time>2016-08-28T16:45:11Z</time>
      </trkpt>
      <trkpt lat="46.1904" lon="-1.42285">
        <ele>1.1</ele>
        <time>2016-08-28T16:45:21Z</time>
      </trkpt>
      <trkpt lat="46.19031" lon="-1.42281">
        <ele>1.1</ele>
        <time>2016-08-28T16:45:23Z</time>
      </trkpt>
      <trkpt lat="46.1898" lon="-1.4225">
        <ele>0.62</ele>
        <time>2016-08-28T16:45:37Z</time>
      </trkpt>
      <trkpt lat="46.18954" lon="-1.42231">
        <ele>1.1</ele>
        <time>2016-08-28T16:45:45Z</time>
      </trkpt>
      <trkpt lat="46.18952" lon="-1.42231">
        <ele>1.1</ele>
        <time>2016-08-28T16:45:46Z</time>
      </trkpt>
      <trkpt lat="46.1895" lon="-1.42233">
        <ele>1.1</ele>
        <time>2016-08-28T16:45:47Z</time>
      </trkpt>
      <trkpt lat="46.18949" lon="-1.42236">
        <ele>1.1</ele>
        <time>2016-08-28T16:45:48Z</time>
      </trkpt>
      <trkpt lat="46.18948" lon="-1.42239">
        <ele>0.62</ele>
        <time>2016-08-28T16:45:49Z</time>
      </trkpt>
      <trkpt lat="46.18946" lon="-1.42242">
        <ele>1.1</ele>
        <time>2016-08-28T16:45:50Z</time>
      </trkpt>
      <trkpt lat="46.1894" lon="-1.42253">
        <ele>2.06</ele>
        <time>2016-08-28T16:45:55Z</time>
      </trkpt>
      <trkpt lat="46.18938" lon="-1.42252">
        <ele>1.58</ele>
        <time>2016-08-28T16:45:56Z</time>
      </trkpt>
      <trkpt lat="46.18937" lon="-1.4225">
        <ele>1.58</ele>
        <time>2016-08-28T16:45:57Z</time>
      </trkpt>
      <trkpt lat="46.18935" lon="-1.42249">
        <ele>1.58</ele>
        <time>2016-08-28T16:45:58Z</time>
      </trkpt>
      <trkpt lat="46.18934" lon="-1.42248">
        <ele>1.1</ele>
        <time>2016-08-28T16:45:59Z</time>
      </trkpt>
      <trkpt lat="46.18932" lon="-1.42247">
        <ele>1.1</ele>
        <time>2016-08-28T16:46:00Z</time>
      </trkpt>
      <trkpt lat="46.18931" lon="-1.42245">
        <ele>1.58</ele>
        <time>2016-08-28T16:46:01Z</time>
      </trkpt>
      <trkpt lat="46.18929" lon="-1.42244">
        <ele>1.1</ele>
        <time>2016-08-28T16:46:02Z</time>
      </trkpt>
      <trkpt lat="46.18928" lon="-1.42243">
        <ele>1.1</ele>
        <time>2016-08-28T16:46:03Z</time>
      </trkpt>
      <trkpt lat="46.18924" lon="-1.42239">
        <ele>1.58</ele>
        <time>2016-08-28T16:46:10Z</time>
      </trkpt>
      <trkpt lat="46.18916" lon="-1.4223">
        <ele>-3.71</ele>
        <time>2016-08-28T16:46:19Z</time>
      </trkpt>
      <trkpt lat="46.18915" lon="-1.42229">
        <ele>2.06</ele>
        <time>2016-08-28T16:46:20Z</time>
      </trkpt>
      <trkpt lat="46.18913" lon="-1.42229">
        <ele>2.06</ele>
        <time>2016-08-28T16:46:21Z</time>
      </trkpt>
      <trkpt lat="46.18912" lon="-1.42228">
        <ele>2.06</ele>
        <time>2016-08-28T16:46:22Z</time>
      </trkpt>
      <trkpt lat="46.18911" lon="-1.42227">
        <ele>1.1</ele>
        <time>2016-08-28T16:46:23Z</time>
      </trkpt>
      <trkpt lat="46.18898" lon="-1.42214">
        <ele>1.58</ele>
        <time>2016-08-28T16:46:36Z</time>
      </trkpt>
      <trkpt lat="46.18886" lon="-1.42199">
        <ele>2.06</ele>
        <time>2016-08-28T16:46:49Z</time>
      </trkpt>
      <trkpt lat="46.18882" lon="-1.42193">
        <ele>1.58</ele>
        <time>2016-08-28T16:46:55Z</time>
      </trkpt>
      <trkpt lat="46.18881" lon="-1.42192">
        <ele>2.06</ele>
        <time>2016-08-28T16:46:56Z</time>
      </trkpt>
      <trkpt lat="46.18879" lon="-1.42191">
        <ele>2.06</ele>
        <time>2016-08-28T16:46:57Z</time>
      </trkpt>
      <trkpt lat="46.18878" lon="-1.4219">
        <ele>2.06</ele>
        <time>2016-08-28T16:46:58Z</time>
      </trkpt>
      <trkpt lat="46.18877" lon="-1.42188">
        <ele>2.06</ele>
        <time>2016-08-28T16:46:59Z</time>
      </trkpt>
      <trkpt lat="46.18874" lon="-1.42185">
        <ele>1.58</ele>
        <time>2016-08-28T16:47:01Z</time>
      </trkpt>
      <trkpt lat="46.18873" lon="-1.42181">
        <ele>1.58</ele>
        <time>2016-08-28T16:47:02Z</time>
      </trkpt>
      <trkpt lat="46.18872" lon="-1.42178">
        <ele>1.58</ele>
        <time>2016-08-28T16:47:03Z</time>
      </trkpt>
      <trkpt lat="46.18868" lon="-1.42133">
        <ele>1.1</ele>
        <time>2016-08-28T16:47:14Z</time>
      </trkpt>
      <trkpt lat="46.18855" lon="-1.42109">
        <ele>1.1</ele>
        <time>2016-08-28T16:47:22Z</time>
      </trkpt>
      <trkpt lat="46.18853" lon="-1.42105">
        <ele>-2.75</ele>
        <time>2016-08-28T16:47:23Z</time>
      </trkpt>
      <trkpt lat="46.18851" lon="-1.42101">
        <ele>1.58</ele>
        <time>2016-08-28T16:47:24Z</time>
      </trkpt>
      <trkpt lat="46.18844" lon="-1.42072">
        <ele>1.1</ele>
        <time>2016-08-28T16:47:31Z</time>
      </trkpt>
      <trkpt lat="46.18832" lon="-1.4205">
        <ele>2.06</ele>
        <time>2016-08-28T16:47:39Z</time>
      </trkpt>
      <trkpt lat="46.18832" lon="-1.42035">
        <ele>1.1</ele>
        <time>2016-08-28T16:47:44Z</time>
      </trkpt>
      <trkpt lat="46.18832" lon="-1.41998">
        <ele>1.1</ele>
        <time>2016-08-28T16:47:53Z</time>
      </trkpt>
      <trkpt lat="46.18822" lon="-1.41957">
        <ele>1.1</ele>
        <time>2016-08-28T16:48:03Z</time>
      </trkpt>
      <trkpt lat="46.18814" lon="-1.41939">
        <ele>1.58</ele>
        <time>2016-08-28T16:48:08Z</time>
      </trkpt>
      <trkpt lat="46.18813" lon="-1.41929">
        <ele>1.58</ele>
        <time>2016-08-28T16:48:11Z</time>
      </trkpt>
      <trkpt lat="46.18803" lon="-1.41908">
        <ele>1.58</ele>
        <time>2016-08-28T16:48:19Z</time>
      </trkpt>
      <trkpt lat="46.18804" lon="-1.41907">
        <ele>1.1</ele>
        <time>2016-08-28T16:48:27Z</time>
      </trkpt>
      <trkpt lat="46.18806" lon="-1.41904">
        <ele>1.1</ele>
        <time>2016-08-28T16:48:31Z</time>
      </trkpt>
      <trkpt lat="46.18819" lon="-1.41885">
        <ele>0.62</ele>
        <time>2016-08-28T16:48:39Z</time>
      </trkpt>
      <trkpt lat="46.18822" lon="-1.41882">
        <ele>0.14</ele>
        <time>2016-08-28T16:48:40Z</time>
      </trkpt>
      <trkpt lat="46.18827" lon="-1.41876">
        <ele>0.62</ele>
        <time>2016-08-28T16:48:42Z</time>
      </trkpt>
      <trkpt lat="46.18826" lon="-1.4186">
        <ele>0.62</ele>
        <time>2016-08-28T16:48:46Z</time>
      </trkpt>
      <trkpt lat="46.18813" lon="-1.41834">
        <ele>-14.28</ele>
        <time>2016-08-28T16:48:53Z</time>
      </trkpt>
      <trkpt lat="46.18811" lon="-1.4183">
        <ele>3.5</ele>
        <time>2016-08-28T16:48:54Z</time>
      </trkpt>
      <trkpt lat="46.18806" lon="-1.41822">
        <ele>-5.63</ele>
        <time>2016-08-28T16:48:56Z</time>
      </trkpt>
      <trkpt lat="46.18804" lon="-1.41818">
        <ele>5.91</ele>
        <time>2016-08-28T16:48:57Z</time>
      </trkpt>
      <trkpt lat="46.18803" lon="-1.41814">
        <ele>1.1</ele>
        <time>2016-08-28T16:48:58Z</time>
      </trkpt>
      <trkpt lat="46.1878" lon="-1.41769">
        <ele>1.58</ele>
        <time>2016-08-28T16:49:10Z</time>
      </trkpt>
      <trkpt lat="46.18779" lon="-1.41766">
        <ele>1.1</ele>
        <time>2016-08-28T16:49:11Z</time>
      </trkpt>
      <trkpt lat="46.18784" lon="-1.41752">
        <ele>1.58</ele>
        <time>2016-08-28T16:49:15Z</time>
      </trkpt>
      <trkpt lat="46.18798" lon="-1.41733">
        <ele>1.1</ele>
        <time>2016-08-28T16:49:20Z</time>
      </trkpt>
      <trkpt lat="46.18795" lon="-1.41705">
        <ele>2.06</ele>
        <time>2016-08-28T16:49:26Z</time>
      </trkpt>
      <trkpt lat="46.18791" lon="-1.41662">
        <ele>1.1</ele>
        <time>2016-08-28T16:49:34Z</time>
      </trkpt>
      <trkpt lat="46.1879" lon="-1.41656">
        <ele>0.62</ele>
        <time>2016-08-28T16:49:35Z</time>
      </trkpt>
      <trkpt lat="46.1879" lon="-1.4165">
        <ele>1.1</ele>
        <time>2016-08-28T16:49:36Z</time>
      </trkpt>
      <trkpt lat="46.18789" lon="-1.41645">
        <ele>1.1</ele>
        <time>2016-08-28T16:49:37Z</time>
      </trkpt>
      <trkpt lat="46.18788" lon="-1.4164">
        <ele>1.1</ele>
        <time>2016-08-28T16:49:38Z</time>
      </trkpt>
      <trkpt lat="46.18786" lon="-1.41635">
        <ele>1.1</ele>
        <time>2016-08-28T16:49:39Z</time>
      </trkpt>
      <trkpt lat="46.18784" lon="-1.41631">
        <ele>1.58</ele>
        <time>2016-08-28T16:49:40Z</time>
      </trkpt>
      <trkpt lat="46.18783" lon="-1.41627">
        <ele>1.58</ele>
        <time>2016-08-28T16:49:41Z</time>
      </trkpt>
      <trkpt lat="46.18782" lon="-1.41622">
        <ele>0.62</ele>
        <time>2016-08-28T16:49:42Z</time>
      </trkpt>
      <trkpt lat="46.18778" lon="-1.41589">
        <ele>1.1</ele>
        <time>2016-08-28T16:49:49Z</time>
      </trkpt>
      <trkpt lat="46.18773" lon="-1.41546">
        <ele>1.1</ele>
        <time>2016-08-28T16:49:57Z</time>
      </trkpt>
      <trkpt lat="46.18773" lon="-1.4154">
        <ele>1.58</ele>
        <time>2016-08-28T16:49:58Z</time>
      </trkpt>
      <trkpt lat="46.18772" lon="-1.41535">
        <ele>1.1</ele>
        <time>2016-08-28T16:49:59Z</time>
      </trkpt>
      <trkpt lat="46.18772" lon="-1.41531">
        <ele>1.58</ele>
        <time>2016-08-28T16:50:00Z</time>
      </trkpt>
      <trkpt lat="46.18771" lon="-1.41526">
        <ele>1.1</ele>
        <time>2016-08-28T16:50:01Z</time>
      </trkpt>
      <trkpt lat="46.18769" lon="-1.41521">
        <ele>1.58</ele>
        <time>2016-08-28T16:50:02Z</time>
      </trkpt>
      <trkpt lat="46.18768" lon="-1.41517">
        <ele>1.58</ele>
        <time>2016-08-28T16:50:03Z</time>
      </trkpt>
      <trkpt lat="46.18767" lon="-1.41512">
        <ele>1.58</ele>
        <time>2016-08-28T16:50:04Z</time>
      </trkpt>
      <trkpt lat="46.18761" lon="-1.41503">
        <ele>1.58</ele>
        <time>2016-08-28T16:50:07Z</time>
      </trkpt>
      <trkpt lat="46.18751" lon="-1.41503">
        <ele>5.42</ele>
        <time>2016-08-28T16:50:11Z</time>
      </trkpt>
      <trkpt lat="46.18748" lon="-1.41504">
        <ele>1.58</ele>
        <time>2016-08-28T16:50:12Z</time>
      </trkpt>
      <trkpt lat="46.18728" lon="-1.41525">
        <ele>3.02</ele>
        <time>2016-08-28T16:50:22Z</time>
      </trkpt>
      <trkpt lat="46.18723" lon="-1.41529">
        <ele>2.54</ele>
        <time>2016-08-28T16:50:24Z</time>
      </trkpt>
      <trkpt lat="46.18721" lon="-1.4153">
        <ele>3.02</ele>
        <time>2016-08-28T16:50:25Z</time>
      </trkpt>
      <trkpt lat="46.18718" lon="-1.41528">
        <ele>2.54</ele>
        <time>2016-08-28T16:50:27Z</time>
      </trkpt>
      <trkpt lat="46.18716" lon="-1.41526">
        <ele>3.02</ele>
        <time>2016-08-28T16:50:28Z</time>
      </trkpt>
      <trkpt lat="46.18716" lon="-1.41524">
        <ele>3.02</ele>
        <time>2016-08-28T16:50:29Z</time>
      </trkpt>
      <trkpt lat="46.18712" lon="-1.4151">
        <ele>3.02</ele>
        <time>2016-08-28T16:50:38Z</time>
      </trkpt>
      <trkpt lat="46.18711" lon="-1.41506">
        <ele>2.54</ele>
        <time>2016-08-28T16:50:39Z</time>
      </trkpt>
      <trkpt lat="46.18711" lon="-1.41502">
        <ele>3.02</ele>
        <time>2016-08-28T16:50:40Z</time>
      </trkpt>
      <trkpt lat="46.18704" lon="-1.41453">
        <ele>2.54</ele>
        <time>2016-08-28T16:50:51Z</time>
      </trkpt>
      <trkpt lat="46.18695" lon="-1.41412">
        <ele>3.02</ele>
        <time>2016-08-28T16:51:00Z</time>
      </trkpt>
      <trkpt lat="46.18673" lon="-1.41382">
        <ele>3.5</ele>
        <time>2016-08-28T16:51:10Z</time>
      </trkpt>
      <trkpt lat="46.18649" lon="-1.41363">
        <ele>3.5</ele>
        <time>2016-08-28T16:51:19Z</time>
      </trkpt>
      <trkpt lat="46.18647" lon="-1.41362">
        <ele>0.14</ele>
        <time>2016-08-28T16:51:25Z</time>
      </trkpt>
      <trkpt lat="46.18647" lon="-1.41362">
        <ele>14.08</ele>
        <time>2016-08-28T16:51:26Z</time>
      </trkpt>
      <trkpt lat="46.18647" lon="-1.41362">
        <ele>5.91</ele>
        <time>2016-08-28T16:51:27Z</time>
      </trkpt>
      <trkpt lat="46.18644" lon="-1.4136">
        <ele>3.02</ele>
        <time>2016-08-28T16:51:30Z</time>
      </trkpt>
      <trkpt lat="46.18643" lon="-1.41357">
        <ele>3.5</ele>
        <time>2016-08-28T16:51:31Z</time>
      </trkpt>
      <trkpt lat="46.18642" lon="-1.41352">
        <ele>3.02</ele>
        <time>2016-08-28T16:51:32Z</time>
      </trkpt>
      <trkpt lat="46.18644" lon="-1.4132">
        <ele>3.02</ele>
        <time>2016-08-28T16:51:37Z</time>
      </trkpt>
      <trkpt lat="46.18642" lon="-1.41313">
        <ele>3.02</ele>
        <time>2016-08-28T16:51:38Z</time>
      </trkpt>
      <trkpt lat="46.18639" lon="-1.41292">
        <ele>2.54</ele>
        <time>2016-08-28T16:51:41Z</time>
      </trkpt>
      <trkpt lat="46.18638" lon="-1.41279">
        <ele>2.54</ele>
        <time>2016-08-28T16:51:43Z</time>
      </trkpt>
      <trkpt lat="46.18634" lon="-1.41246">
        <ele>2.54</ele>
        <time>2016-08-28T16:51:48Z</time>
      </trkpt>
      <trkpt lat="46.18633" lon="-1.4124">
        <ele>2.54</ele>
        <time>2016-08-28T16:51:49Z</time>
      </trkpt>
      <trkpt lat="46.18632" lon="-1.41234">
        <ele>2.06</ele>
        <time>2016-08-28T16:51:50Z</time>
      </trkpt>
      <trkpt lat="46.18631" lon="-1.41223">
        <ele>2.54</ele>
        <time>2016-08-28T16:51:52Z</time>
      </trkpt>
      <trkpt lat="46.18627" lon="-1.41183">
        <ele>2.54</ele>
        <time>2016-08-28T16:51:59Z</time>
      </trkpt>
      <trkpt lat="46.1862" lon="-1.41142">
        <ele>2.54</ele>
        <time>2016-08-28T16:52:06Z</time>
      </trkpt>
      <trkpt lat="46.18616" lon="-1.41108">
        <ele>2.54</ele>
        <time>2016-08-28T16:52:11Z</time>
      </trkpt>
      <trkpt lat="46.18613" lon="-1.41075">
        <ele>2.06</ele>
        <time>2016-08-28T16:52:16Z</time>
      </trkpt>
      <trkpt lat="46.18612" lon="-1.4105">
        <ele>2.54</ele>
        <time>2016-08-28T16:52:20Z</time>
      </trkpt>
      <trkpt lat="46.18612" lon="-1.41044">
        <ele>3.02</ele>
        <time>2016-08-28T16:52:21Z</time>
      </trkpt>
      <trkpt lat="46.18611" lon="-1.41031">
        <ele>2.54</ele>
        <time>2016-08-28T16:52:23Z</time>
      </trkpt>
      <trkpt lat="46.18611" lon="-1.41025">
        <ele>2.54</ele>
        <time>2016-08-28T16:52:24Z</time>
      </trkpt>
      <trkpt lat="46.18612" lon="-1.40986">
        <ele>1.58</ele>
        <time>2016-08-28T16:52:30Z</time>
      </trkpt>
      <trkpt lat="46.18613" lon="-1.4098">
        <ele>1.58</ele>
        <time>2016-08-28T16:52:31Z</time>
      </trkpt>
      <trkpt lat="46.18614" lon="-1.40973">
        <ele>1.58</ele>
        <time>2016-08-28T16:52:32Z</time>
      </trkpt>
      <trkpt lat="46.18614" lon="-1.40967">
        <ele>2.06</ele>
        <time>2016-08-28T16:52:33Z</time>
      </trkpt>
      <trkpt lat="46.18614" lon="-1.40961">
        <ele>2.06</ele>
        <time>2016-08-28T16:52:34Z</time>
      </trkpt>
      <trkpt lat="46.18614" lon="-1.40955">
        <ele>1.58</ele>
        <time>2016-08-28T16:52:35Z</time>
      </trkpt>
      <trkpt lat="46.18621" lon="-1.4091">
        <ele>2.06</ele>
        <time>2016-08-28T16:52:43Z</time>
      </trkpt>
      <trkpt lat="46.18627" lon="-1.40866">
        <ele>2.06</ele>
        <time>2016-08-28T16:52:51Z</time>
      </trkpt>
      <trkpt lat="46.18633" lon="-1.40838">
        <ele>3.02</ele>
        <time>2016-08-28T16:52:58Z</time>
      </trkpt>
      <trkpt lat="46.18637" lon="-1.40819">
        <ele>3.02</ele>
        <time>2016-08-28T16:53:03Z</time>
      </trkpt>
      <trkpt lat="46.18638" lon="-1.40816">
        <ele>3.02</ele>
        <time>2016-08-28T16:53:10Z</time>
      </trkpt>
      <trkpt lat="46.1864" lon="-1.40815">
        <ele>3.02</ele>
        <time>2016-08-28T16:53:19Z</time>
      </trkpt>
      <trkpt lat="46.18641" lon="-1.40815">
        <ele>3.02</ele>
        <time>2016-08-28T16:53:24Z</time>
      </trkpt>
      <trkpt lat="46.18646" lon="-1.40816">
        <ele>2.54</ele>
        <time>2016-08-28T16:53:27Z</time>
      </trkpt>
      <trkpt lat="46.18647" lon="-1.40816">
        <ele>2.54</ele>
        <time>2016-08-28T16:53:28Z</time>
      </trkpt>
      <trkpt lat="46.18649" lon="-1.40815">
        <ele>2.54</ele>
        <time>2016-08-28T16:53:29Z</time>
      </trkpt>
      <trkpt lat="46.18651" lon="-1.40815">
        <ele>2.54</ele>
        <time>2016-08-28T16:53:30Z</time>
      </trkpt>
      <trkpt lat="46.18653" lon="-1.40816">
        <ele>2.54</ele>
        <time>2016-08-28T16:53:31Z</time>
      </trkpt>
      <trkpt lat="46.18655" lon="-1.40816">
        <ele>2.54</ele>
        <time>2016-08-28T16:53:32Z</time>
      </trkpt>
      <trkpt lat="46.18657" lon="-1.40816">
        <ele>2.54</ele>
        <time>2016-08-28T16:53:33Z</time>
      </trkpt>
      <trkpt lat="46.18659" lon="-1.40817">
        <ele>2.54</ele>
        <time>2016-08-28T16:53:34Z</time>
      </trkpt>
      <trkpt lat="46.18662" lon="-1.40818">
        <ele>3.02</ele>
        <time>2016-08-28T16:53:35Z</time>
      </trkpt>
      <trkpt lat="46.18664" lon="-1.40819">
        <ele>2.54</ele>
        <time>2016-08-28T16:53:36Z</time>
      </trkpt>
      <trkpt lat="46.18683" lon="-1.40825">
        <ele>2.54</ele>
        <time>2016-08-28T16:53:42Z</time>
      </trkpt>
      <trkpt lat="46.18712" lon="-1.40835">
        <ele>2.54</ele>
        <time>2016-08-28T16:53:50Z</time>
      </trkpt>
      <trkpt lat="46.18743" lon="-1.40841">
        <ele>3.02</ele>
        <time>2016-08-28T16:53:58Z</time>
      </trkpt>
      <trkpt lat="46.1875" lon="-1.40818">
        <ele>3.5</ele>
        <time>2016-08-28T16:54:05Z</time>
      </trkpt>
      <trkpt lat="46.18754" lon="-1.40805">
        <ele>3.02</ele>
        <time>2016-08-28T16:54:12Z</time>
      </trkpt>
      <trkpt lat="46.18754" lon="-1.40805">
        <ele>8.31</ele>
        <time>2016-08-28T16:54:17Z</time>
      </trkpt>
      <trkpt lat="46.18754" lon="-1.40805">
        <ele>3.5</ele>
        <time>2016-08-28T16:54:18Z</time>
      </trkpt>
      <trkpt lat="46.18754" lon="-1.40805">
        <ele>-0.34</ele>
        <time>2016-08-28T16:54:21Z</time>
      </trkpt>
      <trkpt lat="46.18754" lon="-1.40805">
        <ele>3.98</ele>
        <time>2016-08-28T16:54:23Z</time>
      </trkpt>
      <trkpt lat="46.18754" lon="-1.40805">
        <ele>7.35</ele>
        <time>2016-08-28T16:54:24Z</time>
      </trkpt>
      <trkpt lat="46.18755" lon="-1.40805">
        <ele>3.5</ele>
        <time>2016-08-28T16:54:25Z</time>
      </trkpt>
      <trkpt lat="46.18755" lon="-1.40805">
        <ele>-2.75</ele>
        <time>2016-08-28T16:54:37Z</time>
      </trkpt>
      <trkpt lat="46.18755" lon="-1.40805">
        <ele>2.54</ele>
        <time>2016-08-28T16:54:38Z</time>
      </trkpt>
    </trkseg>
  </trk>
</gpx>